[[{"header":{"parameterUnit":"m.s-1","parameterCategory":1,"la1":30.6,"la2":29.2853,"lo1":-89.7004,"lo2":-87.6739,"dy":0.0162,"dx":0.0183,"nx":112,"ny":82,"refTime":"2023-10-18T18:00:00:Z","depth":0,"parameterNumber":2,"parameterNumberName":"U-component_of_WINDS"},"data":[0.0,0.0,0.0,0.0,0.0,0.0,0.0,0.0,0.0,0.0,0.0,0.0,0.0,0.0,0.0,0.0,0.0,0.0,0.0,0.0,0.0,0.0,0.0,0.0,0.0,0.0,0.0,0.0,0.0,0.0,0.0,0.0,0.0,0.0,0.0,0.0,0.0,0.0,0.0,0.0,0.0,0.0,0.0,0.0,0.0,0.0,0.0,0.0,0.0,0.0,0.0,0.0,0.0,0.0,0.0,0.0,0.0,0.0,0.0,0.0,0.0,0.0,0.0,0.0,0.0,0.0,0.0,0.0,0.0,0.0,0.0,0.0,0.0,0.0,0.0,0.0,0.0,0.0,0.0,0.0,0.0,0.0,0.0,0.0,0.0,0.0,0.0,0.0,0.0,0.0,3.1524,3.123,3.119,3.119,3.119,3.119,3.1329,3.162,0.0,0.0,0.0,0.0,0.0,0.0,0.0,0.0,0.0,0.0,0.0,0.0,0.0,0.0,0.0,0.0,0.0,0.0,0.0,0.0,0.0,0.0,0.0,0.0,0.0,0.0,0.0,0.0,0.0,0.0,0.0,0.0,0.0,0.0,0.0,0.0,0.0,0.0,0.0,0.0,0.0,0.0,0.0,0.0,0.0,0.0,0.0,0.0,0.0,0.0,0.0,0.0,0.0,0.0,0.0,0.0,0.0,0.0,0.0,0.0,0.0,0.0,0.0,0.0,0.0,0.0,0.0,0.0,0.0,0.0,0.0,0.0,0.0,0.0,0.0,0.0,0.0,0.0,0.0,0.0,0.0,0.0,0.0,0.0,0.0,0.0,0.0,0.0,0.0,0.0,0.0,0.0,0.0,0.0,0.0,0.0,0.0,0.0,0.0,0.0,0.0,0.0,0.0,0.0,3.1269,3.119,3.119,3.119,3.119,3.119,3.123,3.1252,0.0,0.0,0.0,0.0,0.0,0.0,0.0,0.0,0.0,0.0,0.0,0.0,0.0,0.0,0.0,0.0,0.0,0.0,0.0,0.0,0.0,0.0,0.0,0.0,0.0,0.0,0.0,0.0,0.0,0.0,0.0,0.0,0.0,0.0,0.0,0.0,0.0,0.0,0.0,0.0,0.0,0.0,0.0,0.0,0.0,0.0,0.0,0.0,0.0,0.0,0.0,0.0,0.0,0.0,0.0,0.0,0.0,0.0,0.0,0.0,0.0,0.0,0.0,0.0,0.0,0.0,0.0,0.0,0.0,0.0,0.0,0.0,0.0,0.0,0.0,0.0,0.0,0.0,0.0,0.0,0.0,0.0,0.0,0.0,0.0,0.0,0.0,0.0,0.0,0.0,0.0,0.0,0.0,0.0,0.0,0.0,0.0,0.0,0.0,0.0,0.0,0.0,0.0,3.2496,3.2391,3.2391,3.2391,3.2391,3.2391,3.2019,3.1782,3.1782,3.141,0.0,0.0,0.0,0.0,0.0,0.0,0.0,0.0,0.0,0.0,0.0,0.0,0.0,0.0,0.0,0.0,0.0,0.0,0.0,0.0,0.0,0.0,0.0,0.0,0.0,0.0,0.0,0.0,0.0,0.0,0.0,0.0,0.0,0.0,0.0,0.0,0.0,0.0,0.0,0.0,0.0,0.0,0.0,0.0,0.0,0.0,0.0,0.0,0.0,0.0,0.0,0.0,0.0,0.0,0.0,0.0,0.0,0.0,0.0,0.0,0.0,0.0,0.0,0.0,0.0,0.0,0.0,0.0,0.0,0.0,0.0,0.0,0.0,0.0,0.0,0.0,0.0,0.0,0.0,0.0,0.0,0.0,0.0,0.0,0.0,0.0,0.0,0.0,0.0,0.0,0.0,0.0,0.0,0.0,0.0,0.0,0.0,0.0,0.0,0.0,0.0,0.0,3.3406,3.3406,3.3406,3.3406,3.3406,3.3406,3.2882,3.2544,3.2544,3.2019,0.0,0.0,0.0,0.0,0.0,0.0,0.0,0.0,0.0,0.0,0.0,0.0,0.0,0.0,0.0,0.0,0.0,0.0,0.0,0.0,0.0,0.0,0.0,0.0,0.0,0.0,0.0,0.0,0.0,0.0,0.0,0.0,0.0,0.0,0.0,0.0,0.0,0.0,0.0,0.0,0.0,0.0,0.0,0.0,0.0,0.0,0.0,0.0,0.0,0.0,0.0,0.0,0.0,0.0,0.0,0.0,0.0,0.0,0.0,0.0,0.0,0.0,0.0,0.0,0.0,0.0,0.0,0.0,0.0,0.0,0.0,0.0,0.0,0.0,0.0,0.0,0.0,0.0,0.0,0.0,0.0,0.0,0.0,0.0,0.0,0.0,0.0,0.0,0.0,0.0,0.0,0.0,0.0,0.0,0.0,0.0,0.0,0.0,0.0,0.0,0.0,0.0,3.3406,3.3406,3.3406,3.3406,3.3406,3.3406,3.3355,3.3322,3.3322,3.3271,0.0,0.0,0.0,0.0,0.0,0.0,0.0,0.0,0.0,0.0,0.0,0.0,0.0,0.0,0.0,0.0,0.0,0.0,0.0,0.0,0.0,0.0,0.0,0.0,0.0,0.0,0.0,0.0,0.0,0.0,0.0,0.0,0.0,0.0,0.0,0.0,0.0,0.0,0.0,0.0,0.0,0.0,0.0,0.0,0.0,0.0,0.0,0.0,0.0,0.0,0.0,0.0,0.0,0.0,0.0,0.0,0.0,0.0,0.0,0.0,0.0,0.0,0.0,0.0,0.0,0.0,0.0,0.0,0.0,0.0,0.0,0.0,0.0,0.0,0.0,0.0,0.0,0.0,0.0,0.0,0.0,0.0,0.0,0.0,0.0,0.0,0.0,0.0,0.0,0.0,0.0,0.0,0.0,0.0,0.0,0.0,0.0,0.0,0.0,0.0,0.0,0.0,3.4793,3.4793,3.4793,3.4793,3.4793,3.4793,3.4353,3.4083,3.4083,0.0,0.0,0.0,0.0,0.0,0.0,0.0,0.0,0.0,0.0,0.0,0.0,0.0,0.0,0.0,0.0,0.0,0.0,0.0,0.0,0.0,0.0,0.0,0.0,0.0,0.0,0.0,0.0,0.0,0.0,0.0,0.0,0.0,0.0,0.0,0.0,0.0,0.0,0.0,0.0,0.0,0.0,0.0,0.0,0.0,0.0,0.0,0.0,0.0,0.0,0.0,0.0,0.0,0.0,0.0,0.0,0.0,0.0,0.0,0.0,0.0,0.0,0.0,0.0,0.0,0.0,0.0,0.0,0.0,0.0,0.0,0.0,0.0,0.0,0.0,0.0,0.0,0.0,0.0,0.0,0.0,0.0,0.0,0.0,0.0,0.0,0.0,0.0,0.0,0.0,0.0,0.0,0.0,0.0,0.0,0.0,0.0,0.0,0.0,0.0,0.0,0.0,3.5577,3.5594,3.5549,3.5549,3.5549,3.5549,3.5503,3.5032,3.4773,3.4817,0.0,0.0,0.0,0.0,0.0,0.0,0.0,0.0,0.0,0.0,0.0,0.0,0.0,0.0,0.0,0.0,0.0,0.0,0.0,0.0,0.0,0.0,0.0,0.0,0.0,0.0,0.0,0.0,0.0,0.0,0.0,0.0,0.0,0.0,0.0,0.0,0.0,0.0,0.0,0.0,0.0,0.0,0.0,0.0,0.0,0.0,0.0,0.0,0.0,0.0,0.0,0.0,0.0,0.0,0.0,0.0,0.0,0.0,0.0,0.0,0.0,0.0,0.0,0.0,0.0,0.0,0.0,0.0,0.0,0.0,0.0,0.0,0.0,0.0,0.0,0.0,0.0,0.0,0.0,0.0,0.0,0.0,0.0,0.0,0.0,0.0,0.0,0.0,0.0,0.0,0.0,0.0,0.0,0.0,0.0,0.0,0.0,0.0,0.0,0.0,0.0,0.0,3.5577,3.552,3.5492,3.5492,3.5492,3.5446,3.5291,3.5291,3.5354,0.0,0.0,0.0,0.0,0.0,0.0,0.0,0.0,0.0,0.0,0.0,0.0,0.0,0.0,0.0,0.0,0.0,0.0,0.0,0.0,0.0,0.0,0.0,0.0,0.0,0.0,0.0,0.0,0.0,0.0,0.0,0.0,0.0,0.0,0.0,0.0,0.0,0.0,0.0,0.0,0.0,0.0,0.0,0.0,0.0,0.0,0.0,0.0,0.0,0.0,0.0,0.0,0.0,0.0,0.0,0.0,0.0,0.0,0.0,0.0,0.0,0.0,0.0,0.0,0.0,0.0,0.0,0.0,0.0,0.0,0.0,0.0,0.0,0.0,0.0,0.0,0.0,0.0,0.0,0.0,0.0,0.0,0.0,0.0,0.0,0.0,0.0,0.0,0.0,0.0,0.0,0.0,0.0,0.0,0.0,0.0,0.0,0.0,0.0,0.0,0.0,0.0,0.0,3.552,3.5429,3.5354,3.5354,3.5446,3.5446,3.5291,3.54,3.5446,3.5492,0.0,0.0,0.0,0.0,0.0,0.0,0.0,0.0,0.0,0.0,0.0,0.0,0.0,0.0,0.0,0.0,0.0,0.0,0.0,0.0,0.0,0.0,0.0,0.0,0.0,0.0,0.0,0.0,0.0,0.0,0.0,0.0,0.0,0.0,0.0,0.0,0.0,0.0,0.0,0.0,0.0,0.0,0.0,0.0,0.0,0.0,0.0,0.0,0.0,0.0,0.0,0.0,0.0,0.0,0.0,0.0,0.0,0.0,0.0,0.0,0.0,0.0,0.0,0.0,0.0,0.0,0.0,0.0,0.0,0.0,0.0,0.0,0.0,0.0,0.0,0.0,0.0,0.0,0.0,0.0,0.0,0.0,0.0,0.0,0.0,0.0,0.0,0.0,0.0,0.0,0.0,0.0,0.0,0.0,0.0,0.0,0.0,0.0,0.0,0.0,0.0,0.0,3.6239,3.5927,3.5749,3.605,3.6178,3.6178,3.6035,3.5816,3.5743,3.579,0.0,0.0,0.0,0.0,0.0,0.0,0.0,0.0,0.0,0.0,0.0,0.0,0.0,0.0,0.0,0.0,0.0,0.0,0.0,0.0,0.0,0.0,0.0,0.0,0.0,0.0,0.0,0.0,0.0,0.0,0.0,0.0,0.0,0.0,0.0,0.0,0.0,0.0,0.0,0.0,0.0,0.0,0.0,0.0,0.0,0.0,0.0,0.0,0.0,0.0,0.0,0.0,0.0,0.0,0.0,0.0,0.0,0.0,0.0,0.0,0.0,0.0,0.0,0.0,0.0,0.0,0.0,0.0,0.0,0.0,0.0,0.0,0.0,0.0,0.0,0.0,0.0,0.0,0.0,0.0,0.0,0.0,0.0,0.0,0.0,0.0,0.0,0.0,0.0,0.0,0.0,0.0,0.0,0.0,0.0,0.0,0.0,0.0,0.0,0.0,0.0,0.0,3.7385,3.6786,3.6521,3.7186,3.727,3.727,3.7102,3.6489,3.6157,3.6304,0.0,0.0,0.0,0.0,0.0,0.0,0.0,0.0,0.0,0.0,0.0,0.0,0.0,0.0,0.0,0.0,0.0,0.0,0.0,0.0,0.0,0.0,0.0,0.0,0.0,0.0,0.0,0.0,0.0,0.0,0.0,0.0,0.0,0.0,0.0,0.0,0.0,0.0,0.0,0.0,0.0,0.0,0.0,0.0,0.0,0.0,0.0,0.0,0.0,0.0,0.0,0.0,0.0,0.0,0.0,0.0,0.0,0.0,0.0,0.0,2.9118,2.9805,0.0,0.0,0.0,0.0,0.0,0.0,0.0,0.0,0.0,0.0,0.0,0.0,0.0,0.0,0.0,0.0,0.0,0.0,0.0,0.0,0.0,0.0,0.0,0.0,0.0,0.0,0.0,0.0,0.0,0.0,0.0,0.0,0.0,0.0,0.0,0.0,0.0,0.0,0.0,0.0,3.7303,3.707,3.6987,3.7153,3.7219,3.727,3.7102,3.707,3.7037,3.707,3.6937,0.0,0.0,0.0,0.0,0.0,0.0,0.0,0.0,0.0,0.0,0.0,0.0,0.0,0.0,0.0,0.0,0.0,0.0,0.0,0.0,0.0,0.0,0.0,0.0,0.0,0.0,0.0,0.0,0.0,0.0,0.0,0.0,0.0,0.0,0.0,0.0,0.0,0.0,0.0,0.0,0.0,0.0,0.0,0.0,0.0,0.0,0.0,0.0,0.0,0.0,0.0,0.0,0.0,0.0,0.0,0.0,0.0,0.0,0.0,2.8763,2.898,0.0,0.0,0.0,0.0,0.0,0.0,0.0,0.0,0.0,0.0,0.0,0.0,0.0,0.0,0.0,0.0,0.0,0.0,0.0,0.0,0.0,0.0,0.0,0.0,0.0,0.0,0.0,0.0,0.0,0.0,0.0,0.0,0.0,0.0,0.0,0.0,0.0,0.0,0.0,0.0,3.7732,3.715,3.6853,3.7193,3.7567,3.7728,3.7658,3.7711,3.7751,3.7751,3.7469,0.0,0.0,0.0,0.0,0.0,0.0,0.0,0.0,0.0,0.0,0.0,0.0,0.0,0.0,0.0,0.0,0.0,0.0,0.0,0.0,0.0,0.0,0.0,0.0,0.0,0.0,0.0,0.0,0.0,0.0,0.0,0.0,0.0,0.0,0.0,0.0,0.0,0.0,0.0,0.0,0.0,0.0,0.0,0.0,0.0,0.0,0.0,0.0,0.0,0.0,0.0,0.0,0.0,2.8788,2.8706,2.8722,2.9227,2.9185,2.8719,2.8706,2.8446,2.8082,2.906,0.0,0.0,0.0,0.0,0.0,0.0,0.0,0.0,0.0,0.0,0.0,0.0,0.0,0.0,0.0,0.0,0.0,0.0,0.0,0.0,0.0,0.0,3.2226,3.2873,3.2795,3.268,3.3115,0.0,0.0,0.0,0.0,0.0,0.0,0.0,0.0,0.0,0.0,0.0,3.8213,3.7211,3.6811,3.7658,3.8051,3.8351,3.8463,3.8426,3.8394,3.8394,3.7934,3.7652,0.0,0.0,0.0,0.0,0.0,0.0,0.0,0.0,0.0,0.0,0.0,0.0,0.0,0.0,0.0,0.0,0.0,0.0,0.0,0.0,0.0,0.0,0.0,0.0,0.0,0.0,0.0,0.0,0.0,0.0,0.0,0.0,2.8826,2.8826,0.0,0.0,0.0,0.0,0.0,0.0,0.0,0.0,0.0,0.0,0.0,0.0,0.0,2.9061,2.9495,2.8966,2.8964,2.9471,2.8926,2.8682,2.8682,2.877,2.8759,2.8703,2.8726,0.0,2.938,2.9524,0.0,0.0,0.0,0.0,0.0,0.0,0.0,0.0,0.0,0.0,0.0,0.0,0.0,0.0,0.0,0.0,0.0,0.0,0.0,0.0,0.0,0.0,3.208,3.2362,3.2751,3.3139,3.3185,3.3644,3.4336,3.5031,3.5213,3.5602,0.0,0.0,0.0,0.0,0.0,0.0,3.8278,3.7684,3.7742,3.8898,3.859,3.8535,3.9148,3.9189,3.9139,3.9123,3.9093,3.9043,3.9043,3.9149,0.0,0.0,0.0,0.0,0.0,0.0,0.0,0.0,0.0,0.0,0.0,0.0,0.0,0.0,0.0,0.0,0.0,0.0,0.0,0.0,0.0,0.0,0.0,0.0,0.0,0.0,0.0,0.0,0.0,2.8732,2.8336,2.8559,2.8575,2.8701,0.0,0.0,0.0,0.0,0.0,0.0,0.0,0.0,0.0,2.9241,2.919,2.9173,2.9109,2.8818,2.8803,2.9098,2.9143,2.9218,2.9232,2.9958,3.0277,3.0292,3.0669,3.0776,3.0616,2.9829,2.9834,3.049,0.0,0.0,0.0,0.0,3.2199,3.2044,3.1443,3.1243,3.1289,3.1579,0.0,0.0,0.0,0.0,0.0,0.0,0.0,3.3301,3.3038,3.2961,3.2975,3.2761,3.2921,3.3217,3.3587,3.3907,3.4242,3.4935,3.5174,3.5685,3.6901,3.7259,0.0,0.0,0.0,3.7235,3.7235,3.6723,3.6554,3.7087,3.7191,3.7472,3.8197,3.8535,3.8898,3.9272,3.9272,3.9148,3.8772,3.8772,3.8662,0.0,0.0,0.0,0.0,0.0,0.0,0.0,0.0,0.0,0.0,0.0,0.0,0.0,0.0,0.0,0.0,0.0,0.0,0.0,0.0,0.0,0.0,0.0,0.0,0.0,0.0,0.0,0.0,2.811,2.779,2.8221,2.8122,2.8282,0.0,0.0,0.0,0.0,0.0,0.0,2.9434,3.0027,3.0044,2.9396,2.9506,2.9463,2.916,2.9319,2.9493,2.9668,3.0147,3.0364,3.0393,3.1337,3.1772,3.1801,3.2309,3.2237,3.1642,3.0411,2.9982,3.0208,3.1197,3.172,3.1927,3.2284,3.2415,3.2305,3.1622,3.1511,3.1661,3.1661,3.1765,3.2017,3.2716,0.0,0.0,0.0,0.0,3.3633,3.3487,3.3574,3.3647,3.324,3.3324,3.3574,3.4059,3.4227,3.4392,3.4778,3.5154,3.5692,3.6614,3.6951,0.0,3.6995,3.6662,3.6368,3.6368,3.5846,3.5619,3.5973,3.6258,3.6662,3.737,3.7822,3.8351,3.9023,3.9023,3.8898,3.859,3.8407,3.8108,3.7648,0.0,0.0,0.0,0.0,0.0,0.0,0.0,0.0,0.0,0.0,0.0,0.0,0.0,0.0,0.0,0.0,0.0,0.0,0.0,0.0,0.0,0.0,0.0,0.0,0.0,0.0,0.0,0.0,0.0,2.7661,2.8187,0.0,0.0,0.0,0.0,2.978,3.014,2.9924,2.8958,2.9381,2.9381,2.8779,2.9319,2.9856,3.048,3.1076,3.17,3.2324,3.2353,3.2367,3.2382,3.244,3.2469,3.2469,3.2513,3.2498,3.2411,3.1685,3.1426,3.1447,3.1634,3.1987,3.2336,3.1905,3.1694,3.148,3.0866,3.102,3.1529,3.1529,3.1965,3.2587,3.332,3.3548,0.0,0.0,3.3593,3.3426,3.2737,3.3027,3.3543,3.3644,3.4127,3.461,3.4639,3.4758,3.4876,3.4876,3.5088,3.535,3.5849,0.0,3.6196,3.5976,3.6117,3.6196,3.6196,3.5797,3.5973,3.7191,3.6784,3.6662,3.737,3.7429,3.7706,3.8294,3.8351,3.8645,3.9202,3.8645,3.8294,3.8278,3.7706,0.0,0.0,0.0,0.0,0.0,0.0,0.0,0.0,0.0,0.0,0.0,0.0,0.0,0.0,0.0,0.0,0.0,0.0,0.0,0.0,0.0,0.0,0.0,0.0,0.0,0.0,0.0,0.0,2.8605,2.8525,0.0,2.8776,2.9068,2.9193,2.9083,2.9578,2.995,3.0003,3.0499,3.0924,3.1134,3.1366,3.1598,3.183,3.2048,3.228,3.2527,3.2933,3.3122,3.3151,3.3558,3.3732,3.3732,3.3732,3.3499,3.3108,3.2875,3.2523,3.2126,3.2173,3.2296,3.2418,3.2296,3.2173,3.2112,3.1893,3.1975,3.2164,3.2164,3.2324,3.2576,3.2801,3.2912,3.3,3.3412,3.3544,3.3568,3.3696,3.3906,3.4066,3.4132,3.4307,3.4481,3.4481,3.4549,3.4616,3.4616,3.4802,3.5001,3.5118,3.5249,3.5365,3.5234,3.5314,3.5379,3.5379,3.5344,3.5474,3.5943,3.5894,3.6085,3.6723,3.6784,3.7011,3.7706,3.7706,3.7648,3.7429,3.7191,3.689,3.6492,3.6258,3.6211,0.0,0.0,0.0,0.0,0.0,0.0,0.0,0.0,0.0,0.0,0.0,0.0,0.0,0.0,0.0,0.0,0.0,0.0,0.0,0.0,0.0,0.0,0.0,0.0,0.0,2.8653,2.8569,2.9097,2.8842,2.8727,2.8943,2.9289,2.9522,2.9595,3.0115,3.0725,3.1206,3.1627,3.2063,3.2513,3.273,3.2846,3.2846,3.305,3.3151,3.3166,3.3587,3.379,3.3804,3.4225,3.4414,3.4414,3.4414,3.4167,3.379,3.379,3.3463,3.2977,3.2622,3.2513,3.2513,3.2513,3.2513,3.2556,3.2759,3.2846,3.2875,3.3093,3.3151,3.3151,3.3151,3.3151,3.3238,3.3674,3.379,3.3891,3.4312,3.4414,3.4414,3.4414,3.4414,3.4414,3.4414,3.4414,3.4414,3.4414,3.4601,3.475,3.4631,3.475,3.4802,3.4735,3.4802,3.4802,3.4802,3.5016,3.5148,3.5213,3.5294,3.5539,3.5943,3.6243,3.6538,3.6966,3.7251,3.7191,3.6784,3.6538,3.6196,3.5797,3.5619,3.5504,3.5504,0.0,0.0,0.0,0.0,0.0,0.0,0.0,0.0,0.0,0.0,0.0,0.0,0.0,0.0,0.0,0.0,0.0,0.0,0.0,0.0,0.0,0.0,0.0,2.8498,2.8426,2.8613,2.9126,2.9123,2.9394,3.0111,3.0663,3.1082,3.1272,3.1832,3.2256,3.2478,3.2542,3.2556,3.2571,3.318,3.3499,3.3499,3.4109,3.4414,3.4414,3.4414,3.4414,3.4414,3.4414,3.4414,3.4414,3.4414,3.4414,3.4414,3.4414,3.4264,3.4013,3.2985,3.2585,3.2571,3.2585,3.2571,3.2672,3.3282,3.3499,3.3601,3.4211,3.4414,3.4414,3.4414,3.4414,3.4414,3.4414,3.4414,3.4414,3.4414,3.4414,3.4414,3.4414,3.4414,3.4414,3.4414,3.4414,3.4414,3.4414,3.4563,3.4631,3.4414,3.4563,3.4631,3.4414,3.4563,0.0,3.4698,3.4817,3.5001,3.5148,3.5213,3.5213,3.5213,3.5879,3.6305,3.6148,3.689,3.7294,3.7294,3.6723,3.6368,3.6368,3.5797,3.5504,3.5504,0.0,0.0,0.0,0.0,0.0,0.0,0.0,0.0,0.0,0.0,0.0,0.0,0.0,0.0,0.0,0.0,0.0,0.0,0.0,0.0,0.0,2.9892,2.9625,2.8968,2.9209,2.9661,3.0253,3.0324,3.058,3.1204,3.1482,3.1661,3.1725,3.1882,3.2313,3.297,3.2998,3.3281,3.3877,3.4066,3.4153,3.4153,3.4327,3.4414,3.4414,3.4414,3.4414,3.4414,3.4414,3.4346,3.4196,3.4196,3.4142,3.402,3.402,3.402,3.3977,3.3902,3.3825,3.3677,3.3825,3.3891,3.3906,3.4095,3.4153,3.4182,3.4356,3.4414,3.4414,3.4414,3.4414,3.4414,3.4414,3.4414,3.4414,3.4414,3.4414,3.4414,3.4414,3.4414,3.4414,3.4414,3.4414,3.4414,3.4414,3.4414,3.4481,3.4414,3.4481,3.4481,3.4414,3.4481,3.4481,3.4481,3.4616,3.4765,3.4831,3.4935,3.5001,3.5001,3.5184,3.5314,3.5249,3.5479,3.5593,3.5593,3.5429,3.5299,3.5299,3.5133,3.5082,0.0,0.0,0.0,0.0,0.0,0.0,0.0,0.0,0.0,0.0,0.0,0.0,0.0,0.0,0.0,0.0,0.0,0.0,0.0,0.0,0.0,0.0,3.0187,3.012,2.9737,2.9992,3.046,3.1047,3.1053,3.1208,3.1561,3.1895,3.2118,3.225,3.2492,3.2872,3.3446,3.346,3.37,3.421,3.4225,3.4225,3.4225,3.4225,3.4225,3.4225,3.4225,3.4225,3.4225,3.4225,3.4157,3.4005,3.4005,3.3951,3.3896,3.3896,3.3827,3.3813,0.0,0.0,0.0,0.0,3.421,3.4264,3.4264,3.4346,3.4414,3.4414,3.4414,3.4414,3.4414,3.4414,3.4414,3.4414,3.4414,3.4414,3.4414,3.4414,3.4414,3.4414,3.4414,3.4414,3.4414,3.4414,3.4414,3.4414,3.4414,0.0,3.4414,3.4414,3.4414,3.4414,3.4414,3.4414,3.4414,3.4481,3.4631,3.4698,3.475,3.4817,3.4817,3.5118,0.0,0.0,0.0,3.5169,3.492,3.4935,0.0,0.0,0.0,3.4935,3.4935,3.5001,0.0,0.0,3.5439,3.5504,0.0,0.0,0.0,0.0,0.0,0.0,0.0,0.0,0.0,0.0,0.0,0.0,0.0,0.0,0.0,0.0,3.0214,3.0572,3.0712,3.087,3.1146,3.1527,3.1597,3.1626,3.1696,3.2188,3.2579,3.2715,3.3293,3.3675,3.3896,3.3896,0.0,0.0,0.0,3.3896,3.3896,3.3896,3.3896,3.3896,3.3896,3.3896,3.3896,3.3896,3.3896,3.3896,3.3896,3.3827,3.3827,3.3827,3.3744,3.3605,3.3827,3.3896,3.3896,3.3896,3.3951,3.4059,3.4059,0.0,0.0,3.4346,3.4346,3.4346,3.4346,3.4414,3.4414,3.4414,3.4414,3.4414,3.4414,3.4414,3.4414,3.4414,3.4414,3.4414,3.4414,3.4414,3.4414,3.4414,3.4414,3.4414,3.4414,3.4414,3.4414,3.4414,3.4414,3.4414,3.4414,3.4414,3.4481,3.4631,3.4698,0.0,3.4698,3.5299,3.5429,3.4698,3.5365,3.5479,3.4868,3.4868,3.4868,3.4868,3.4868,3.4868,3.4868,3.4868,3.4868,3.4868,3.5294,3.5439,0.0,0.0,0.0,0.0,0.0,0.0,0.0,0.0,0.0,0.0,0.0,0.0,0.0,0.0,0.0,3.0517,3.0573,3.0881,3.1893,3.2047,3.2157,3.2216,3.223,3.2426,3.2918,3.3073,3.3143,3.3213,3.3255,3.3466,3.3675,3.3675,3.3744,3.3896,3.3896,3.3896,3.3896,3.3896,3.3896,3.3896,3.3896,0.0,3.3896,3.3896,3.3827,3.3675,3.3675,3.3536,3.3396,3.3396,3.3396,3.3396,3.3605,3.3744,3.3896,3.3896,3.3896,3.3951,3.3951,3.3951,3.402,3.402,3.4074,3.4128,3.4128,3.4264,0.0,3.4414,3.4414,3.4414,3.4414,3.4414,3.4414,3.4414,3.4414,3.4414,3.4414,3.4414,3.4414,3.4414,3.4414,3.4414,3.4414,3.4414,3.4414,3.4414,3.4414,3.4414,3.4414,3.4414,3.4414,3.4481,3.4481,3.4481,3.4481,3.4601,3.4601,3.4481,3.4601,3.4601,3.4481,3.4481,3.4481,3.4481,3.4481,3.4481,3.4481,3.4683,3.4765,3.4765,3.5096,3.5294,0.0,0.0,0.0,0.0,0.0,0.0,0.0,0.0,0.0,0.0,0.0,3.0384,3.0701,0.0,3.039,3.1039,3.1326,3.1682,3.2314,3.2665,3.2862,3.2862,3.2862,3.2988,3.3297,3.3326,3.3326,3.3326,3.3326,3.3326,3.3466,3.3466,3.3466,3.3605,3.3605,3.3605,3.3605,3.3605,3.3605,3.3605,3.3605,3.3605,3.3605,3.3605,3.3536,3.348,3.379,3.3846,3.3775,3.3775,3.3775,3.3747,3.3522,3.3536,3.3605,3.3605,3.3675,3.3744,3.3744,3.3827,3.3896,3.3896,3.3951,3.4005,3.4059,3.4196,3.4264,3.4264,3.4264,3.4196,3.4157,3.421,3.4264,3.4264,3.4346,3.4414,3.4414,3.4414,3.4414,3.4414,3.4414,3.4414,3.4414,3.4414,3.4414,3.4414,3.4414,3.4414,3.4414,3.4414,3.4414,3.4414,3.4414,3.4414,3.4414,3.4414,3.4414,3.4414,3.4414,3.4414,3.4414,3.4414,3.4414,3.4414,3.4414,3.4414,3.4414,3.4481,3.4563,3.4563,3.4817,3.4964,0.0,0.0,0.0,0.0,0.0,0.0,0.0,3.0144,3.0083,2.9665,2.9701,2.994,3.0431,3.0628,3.0923,3.1569,3.194,3.2221,3.2332,3.2779,3.3086,3.3086,3.3171,3.3326,3.3326,3.3326,3.3326,3.3326,3.3326,3.3326,3.3326,3.3326,3.3326,3.3326,3.3326,3.3326,3.3326,3.3326,3.3326,3.3326,3.3326,3.3326,3.3326,3.3438,3.3494,3.3536,3.4155,3.4421,3.4421,3.4421,3.4421,3.4351,3.3747,3.3494,3.348,3.3368,3.3396,3.3536,3.3536,3.3675,3.3758,3.3758,3.3827,3.3882,3.4005,3.3991,3.4059,3.4059,3.4059,3.4005,3.3965,3.3951,3.4059,3.4059,3.421,3.4278,3.4346,3.4346,3.4346,3.4414,3.4414,3.4414,3.4414,3.4414,3.4414,3.4414,3.4414,3.4414,3.4414,3.4414,3.4414,3.4414,3.4414,3.4414,3.4414,3.4414,3.4414,3.4414,3.4414,3.4414,3.4414,3.4414,3.4414,3.4414,3.4414,3.4414,3.4414,3.4414,3.4414,3.4414,3.4563,3.475,3.2275,3.2003,3.1495,3.0613,3.0372,3.0266,0.0,2.9665,2.9665,2.9602,3.0052,3.0445,3.0516,3.0993,3.1583,3.2202,3.1764,3.1537,3.2055,3.2191,3.2232,3.2232,3.286,3.3326,3.3326,3.3326,3.3326,3.3326,3.3326,3.3326,3.3326,3.3326,3.3326,3.3326,3.3326,3.3326,3.3326,3.3326,3.3326,3.3326,3.3326,3.3326,3.334,3.3888,3.414,3.4169,3.4787,3.5127,3.5127,3.5127,3.5127,3.4997,3.4379,3.414,3.407,3.3522,3.3326,3.3326,3.3326,3.3326,3.3396,3.3396,3.3466,3.3605,3.3675,3.3744,3.3896,3.3896,3.3896,3.3896,3.3882,3.3882,3.3896,3.3896,3.3965,3.402,3.4142,3.4128,3.4196,3.4346,3.4414,3.4414,3.4414,3.4414,3.4414,3.4414,3.4414,3.4414,3.4414,3.4414,3.4414,3.4414,3.4414,3.4414,3.4414,3.4414,3.4414,3.4414,3.4414,3.4414,3.4414,3.4414,3.4414,3.4414,3.4414,3.4414,3.4414,3.4414,3.4414,3.4414,3.4414,3.4549,3.1522,3.094,3.0418,2.9512,2.9463,2.9624,2.9798,3.0009,3.0249,3.0628,3.0909,3.119,3.1555,3.1836,3.2216,3.2848,3.2246,3.1789,3.2046,3.2074,3.1928,3.1489,3.2087,3.2775,3.3241,3.3326,3.3326,3.3326,3.3326,3.3326,3.3326,3.3326,3.3326,3.3326,3.3326,3.3326,3.3326,3.286,3.286,3.3312,3.286,3.304,3.3859,3.4112,3.4618,3.5321,3.5574,3.5883,3.6192,3.584,3.5686,3.563,3.5012,3.4548,3.4169,3.355,3.3326,3.3326,3.3326,3.3326,3.3326,3.3326,3.3396,3.3466,3.3536,3.3675,3.3744,3.3744,3.3744,3.3675,3.3605,3.3605,3.3744,3.3744,3.3827,3.3896,3.3951,3.4005,3.4005,3.4196,3.4196,3.4264,3.4414,3.4414,3.4545,3.4907,3.4646,3.4414,3.4414,3.4414,3.4414,3.4414,3.4414,3.4414,3.4414,3.4414,3.4414,3.4414,3.4414,3.4414,3.4414,3.4414,3.4414,3.4414,3.4414,3.4414,3.4414,3.4414,3.4414,3.4414,3.4414,3.4481,3.0807,3.0162,2.9637,2.8908,2.9031,2.9458,3.003,3.0462,3.0923,3.1387,3.1626,3.1878,3.2328,3.2553,3.2723,3.2932,3.2318,3.1709,3.1489,3.1415,3.118,3.067,3.1267,3.2015,3.2561,3.286,3.3086,3.3241,3.3326,3.3326,3.3326,3.3326,3.3326,3.3326,3.3086,3.2945,3.2945,3.216,3.216,3.2931,3.2554,3.3014,3.4181,3.459,3.5321,3.6318,3.6318,3.6571,3.695,3.6501,3.6318,3.6262,3.5719,3.504,3.4436,3.3803,3.3466,3.3326,3.3326,3.3326,3.3326,3.3326,3.3326,3.3326,3.3466,3.3536,3.3536,3.3536,3.3536,3.3466,3.3326,3.3396,3.3536,3.3536,3.3605,3.3744,3.3827,3.3827,3.3882,3.4005,3.4059,3.4131,3.4441,3.4539,3.481,3.5462,3.5227,3.4936,3.4936,3.4936,3.4936,3.4936,3.4936,3.4936,3.4936,3.4777,3.4675,3.4675,3.4501,3.4414,3.4414,3.4414,3.4414,3.4414,3.4414,3.4414,3.4414,3.4414,3.4414,3.4414,3.4414,3.4414,3.0703,3.0162,2.9685,2.9212,2.9541,3.0034,3.0387,3.1007,3.1471,3.1485,3.1963,3.2384,3.2412,3.289,3.2988,3.2232,3.1489,3.067,2.9845,2.9768,2.9781,2.9781,3.0443,3.097,3.097,3.1709,3.2461,3.3241,3.3326,3.3326,3.3326,3.3326,3.3326,3.3326,3.2547,3.216,3.216,3.1341,3.1341,3.216,3.2731,3.3413,3.4209,3.5475,3.636,3.695,3.695,3.6964,3.6978,3.6964,3.695,3.6894,3.6276,3.5686,3.5096,3.445,3.3831,3.3326,3.3326,3.3326,3.3326,3.3326,3.3326,3.3326,3.3326,3.3326,3.3326,3.3326,3.3326,3.3326,3.3326,3.3326,3.3326,3.3326,3.3326,3.3396,3.3536,3.3605,3.3675,3.3896,3.3896,3.4082,3.4696,3.4923,3.5251,3.5885,3.6114,3.6243,3.6243,3.6243,3.6243,3.6243,3.6243,3.6243,3.6243,3.5691,3.5343,3.5343,3.4762,3.4414,3.4414,3.4414,3.4414,3.4414,3.4414,3.4414,3.4414,3.4414,3.4414,3.4414,3.4414,3.4414,2.9656,2.9475,2.9484,2.9118,2.9818,3.0768,3.1332,3.18,3.2216,3.2623,3.2876,3.3016,3.3016,3.2721,3.239,3.2146,3.097,2.9999,2.9704,2.9704,2.9471,2.8961,2.9626,3.0075,3.0075,3.082,3.1415,3.1723,3.2173,3.2461,3.2461,3.2461,3.2461,3.2461,3.1709,3.1328,3.1328,3.0893,3.1304,3.2684,3.3661,3.3981,3.371,3.5162,3.5971,3.6163,3.673,3.6978,3.6978,3.6978,3.6652,3.6136,3.5929,3.4838,3.3467,3.3252,3.2554,3.1882,3.2945,3.2632,3.1882,3.2945,3.2931,3.2618,3.3157,3.3326,3.3326,3.3326,3.3326,3.3326,3.3326,3.3326,3.3326,3.3326,3.3326,3.3326,3.3396,3.372,3.4072,3.4299,3.4626,3.4981,3.5338,3.5425,3.5712,3.6341,3.636,3.6301,3.6301,3.6301,3.6301,3.6301,3.6301,3.6301,3.6301,3.6112,3.5996,3.5996,3.5793,3.5488,3.5067,3.5038,3.4835,3.4428,3.4414,3.4414,3.4414,3.4414,3.4414,3.4414,3.4414,3.4414,2.9356,2.9209,2.9309,2.947,3.0174,3.1062,3.1889,3.2291,3.2695,3.3171,3.3326,3.3326,3.3326,3.2618,3.2074,3.2074,3.0745,2.9704,2.9704,2.9484,2.9106,2.8578,2.8961,2.925,2.925,2.9781,3.0304,3.0895,3.1415,3.1709,3.1709,3.1709,3.1709,3.1709,3.0895,3.0546,3.0752,3.0265,3.0947,3.2749,3.374,3.4046,3.377,3.5076,3.5669,3.5749,3.6322,3.6573,3.6494,3.6149,3.5736,3.5237,3.5237,3.4099,3.2594,3.2594,3.172,3.067,3.1955,3.1796,3.1044,3.2101,3.2101,3.1783,3.2632,3.286,3.2931,3.3241,3.3326,3.3326,3.3326,3.348,3.3564,3.3193,3.3589,3.39,3.3526,3.4064,3.4562,3.4721,3.5032,3.5444,3.5744,3.6046,3.6404,3.6968,3.6891,3.6779,3.6852,3.691,3.6983,3.6983,3.6983,3.6983,3.6983,3.678,3.6664,3.6664,3.6446,3.6127,3.572,3.5706,3.5401,3.4762,3.4762,3.4646,3.4414,3.4414,3.4414,3.4414,3.4414,3.4414,2.9683,2.9255,2.9199,3.0187,3.0573,3.1016,3.2166,3.2528,3.2775,3.3171,3.3255,3.3255,3.3326,3.2618,3.2015,3.2015,3.067,2.9626,2.9626,2.8961,2.851,2.851,2.851,2.851,2.851,2.851,2.9106,3.067,3.082,3.082,3.082,3.082,3.0833,3.0859,3.0114,2.9939,3.0478,2.9829,3.0367,3.2202,3.3006,3.3701,3.4223,3.5156,3.5575,3.5588,3.5669,3.5655,3.5575,3.465,3.4306,3.4223,3.4223,3.3545,3.2475,3.2449,3.1278,2.9819,3.0532,3.082,3.082,3.0882,3.0895,3.097,3.1856,3.2074,3.2232,3.3016,3.3269,3.3213,3.3213,3.3675,3.3904,3.3064,3.4024,3.4841,3.3905,3.4465,3.5194,3.5194,3.5222,3.5508,3.6023,3.6753,3.738,3.7534,3.7625,3.7701,3.7853,3.8066,3.8202,3.8202,3.8202,3.8202,3.8202,3.768,3.736,3.736,3.6751,3.6388,3.6359,3.6359,3.6054,3.543,3.5415,3.5111,3.4516,3.4404,3.439,3.439,3.4293,3.4264,2.8906,2.9488,3.0264,3.0566,3.1191,3.1839,3.2126,3.2249,3.2345,3.2775,3.2846,3.2931,3.3241,3.2173,3.1193,3.1193,2.9858,2.8816,2.8816,2.8657,2.851,2.851,2.851,2.851,2.851,2.851,2.8657,2.9106,2.9704,2.9999,2.9999,2.9999,3.0189,3.0608,2.9776,2.9667,3.0202,3.1067,3.161,3.1882,3.2694,3.2855,3.2413,3.3985,3.4319,3.3733,3.5074,3.5318,3.4637,3.4389,3.3888,3.331,3.331,3.2481,3.1269,3.0864,3.0135,2.9338,2.9175,2.9106,2.9328,3.0519,3.0519,3.0304,3.1709,3.1709,3.1341,3.216,3.2266,3.2066,3.2066,3.2518,3.2906,3.2672,3.2934,3.3105,3.2856,3.3893,3.484,3.484,3.5781,3.6571,3.6726,3.6958,3.707,3.7148,3.7303,3.7457,3.7625,3.7853,3.8005,3.8005,3.8142,3.8202,3.8202,3.8057,3.797,3.797,3.781,3.752,3.707,3.7056,3.6751,3.6083,3.6069,3.5981,3.5822,3.4768,3.4243,3.4229,3.3169,3.2662,2.8894,2.9574,3.054,3.101,3.1389,3.1776,3.2273,3.22,3.2273,3.286,3.2931,3.3016,3.3241,3.1882,3.0895,3.1267,2.9549,2.8431,2.887,2.8566,2.8431,2.851,2.851,2.851,2.851,2.851,2.851,2.851,2.8882,2.9184,2.9184,2.9406,2.9677,2.9973,2.9755,2.9893,3.0434,3.1443,3.1858,3.1749,3.2164,3.2164,3.1749,3.3066,3.3479,3.3066,3.4069,3.4236,3.372,3.3322,3.2907,3.2413,3.2413,3.1834,3.0831,3.0543,2.9953,2.9256,2.8967,2.8703,2.8657,2.9549,2.9561,2.9406,3.067,3.0914,3.0893,3.1713,3.1998,3.2059,3.2059,3.2489,3.2758,3.2448,3.2791,3.3216,3.2795,3.3682,3.4647,3.506,3.5837,3.6573,3.69,3.6978,3.6978,3.6978,3.707,3.7226,3.7303,3.7625,3.7777,3.7777,3.7839,3.7915,3.7915,3.7991,3.8066,3.8066,3.8127,3.8057,3.7709,3.7307,3.6842,3.6198,3.5801,3.5437,3.5156,3.4363,3.3974,3.396,3.3159,3.2786,2.9434,2.981,3.0433,3.1288,3.1272,3.1272,3.2345,3.2273,3.2286,3.303,3.3241,3.3241,3.3326,3.1955,3.0983,3.1576,2.9614,2.8327,2.9069,2.8633,2.8179,2.8431,2.8431,2.8431,2.8431,2.8431,2.8431,2.8431,2.8431,2.8534,2.8607,2.9051,2.9364,2.9508,3.0025,3.0518,3.0975,3.1432,3.1661,3.1661,3.1661,3.1661,3.1749,3.2575,3.2907,3.2821,3.2993,3.2907,3.2735,3.1989,3.1661,3.1661,3.1661,3.1384,3.0963,3.0819,3.0194,2.94,2.9316,2.9003,2.8607,2.8534,2.8558,2.8766,2.9584,3.0127,3.0633,3.1396,3.1979,3.2285,3.2285,3.2765,3.3001,3.2193,3.3051,3.3733,3.2993,3.3479,3.4389,3.5318,3.5575,3.591,3.673,3.69,3.6978,3.6978,3.6978,3.6978,3.6978,3.7303,3.7534,3.7534,3.7625,3.7625,3.7625,3.761,3.7687,3.7687,3.7825,3.7886,3.7796,3.7169,3.6529,3.5906,3.5196,3.4546,3.3927,3.3769,3.3665,3.3665,3.3507,3.3389,2.9823,3.0398,3.0856,3.1035,3.1061,3.1123,3.1703,3.1776,0.0,3.2632,3.2775,3.2931,3.3241,3.2475,3.1636,3.0895,2.9833,2.8924,2.8259,2.8042,2.7962,2.7962,2.7962,2.7962,2.7962,2.7962,2.803,2.8259,2.8259,2.853,2.9136,2.9256,2.9701,3.0579,3.1108,3.1432,3.1529,3.1613,3.1661,3.1661,3.1661,3.1661,3.1749,3.2575,3.2575,3.2001,3.2661,3.2575,3.1913,3.1749,3.1661,3.1661,3.1661,3.1613,3.142,3.0543,3.011,2.9893,2.9448,2.9232,2.9088,2.8655,2.8799,2.931,3.0157,3.0301,3.0345,3.1117,3.1294,3.115,3.115,3.154,3.1942,3.178,3.1928,3.2077,3.2001,3.2575,3.3479,3.4389,3.5156,3.5749,3.591,3.6494,3.6978,3.6978,3.6978,3.6978,3.6978,3.7226,3.738,3.738,3.7457,3.7625,3.7625,3.6964,3.6545,3.6545,3.6624,3.6294,3.5548,3.6281,3.6239,3.5479,3.5479,3.5425,3.5236,3.4126,3.35,3.35,3.2307,3.1779,2.998,3.0555,3.0986,3.0986,3.0986,3.1123,3.1703,0.0,0.0,3.286,3.3016,3.3086,3.3241,3.2547,3.1636,3.0758,2.9743,2.8755,2.8042,2.7788,2.7708,2.7881,2.7962,2.803,2.803,2.8111,2.8271,2.8339,2.859,2.8946,2.9292,2.9821,3.0482,3.1264,3.1529,3.1661,3.1661,3.1661,3.1661,3.1661,3.1661,3.1661,3.1749,3.2164,3.2089,3.1749,3.2164,3.2077,3.1661,3.1661,3.1661,3.1661,3.1661,3.1661,3.1601,3.1096,3.0735,3.0458,3.0206,2.9941,2.9665,2.9412,2.9508,2.9784,3.0171,3.0396,3.0579,3.0978,3.1199,3.1288,3.1288,3.148,3.1661,3.1661,3.1661,3.1661,3.1661,3.2001,3.2575,3.3479,3.3985,3.4415,3.4897,3.5305,3.5561,3.5561,3.5561,3.5561,3.5561,3.5722,3.6136,3.7056,3.6808,3.6638,3.6638,3.5883,3.5453,3.5453,3.5548,3.548,3.4979,3.5061,3.4897,3.4485,3.4082,3.4011,3.4095,3.3418,3.3148,3.3315,3.263,3.2265,3.0124,3.0647,3.0986,3.0986,3.0986,3.1198,3.185,3.2055,3.2273,3.3016,3.3241,3.3326,3.3326,3.2632,3.1869,3.0983,2.9807,2.8809,2.8167,2.7684,2.7534,2.7719,2.795,2.8018,2.8018,2.8179,2.8351,2.8431,2.9018,2.9438,2.9629,3.053,3.124,3.1649,3.1661,3.1661,3.1661,3.1661,3.1661,3.1661,3.1661,3.1661,3.1661,3.1661,3.1661,3.1661,3.1661,3.1661,3.1661,3.1661,3.1661,3.1661,3.1661,3.1661,3.1649,3.1541,3.1228,3.0879,3.0879,3.0603,3.0278,3.0386,3.035,3.0254,3.0254,3.0627,3.1048,3.1048,3.1336,3.1661,3.1661,3.1661,3.1661,3.1661,3.1661,3.1661,3.1661,3.1661,3.1913,3.2575,3.2907,3.3237,3.3888,3.4223,3.4306,3.4306,3.4306,3.4306,3.4306,3.4306,3.4802,3.6229,3.5816,3.5413,3.5413,3.4719,3.4293,3.4293,3.4472,3.4485,3.4319,3.3843,3.3518,3.3348,3.2711,3.2475,3.2636,3.2636,3.2723,3.2995,3.2982,3.2982,3.0607,3.0947,3.0986,3.0986,3.0986,3.1136,3.1556,0.0,3.22,3.2632,3.3016,3.3326,3.3326,3.3241,3.286,3.1869,3.0807,2.9807,2.8797,2.7822,2.7231,2.7231,2.7452,2.7592,2.7592,2.7603,2.7765,2.8179,2.9106,2.9964,3.0699,3.1276,3.1613,3.1661,3.1661,3.1661,3.1661,3.1661,3.1661,3.1661,3.1661,3.1661,3.1661,3.1661,3.1661,3.1661,3.1661,3.1661,3.1661,3.1661,3.1661,3.1661,3.1661,3.1661,3.1613,3.112,3.0915,3.0879,3.0879,3.0843,3.0879,3.136,3.1192,3.0807,3.0807,3.1168,3.1589,3.1589,3.1625,3.1661,3.1661,3.1661,3.1661,3.1661,3.1661,3.1661,3.1661,3.1661,3.1749,3.1825,3.25,3.2993,3.3066,3.3804,3.4306,3.4306,3.4306,3.4306,3.4306,3.4306,3.4389,3.4555,3.4472,3.4389,3.4389,3.3649,3.3152,3.3152,3.3152,3.2821,3.2001,3.2957,3.3056,3.2201,3.23,3.2388,3.2388,3.2388,3.2475,3.2475,3.2636,3.2723,3.0764,3.0986,3.0986,3.0986,3.0986,3.1136,3.1482,0.0,3.22,3.2632,3.2846,3.3016,3.3255,3.3086,3.2704,3.2087,3.1031,0.0,2.9057,2.7914,2.7231,2.7231,2.7371,2.7522,2.7522,2.7615,2.8046,2.8893,2.9331,2.9934,3.0885,3.1122,3.1241,3.1241,3.1241,3.1241,3.1241,3.1241,3.1241,3.1241,3.1241,3.1241,3.1241,3.1241,3.1318,3.1484,3.1484,3.1572,3.1661,3.1661,3.1661,3.1661,3.1661,3.1661,3.1637,3.1432,3.1348,3.1348,3.1348,3.1348,3.1384,3.1589,3.1529,3.1348,3.1348,3.1492,3.1661,3.1661,3.1661,3.1661,3.1661,3.1661,3.1661,3.1661,3.1661,3.1661,3.1661,3.1661,3.1661,3.1661,3.2001,3.2251,3.2251,3.25,3.2735,3.2735,3.2735,3.2735,3.2735,3.2735,3.2735,3.2735,3.3237,3.3479,3.3479,3.2747,3.2251,3.2251,3.2251,3.2077,3.1749,3.2101,3.2189,3.1849,3.1937,3.2025,3.2125,3.2125,3.2213,3.24,3.2475,3.2562,3.083,3.0986,3.0986,3.0986,3.0986,3.1061,0.0,0.0,3.2055,3.2345,3.2417,3.2632,3.2874,3.2717,3.2403,0.0,0.0,2.9909,2.9394,2.8075,2.7231,2.7231,2.7371,2.7522,2.7522,2.7836,2.8374,2.9157,2.9355,2.9834,3.0734,3.0793,3.0883,3.0972,3.0984,3.0984,3.0984,3.0984,3.0984,3.0984,3.0984,3.0984,3.0984,3.0984,3.1062,3.1229,3.1229,3.1318,3.1496,3.1496,3.1496,3.1572,3.1572,3.1488,3.1368,3.1613,3.1565,3.1368,3.1613,3.1661,3.1661,3.1661,3.1661,3.1661,3.1661,3.1661,3.1661,3.1661,3.1661,3.1661,3.1661,3.1661,3.1661,3.1661,3.1661,3.1661,3.1661,3.1661,3.1661,3.1661,3.1661,3.1661,3.1661,3.1661,3.1661,3.1661,3.1661,3.1661,3.1661,3.1661,3.1661,3.1661,3.2239,3.2661,3.2661,3.2077,3.1661,3.1661,3.1661,3.1661,3.1661,3.1661,3.1661,3.1661,3.1661,3.1749,3.1937,3.1937,3.2038,3.2213,3.2213,3.23,3.083,3.0986,3.0986,3.0986,3.0986,3.0986,3.0986,3.1347,3.1629,3.1629,3.1909,3.2128,3.2128,3.2128,3.2128,3.2128,3.0758,0.0,2.9704,2.8235,2.7231,2.7231,2.7371,2.7522,2.7522,2.814,2.8654,2.8666,2.9346,2.9943,3.0193,3.0216,3.0408,3.0984,3.0984,3.0984,3.0984,3.0984,3.0984,3.0984,3.0984,3.0984,3.0984,3.0984,3.0984,3.0984,3.0984,3.0984,3.0984,3.0984,3.1151,3.1306,3.1306,3.0997,3.0715,3.1392,3.1261,3.0727,3.1492,3.1661,3.1661,3.1661,3.1661,3.1661,3.1661,3.1661,3.1661,3.1661,3.1661,3.1661,3.1661,3.1661,3.1661,3.1661,3.1661,3.1661,3.1661,3.1661,3.1661,3.1661,3.1661,3.1661,3.1661,3.1661,3.1661,3.1661,3.1661,3.1661,3.1661,3.1661,3.1661,3.1661,3.1749,3.1749,3.1749,3.1673,3.1661,3.1661,3.1661,3.1661,3.1661,3.1661,3.1661,3.1661,3.1661,3.1661,3.1661,3.1661,3.1661,3.1749,3.1937,3.2125,3.083,3.0986,3.0986,3.0986,3.0986,3.0986,3.0986,3.1347,3.1629,3.1629,3.1703,3.185,3.2055,3.1529,3.1294,3.1982,3.0355,2.9213,2.9626,2.8235,2.7231,2.7231,2.7219,2.7301,2.7301,2.7845,2.8341,2.8654,2.927,2.9788,3.0193,3.0216,3.0306,3.0408,3.0408,3.0408,3.0408,3.0408,3.0408,3.0408,3.0408,3.0408,3.0408,3.0408,3.0589,3.0769,3.0769,3.0871,3.0984,3.0984,3.1062,3.1026,3.0738,3.0489,3.0336,3.0417,3.0477,3.0668,3.0985,3.136,3.1661,3.1661,3.1661,3.1661,3.1661,3.1661,3.1661,3.1661,3.1661,3.1661,3.1661,3.1661,3.1661,3.1661,3.1661,3.1661,3.1661,3.1661,3.1661,3.1661,3.1661,3.1661,3.1661,3.1661,3.1661,3.1661,3.1661,3.1661,3.1661,3.1661,3.1661,3.1661,3.1661,3.1661,3.1661,3.1661,3.1661,3.1661,3.1661,3.1661,3.1661,3.1661,3.1661,3.1661,3.1661,3.1661,3.1661,3.1661,3.1661,3.1661,3.1761,3.1849,0.0,3.0986,3.0986,3.0986,3.0986,0.0,3.0986,3.1198,3.1347,3.1347,3.1185,3.1172,3.1629,3.0771,3.0304,3.1158,2.9756,2.8676,2.9094,2.8007,2.7231,2.7231,2.7231,2.7231,2.7231,2.7851,2.8379,2.8677,2.9366,2.9894,3.0204,3.0216,3.0216,3.0216,3.0216,3.0216,3.0216,3.0216,3.0216,3.0216,3.0216,3.0216,3.0216,3.0216,3.0306,3.0487,3.0487,3.0499,0.0,3.0691,3.0664,3.0543,3.0203,2.9839,2.9476,2.9638,2.9804,3.0111,3.0462,3.1041,3.1572,3.1572,3.1661,3.1661,3.1661,3.1661,3.1661,3.1661,3.1661,3.1661,3.1661,3.1661,3.1661,3.1661,3.1661,3.1661,3.1661,3.1661,3.1661,3.1661,3.1661,3.1661,3.1661,3.1661,3.1661,3.1661,3.1661,3.1661,3.1661,3.1661,3.1661,3.1661,3.1661,3.1661,3.1661,3.1661,3.1661,3.1661,3.1661,3.1661,3.1661,3.1661,3.1661,3.1661,3.1661,3.1661,3.1661,3.1661,3.1661,3.1661,3.1661,3.1661,0.0,3.096,3.0986,3.0986,3.0986,3.0986,0.0,0.0,0.0,0.0,3.0508,3.0279,3.0911,2.9947,2.9328,2.9883,2.8949,2.8179,2.8179,2.7626,2.7231,2.7231,2.7231,2.7231,2.7231,2.8115,2.87,2.87,2.9642,3.0216,3.0216,3.0216,3.0216,3.0216,3.0216,3.0216,3.0216,3.0216,3.0216,3.0216,3.0216,3.0216,3.0216,3.0216,3.0216,3.0216,3.0216,3.0193,3.017,3.017,2.9949,2.9753,2.9718,2.9125,2.8335,2.9031,2.9168,2.9234,2.9863,3.0655,3.1306,3.1306,3.1484,3.1661,3.1673,3.1661,3.1661,3.1661,3.1661,3.1661,3.1661,3.1661,3.1661,3.1661,3.1661,3.1661,3.1661,3.1661,3.1661,3.1661,3.1661,3.1661,3.1661,3.1661,3.1661,3.1661,3.1661,3.1661,3.1661,3.1661,3.1661,3.1661,3.1661,3.1661,3.1661,3.1661,3.1661,3.1661,3.1661,3.1661,3.1661,3.1661,3.1661,3.1661,3.1661,3.1661,3.1661,3.1661,3.1661,3.1661,3.1661,3.1661,3.015,0.0,3.0986,3.0986,3.0986,3.0986,0.0,0.0,0.0,0.0,0.0,0.0,0.0,0.0,2.9328,2.9883,2.8554,2.7626,2.8099,2.7626,2.7231,2.7231,2.7231,2.7231,2.7231,2.8115,2.87,2.87,2.9642,3.0216,3.0216,3.0216,3.0216,3.0216,3.0216,3.0216,3.0216,3.0216,3.0216,3.0216,3.0216,3.0216,3.0216,3.0216,3.0216,3.0216,3.0216,3.0009,2.9665,2.9665,2.9355,2.8925,2.8556,2.8268,2.8015,2.7987,2.8477,2.9188,2.9453,3.0272,3.1062,3.1062,3.1151,3.1151,3.1318,3.1572,3.1661,3.1661,3.1661,3.1661,3.1661,3.1661,3.1661,3.1661,3.1661,3.1661,3.1661,3.1661,3.1661,3.1661,3.1661,3.1661,3.1661,3.1661,3.1661,3.1661,3.1661,3.1661,3.1661,3.1661,3.1661,3.1661,3.1661,3.1661,3.1661,3.1661,3.1661,3.1661,3.1661,3.1661,3.1661,3.1661,3.1661,3.1661,3.1661,3.1661,3.1661,3.1661,3.1661,3.1661,3.1661,3.1661,2.998,3.0555,3.0986,3.0986,3.0986,3.0986,0.0,0.0,0.0,0.0,0.0,0.0,0.0,0.0,2.8474,2.9106,2.8087,2.7313,2.7708,2.7464,2.7231,2.7231,2.7231,2.7231,2.7231,2.8115,2.87,2.87,2.9642,3.0124,2.9894,2.9883,2.978,2.9527,2.9515,2.9745,3.0216,3.0216,3.0216,3.0216,3.0216,3.0216,3.0216,3.0216,3.0089,2.9883,2.9883,2.9596,2.9137,2.9137,2.8838,2.8344,2.808,2.7839,2.7598,2.7393,2.7879,2.868,2.8974,2.9817,3.0871,3.0972,3.0984,3.0984,3.1139,3.1229,3.1407,3.1661,3.1661,3.1661,3.1661,3.1661,3.1661,3.1661,3.1661,3.1661,3.1661,3.1661,3.1661,3.1661,3.1661,3.1661,3.1661,3.1661,3.1661,3.1661,3.1661,3.1661,3.1661,3.1661,3.1661,3.1661,3.1661,3.1661,3.1661,3.1661,3.1661,3.1661,3.1661,3.1661,3.1661,3.1661,3.1661,3.1661,3.1661,3.1661,3.1661,3.1661,3.1661,3.1661,3.1661,3.1661,2.9862,3.049,3.0986,3.0986,3.0986,3.0986,0.0,0.0,0.0,0.0,0.0,0.0,0.0,2.8554,2.7545,2.8099,2.7626,2.7231,2.7231,2.7231,2.7231,2.7231,2.7231,2.7231,2.7231,2.8057,2.8586,2.8586,2.9458,2.9802,2.9401,2.9378,2.9171,2.8712,2.87,2.9114,2.9975,3.0067,3.0147,3.0216,3.0147,3.0101,3.0101,3.0021,2.9757,2.9378,2.9378,2.9079,2.8586,2.8586,2.8299,2.7874,2.7874,2.761,2.7231,2.7231,2.7552,2.8057,2.8632,2.9612,3.0578,3.0781,3.0883,3.0883,3.0883,3.0972,3.1062,3.1496,3.1661,3.1661,3.1661,3.1661,3.1661,3.1661,3.1661,3.1661,3.1661,3.1661,3.1661,3.1661,3.1661,3.1661,3.1661,3.1661,3.1661,3.1661,3.1661,3.1661,3.1661,3.1661,3.1661,3.1661,3.1661,3.1661,3.1661,3.1661,3.1661,3.1661,3.1661,3.1661,3.1661,3.1661,3.1661,3.1661,3.1661,3.1661,3.1661,3.1661,3.1661,3.1661,3.1661,3.1661,2.9392,3.0176,3.0986,3.0986,3.0986,3.0986,0.0,0.0,0.0,0.0,0.0,0.0,0.0,2.8949,2.8099,2.8167,2.7626,2.7231,2.7231,2.7231,2.7231,2.7231,2.7231,2.7231,2.7231,2.7748,2.8092,2.8092,2.8609,2.8896,2.8827,2.8827,2.8792,2.87,2.87,2.8769,2.893,2.9378,2.9814,3.0216,2.9802,2.9607,2.9596,2.9137,2.8896,2.8827,2.8827,2.854,2.8092,2.8092,2.7793,2.7346,2.7346,2.73,2.7231,2.7231,2.7552,2.8115,2.9056,2.9745,3.0306,3.0306,3.0306,3.0408,3.0578,3.0668,3.0769,3.1217,3.1395,3.1395,3.1661,3.1661,3.1661,3.1661,3.1661,3.1661,3.1661,3.1661,3.1661,3.1661,3.1661,3.1661,3.1661,3.1661,3.1661,3.1661,3.1661,3.1661,3.1661,3.1661,3.1661,3.1661,3.1661,3.1661,3.1661,3.1661,3.1661,3.1661,3.1661,3.1661,3.1661,3.1661,3.1661,3.1661,3.1661,3.1661,3.1661,3.1661,3.1661,3.1661,3.1661,3.1661,2.9196,2.9889,3.0594,3.0908,3.0986,3.0986,0.0,0.0,0.0,0.0,0.0,0.0,0.0,2.8247,2.7626,2.7626,2.7383,2.7231,2.7231,2.7231,2.7231,2.7231,2.6787,2.6622,2.7149,2.725,2.7278,2.7278,2.8168,2.8402,2.7615,2.8043,2.8184,2.7908,2.7908,2.8035,2.831,2.8563,2.8919,2.9389,2.9171,2.9068,2.9056,2.8804,2.8551,2.831,2.831,2.8035,2.7575,2.7575,2.7438,2.7231,2.7231,2.7231,2.7231,2.7231,2.7713,2.8436,2.8907,2.9573,3.0216,3.0216,3.0216,3.0216,3.0306,3.0397,3.0487,3.0847,3.1116,3.1395,3.1661,3.1661,3.1661,3.1661,3.1661,3.1661,3.1661,3.1661,3.1661,3.1661,3.1661,3.1661,3.1661,3.1661,3.1661,3.1661,3.1661,3.1661,3.1661,3.1661,3.1661,3.1661,3.1661,3.1661,3.1661,3.1661,3.1661,3.1661,3.1661,3.1661,3.1661,3.1661,3.1661,3.1661,3.1661,3.1661,3.1661,3.1661,3.1661,3.1661,3.1661,3.1661,2.9188,2.9693,3.0268,3.0843,0.0,0.0,0.0,0.0,0.0,0.0,0.0,0.0,0.0,2.7626,2.7231,2.7231,2.7231,2.7231,2.7231,2.7231,2.7231,2.7231,2.6351,2.6091,2.6798,2.6623,2.6409,2.6409,2.7435,2.7662,2.6783,2.7195,2.736,2.7242,2.6974,2.7144,2.7805,2.7626,2.7923,2.87,2.8586,2.854,2.8528,2.8413,2.8149,2.7805,2.7805,2.7587,2.7231,2.7231,2.7231,2.7231,2.7231,2.7231,2.7231,2.7231,2.7851,2.87,2.87,2.9366,3.0216,3.0216,3.0216,3.0216,3.0216,3.0216,3.0306,3.0589,3.0949,3.1306,3.1572,3.1661,3.1661,3.1661,3.1661,3.1661,3.1661,3.1661,3.1661,3.1661,3.1661,3.1661,3.1661,3.1661,3.1661,3.1661,3.1661,3.1661,3.1661,3.1661,3.1661,3.1661,3.1661,3.1661,3.1661,3.1661,3.1661,3.1661,3.1661,3.1661,3.1661,3.1661,3.1661,3.1661,3.1661,3.1661,3.1661,3.1661,3.1661,3.1661,3.1661,3.1661,2.9315,2.9693,3.0268,3.0843,3.0986,0.0,3.0986,3.0986,0.0,3.0114,0.0,0.0,2.8327,2.7626,2.7231,2.7231,2.7231,2.7231,2.7231,2.7231,2.7231,2.7231,2.6351,2.5819,2.5913,2.5863,2.5874,2.5874,2.599,2.6346,2.7113,2.6407,2.6302,2.7149,2.6351,2.6373,2.7288,2.6407,2.6863,2.8689,2.8253,2.8035,2.8012,2.7552,2.7323,2.7288,2.7288,2.7265,2.7231,2.7231,2.7231,2.7231,2.7231,2.7231,2.7231,2.7231,2.7851,2.87,2.87,2.9366,3.0216,3.0216,3.0216,3.0216,3.0216,3.0216,3.0306,3.0793,3.0984,3.1062,3.1306,3.1484,3.1661,3.1661,3.1661,3.1661,3.1661,3.1661,3.1661,3.1661,3.1661,3.1661,3.1661,3.1661,3.1661,3.1661,3.1661,3.1661,3.1661,3.1661,3.1661,3.1661,3.1661,3.1661,3.1661,3.1661,3.1661,3.1661,3.1661,3.1661,3.1661,3.1661,3.1661,3.1661,3.1661,3.1661,3.1661,3.1661,3.1661,3.1661,3.1661,3.1661,2.9223,2.9444,2.9823,3.0764,0.0,0.0,0.0,3.0355,3.0114,2.9106,2.8712,0.0,2.7708,2.7383,2.7231,2.7231,2.7231,2.7231,2.7231,2.7231,2.7231,2.7231,2.5852,2.5242,2.5746,2.5326,2.4734,2.4114,2.5136,2.5746,2.5516,2.5663,2.5997,2.6351,2.5997,2.5997,2.6351,2.5997,2.6446,2.7782,2.7598,2.7518,2.7506,2.7323,2.7231,2.7231,2.7231,2.7231,2.7231,2.7231,2.7231,2.7231,2.7231,2.7231,2.7231,2.7231,2.7656,2.8299,2.8597,2.9171,2.9814,3.0112,3.0216,3.0216,3.0216,3.0306,3.0487,3.0679,3.0949,3.1229,3.1496,3.1661,3.1661,3.1661,3.1661,3.1661,3.1661,3.1661,3.1661,3.1661,3.1661,3.1661,3.1661,3.1661,3.1661,3.1661,3.1661,3.1661,3.1661,3.1661,3.1661,3.1661,3.1661,3.1661,3.1661,3.1661,3.1661,3.1661,3.1661,3.1661,3.1661,3.1661,3.1661,3.1661,3.1661,3.1661,3.1661,3.1661,3.1661,3.1661,3.1661,3.1661,2.9157,2.9274,2.9549,0.0,0.0,0.0,2.9871,2.9883,2.9651,2.8486,2.8018,2.7777,2.7301,2.7231,2.7231,2.7231,2.7231,2.7231,2.7231,2.7231,2.7231,2.7231,2.5852,2.5084,2.5326,2.5084,2.4563,2.3617,2.4723,2.5421,2.5348,2.5421,2.5663,2.6257,2.5913,2.5913,2.6257,2.5913,2.6268,2.7231,2.7231,2.7231,2.7231,2.7231,2.7231,2.7231,2.7231,2.7231,2.7231,2.7231,2.7231,2.7231,2.7231,2.7231,2.7231,2.7231,2.7552,2.8035,2.8356,2.893,2.955,2.9883,3.0089,3.0216,3.0216,3.0306,3.0487,3.0679,3.0949,3.1306,3.1572,3.1661,3.1661,3.1661,3.1661,3.1661,3.1661,3.1661,3.1661,3.1661,3.1661,3.1661,3.1661,3.1661,3.1661,3.1661,3.1661,3.1661,3.1661,3.1661,3.1661,3.1661,3.1383,3.1383,3.1661,3.1104,3.1003,3.1661,3.1383,3.1383,3.1661,3.1661,3.1661,3.1661,3.1661,3.156,3.1193,3.1193,3.1092,3.0734,3.1104,3.1193,2.9157,2.9274,2.9562,0.0,0.0,0.0,2.9238,2.9561,2.9651,2.8407,2.7626,2.7231,2.7231,2.7231,2.7231,2.7231,2.7231,2.7231,2.7231,2.7231,2.7231,2.7231,2.6351,2.5495,2.4573,2.5326,2.5411,2.4573,2.4498,2.5263,2.7056,2.5516,2.5348,2.7138,2.6268,2.6257,2.7149,2.6268,2.6268,2.7231,2.7231,2.7231,2.7231,2.7231,2.7231,2.7231,2.7231,2.7231,2.7231,2.7231,2.7231,2.7231,2.7231,2.7231,2.7231,2.7149,2.7541,2.7977,2.7977,2.8643,2.9481,2.9493,2.9814,3.0204,3.0204,3.0216,3.0318,3.0883,3.0972,3.1062,3.1572,3.1661,3.1661,3.1661,3.1661,3.1661,3.1661,3.1661,3.1661,3.1661,3.1661,3.1661,3.1661,3.1661,3.1661,3.1661,3.1661,3.1661,3.1661,3.1661,3.1661,3.1661,3.0812,3.0633,3.1572,2.9886,2.951,3.1572,3.0722,3.0633,3.1661,3.1661,3.1661,3.1661,3.1661,3.1193,3.017,3.017,2.9704,2.8669,2.9704,3.017,2.9402,2.9575,0.0,3.0803,0.0,0.0,0.0,2.8937,0.0,0.0,2.7313,2.7231,2.7231,2.7231,2.7231,2.7231,2.7231,2.7231,2.7231,2.7231,2.7231,2.7231,2.6351,2.5495,2.4573,2.5326,2.5147,2.3617,2.4145,2.4999,2.6174,2.5084,2.4999,2.6174,2.5337,2.5326,2.6174,2.5337,2.5684,2.7231,2.7231,2.7231,2.7231,2.7231,2.7231,2.7231,2.7231,2.7231,2.7231,2.7231,2.7231,2.7231,2.7231,2.7231,2.7149,2.6434,2.6712,2.7412,2.7071,2.7651,2.8482,2.8827,2.9286,2.9711,2.9711,3.0042,3.0578,3.0883,3.0589,3.0193,3.0543,3.017,2.9977,3.1371,3.1661,3.1661,3.1661,3.1661,3.1661,3.1661,3.1661,3.1661,3.1661,3.1661,3.1661,3.1661,3.1661,3.1661,3.1661,3.1661,3.1472,3.0722,3.0351,3.0068,2.9601,2.905,2.8958,2.951,2.9326,2.9612,3.0633,3.0633,3.0351,2.9612,2.9612,2.9418,2.9143,2.9143,2.8958,2.868,2.905,2.9143,2.9385,2.9693,0.0,3.053,3.0114,2.9406,2.8542,0.0,0.0,2.7301,2.7231,2.7231,2.7231,2.7231,2.7231,2.7231,2.7231,2.7231,2.7231,2.7231,2.7231,2.7231,2.6704,2.6008,2.5084,2.5841,2.5757,2.4286,2.4402,2.4914,2.5735,2.4988,2.4914,2.5735,2.5326,2.5421,2.6351,2.5505,2.5768,2.7231,2.7231,2.7231,2.7231,2.7231,2.7231,2.7149,2.6798,2.6622,2.6622,2.6622,2.688,2.7231,2.7231,2.6962,2.661,2.5997,2.6174,2.6573,2.6359,2.7026,2.8035,2.8322,2.8758,2.9183,2.9183,2.9338,2.9624,2.9827,2.9488,2.9154,2.9338,2.905,2.9143,3.0722,3.0824,3.0633,3.1003,3.0824,3.0633,3.1015,3.0812,3.0633,3.1003,3.1104,3.1104,3.1104,3.1104,3.1003,3.0543,3.0543,3.026,2.9704,2.9235,2.8958,2.868,2.7945,2.7851,2.868,2.8308,2.8402,2.8958,2.9418,2.9326,2.868,2.868,2.8495,2.8121,2.8121,2.7945,2.7484,2.7934,2.8121,2.9201,2.9732,0.0,2.9986,2.9484,0.0,2.7464,2.7231,2.7231,2.7231,2.7231,2.7231,2.7231,2.7231,2.7231,2.7231,2.7231,2.7231,2.7231,2.7231,2.7231,2.7231,2.7231,2.6798,2.5913,2.6528,2.6704,2.5819,2.4904,2.4829,2.5735,2.4988,2.4829,2.5663,2.5652,2.6091,2.7056,2.6174,2.6174,2.7056,2.7056,2.7056,2.6974,2.7149,2.7149,2.7056,2.6174,2.5735,2.5663,2.5735,2.6268,2.6974,2.7056,2.6528,2.5652,2.5568,2.5568,2.5652,2.5652,2.6641,2.7813,2.7908,2.8241,2.8632,2.8632,2.8264,2.8017,2.8208,2.798,2.7766,2.8068,2.8287,2.868,2.9704,2.9326,2.8958,2.9886,2.9326,2.8958,2.9886,2.9326,2.8958,2.9886,3.0068,3.0068,3.0068,3.0068,2.9704,2.8866,2.868,2.8669,2.8577,2.7746,2.7558,2.8402,2.6744,2.6466,2.8308,2.7558,2.7094,2.7094,2.8028,2.8495,2.8402,2.8402,2.7934,2.7094,2.7094,2.6552,2.5732,2.6648,2.7094,2.9377,3.0032,0.0,0.0,2.9184,2.8167,2.7383,2.7231,2.7231,2.7231,2.7231,2.7231,2.7231,2.7231,2.7231,2.7231,2.7231,2.7231,2.7231,2.7231,2.7231,2.7231,2.7231,2.6798,2.5913,2.5997,2.6008,2.583,2.4296,2.4125,2.5735,2.4988,2.4584,2.4744,2.4744,2.5158,2.6091,2.5242,2.5242,2.6091,2.6091,2.5757,2.5094,2.655,2.6798,2.6091,2.5913,2.5411,2.4829,2.5495,2.5495,2.5179,2.5841,2.5589,2.4659,2.3953,2.4135,2.4744,2.4744,2.5401,2.6412,2.7122,2.7736,2.8138,2.8138,2.7858,2.7624,2.8064,2.7233,2.6402,2.6858,2.6668,2.6562,2.7568,2.8308,2.8773,2.8958,2.8866,2.8773,2.8958,2.8866,2.8773,2.8958,2.905,2.905,2.905,2.905,2.8958,2.8773,2.868,2.8402,2.7652,2.7369,2.701,2.638,2.5917,2.5917,2.6294,2.61,2.6004,2.6004,2.701,2.7105,2.638,2.638,2.6197,2.6004,2.6004,2.5917,2.5742,2.5917,2.6004,2.9686,0.0,0.0,2.9806,0.0,2.8018,2.7383,2.7231,2.7231,2.7231,2.7231,2.7231,2.7231,2.7231,2.7231,2.7231,2.7231,2.7231,2.7231,2.7231,2.7056,2.661,2.6962,2.6704,2.5326,2.5579,2.5819,2.5819,2.4553,2.4221,2.5158,2.5158,2.4734,2.3887,2.4231,2.4914,2.583,2.4914,2.4914,2.5819,2.5819,2.5568,2.5158,2.6102,2.6019,2.5158,2.5158,2.4648,2.3877,2.4296,2.4478,2.4584,2.4988,2.4648,2.38,2.327,2.3444,2.379,2.379,2.4392,2.5242,2.5768,2.6122,2.6319,2.6319,2.6044,2.5701,2.5956,2.5391,2.4923,2.5099,2.51,2.5241,2.5989,2.6761,2.7389,2.784,2.7568,2.7389,2.784,2.7568,2.7389,2.7934,2.8028,2.8028,2.8028,2.8028,2.7851,2.7305,2.7305,2.702,2.6552,2.6466,2.6284,2.5732,2.5742,2.5742,2.5742,2.5742,2.5742,2.5742,2.6187,2.6284,2.5732,2.5742,2.5742,2.5742,2.5742,2.5742,2.5742,2.5742,2.5742,2.998,0.0,3.0432,2.9394,2.8554,0.0,2.7313,2.7231,2.7231,2.7231,2.7231,2.7231,2.7231,2.7231,2.7231,2.7231,2.7231,2.7231,2.7231,2.7056,2.6704,2.5913,2.6362,2.6124,2.4669,2.4988,2.5484,2.5819,2.4648,2.4155,2.4498,2.5062,2.4542,2.2921,2.38,2.4648,2.5579,2.4734,2.4734,2.5579,2.5231,2.5147,2.5305,2.5305,2.5073,2.4498,2.4327,2.3714,2.2843,2.3008,2.3444,2.4059,2.4241,2.3704,2.2843,2.2843,2.2843,2.2843,2.3008,2.3617,2.4317,2.4413,2.4498,2.4498,2.4498,2.4062,2.3643,2.3652,2.3693,2.3661,2.3661,2.4088,2.4502,2.4873,2.5234,2.573,2.6693,2.6284,2.5917,2.6733,2.6284,2.5917,2.6829,2.6914,2.6914,2.6914,2.6914,2.6648,2.583,2.5742,2.5742,2.5742,2.5742,2.5742,2.5742,2.5742,2.5742,2.5742,2.5742,2.5742,2.5742,2.5742,2.5742,2.5742,2.5742,2.5742,2.5742,2.5742,2.5742,2.5742,2.5742,2.5742,0.0,0.0,2.9316,0.0,2.8235,2.7301,2.7231,2.7231,2.7231,2.7231,2.7231,2.7231,2.7231,2.7231,2.7231,2.7231,2.7231,2.7231,2.7231,2.6528,2.5913,2.5819,2.5253,2.4754,2.4498,2.3877,2.4114,2.5652,2.3531,2.2775,2.4413,2.3877,2.3008,2.1909,2.2755,2.3704,2.4659,2.379,2.379,2.4659,2.3018,2.2677,2.3434,2.3434,2.3877,2.4413,2.3617,2.2755,2.1989,2.2755,2.2677,2.2167,2.2931,2.2677,2.1909,2.1909,2.1909,2.1989,2.2843,2.3183,2.3444,2.4231,2.4498,2.4498,2.4498,2.3841,2.3271,2.3707,2.3516,2.3243,2.3696,2.4049,2.4434,2.4492,2.4551,2.4805,2.5759,2.583,2.5732,2.5917,2.583,2.5732,2.5917,2.5917,2.5917,2.5917,2.5917,2.582,2.5742,2.5742,2.5742,2.5742,2.5742,2.5742,2.5742,2.5742,2.5742,2.5742,2.5742,2.5742,2.5742,2.5742,2.5742,2.5742,2.5742,2.5742,2.5742,2.5742,2.5742,2.5742,2.5742,2.5742,3.0524,3.0403,3.0024,0.0,2.87,2.8075,2.7383,2.7231,2.7231,2.7231,2.7231,2.7231,2.7231,2.7231,2.7231,2.7231,2.7231,2.7231,2.7231,2.6869,2.6185,2.5168,2.56,2.5179,2.3115,2.3541,2.3963,2.4296,2.3183,2.2843,2.3714,2.38,2.3193,2.1731,2.258,2.327,2.3704,2.327,2.327,2.3714,2.2334,2.2157,2.3096,2.2589,2.2853,2.3704,2.327,2.2589,2.1731,2.2157,2.2078,2.1731,2.2157,2.2078,2.1741,2.1741,2.1741,2.1731,2.2157,2.2334,2.2422,2.2775,2.294,2.294,2.294,2.2687,2.2334,2.2599,2.2644,2.2716,2.2984,2.3386,2.376,2.4014,2.4062,2.4238,2.4863,2.5195,2.5439,2.5684,2.5742,2.5742,2.5742,2.5742,2.5742,2.5742,2.5742,2.5742,2.5742,2.5742,2.5742,2.5742,2.5742,2.5742,2.5742,2.5742,2.5742,2.5742,2.5742,2.5742,2.5742,2.5742,2.5742,2.5742,2.5742,2.5742,2.5742,2.5742,2.5742,2.5742,2.5742,2.5742,0.0,0.0,3.0508,2.9561,2.9081,2.8621,2.7696,2.7301,2.7231,2.7231,2.7231,2.7231,2.7231,2.7231,2.7231,2.7231,2.7231,2.7231,2.7231,2.6974,2.6279,2.4669,2.5516,2.4988,2.1989,2.294,2.3627,2.3096,2.2843,2.2843,2.3096,2.3541,2.3115,2.1731,2.2413,2.2843,2.3096,2.3096,2.3008,2.2755,2.1989,2.2078,2.2755,2.1989,2.2069,2.2755,2.2755,2.2325,2.1741,2.1741,2.1741,2.1741,2.1741,2.1741,2.1741,2.1741,2.1741,2.1741,2.1741,2.1741,2.1741,2.1741,2.1741,2.1741,2.1741,2.1741,2.1741,2.182,2.2176,2.2432,2.253,2.2872,2.3223,2.3545,2.3623,2.3769,2.4307,2.4756,2.5166,2.5508,2.5664,2.5742,2.5742,2.5742,2.5742,2.5742,2.5742,2.5742,2.5742,2.5742,2.5742,2.5742,2.5742,2.5742,2.5742,2.5742,2.5742,2.5742,2.5742,2.5742,2.5742,2.5742,2.5742,2.5742,2.5742,2.5742,2.5742,2.5742,2.5742,2.5742,2.5742,2.5742,0.0,3.0508,0.0,2.996,2.9106,2.8247,2.8179,2.7626,2.7231,2.7231,2.7231,2.7231,2.7231,2.7231,2.7231,2.7231,2.7231,2.7231,2.7231,2.6434,2.5495,2.4573,2.38,2.2931,2.182,2.182,2.2157,2.3008,2.2246,2.2157,2.3008,2.2334,2.182,2.1741,2.1731,2.2157,2.3096,2.3096,2.2668,2.1731,2.1741,2.1731,2.1731,2.1741,2.1731,2.1731,2.1731,2.1731,2.1741,2.1741,2.1741,2.1741,2.1741,2.1741,2.1741,2.1741,2.1741,2.1741,2.1741,2.1741,2.1741,2.1741,2.1741,2.1741,2.1741,2.1741,2.182,2.2264,2.2353,2.252,2.2969,2.3047,2.3144,2.3164,2.3174,2.3398,2.4238,2.4756,2.5078,2.5098,2.5449,2.5742,2.5742,2.5742,2.5742,2.5742,2.5742,2.5742,2.5742,2.5742,2.5742,2.5742,2.5742,2.5742,2.5742,2.5742,2.5742,2.5742,2.5742,2.5742,2.5742,2.5742,2.5742,2.5742,2.5742,2.5742,2.5742,2.5742,2.5742,2.5742,2.5742,2.5742,0.0,0.0,0.0,3.0114,2.9406,2.8712,2.8247,2.7696,2.7231,2.7231,2.7231,2.7231,2.7231,2.7231,2.7231,2.7231,2.7231,2.7231,2.7231,2.6351,2.5495,2.4573,2.4231,2.3367,2.182,2.2246,2.2501,2.2246,2.1909,2.182,2.2157,2.19,2.1741,2.1741,2.1741,2.182,2.2157,2.2157,2.1989,2.1741,2.1741,2.1741,2.1741,2.1741,2.1741,2.1741,2.1741,2.1741,2.1741,2.1741,2.1741,2.1741,2.1741,2.1741,2.1741,2.1741,2.1741,2.1741,2.1741,2.1741,2.1741,2.1741,2.1741,2.1741,2.1741,2.1741,2.1731,2.2097,2.2264,2.2441,2.2794,2.2969,2.3135,2.3135,2.3135,2.3223,2.3525,2.415,2.4648,2.4648,2.501,2.5303,2.5303,2.5547,2.5742,2.5742,2.5742,2.5742,2.5742,2.5742,2.5742,2.5742,2.5742,2.5742,2.5742,2.5742,2.5742,2.5742,2.5742,2.5742,2.5742,2.5742,2.5742,2.5742,2.5742,2.5742,2.5742,2.5742,2.5742,2.5742,2.5742,2.5742,3.0986,0.0,0.0,3.0432,2.9716,2.9003,2.8554,2.7857,2.7231,2.7231,2.7231,2.7231,2.7231,2.7231,2.7231,2.7231,2.7231,2.7231,2.7231,2.6351,2.5495,2.4573,2.4231,2.3464,2.182,2.2246,2.2334,2.1731,2.1741,2.1741,2.1741,2.1741,2.1741,2.1741,2.1741,2.1741,2.1741,2.1741,2.1741,2.1741,2.1741,2.1741,2.1741,2.1741,2.1741,2.1741,2.1741,2.1741,2.1741,2.1741,2.1741,2.1741,2.1741,2.1741,2.1741,2.1741,2.1741,2.1741,2.1741,2.1741,2.1741,2.1741,2.1741,2.1741,2.1741,2.1741,2.1731,2.2097,2.2264,2.2441,2.2794,2.2969,2.3135,2.3135,2.3135,2.3135,2.3135,2.3701,2.4209,2.4209,2.456,2.4853,2.4853,2.5215,2.5518,2.5518,2.5644,2.5742,2.5742,2.5742,2.5742,2.5742,2.5742,2.5742,2.5742,2.5742,2.5742,2.5742,2.5742,2.5742,2.5742,2.5742,2.5742,2.5742,2.5742,2.5742,2.5742,2.5742,2.5742,2.5742,2.5742,2.5742,0.0,0.0,0.0,3.0986,3.0037,2.9081,2.9081,2.8075,2.7231,2.7231,2.7231,2.7231,2.7231,2.7231,2.7231,2.7231,2.7231,2.7231,2.7231,2.6351,2.5495,2.4573,2.3627,2.2668,2.182,2.1741,2.1741,2.1741,2.1741,2.1741,2.1741,2.1741,2.1741,2.1741,2.1741,2.1741,2.1741,2.1741,2.1741,2.1741,2.1741,2.1741,2.1741,2.1741,2.1741,2.1741,2.1741,2.1741,2.1741,2.1741,2.1741,2.1741,2.1741,2.1741,2.1741,2.1741,2.1741,2.1741,2.1741,2.1741,2.1741,2.1741,2.1741,2.1741,2.1741,2.1741,2.183,2.2264,2.2441,2.252,2.296,2.3135,2.3135,2.3135,2.3135,2.3135,2.3135,2.3467,2.3769,2.3769,2.4111,2.4394,2.4394,2.4756,2.5049,2.5049,2.542,2.5703,2.5713,2.5713,2.5723,2.5742,2.5742,2.5742,2.5742,2.5742,2.5742,2.5742,2.5742,2.5742,2.5742,2.5742,2.5742,2.5742,2.5742,2.5635,2.5635,2.5635,2.5742,2.5742,2.5742,2.5742,3.0986,0.0,0.0,0.0,0.0,0.0,2.8554,2.7777,2.7231,2.7231,2.7231,2.7231,2.7231,2.7231,2.7231,2.7231,2.7231,2.7231,2.7231,2.5863,2.4744,2.4498,2.3028,2.1989,2.1731,2.1741,2.1741,2.1741,2.1741,2.1741,2.1741,2.1741,2.1741,2.1741,2.1741,2.1741,2.1741,2.1741,2.1741,2.1741,2.1741,2.1741,2.1741,2.1741,2.1741,2.1741,2.1741,2.1741,2.1741,2.1741,2.1741,2.1741,2.1741,2.1741,2.1741,2.1741,2.1741,2.1741,2.1741,2.1741,2.1741,2.1741,2.1741,2.1741,2.1741,2.183,2.2008,2.2353,2.253,2.2706,2.3047,2.3135,2.3135,2.3135,2.3135,2.3135,2.3135,2.3232,2.332,2.332,2.3672,2.3965,2.3965,2.4316,2.459,2.459,2.4697,2.4893,2.5215,2.5254,2.5371,2.5703,2.5742,2.5742,2.5742,2.5742,2.5742,2.5742,2.5742,2.5742,2.5742,2.5742,2.5742,2.5742,2.5742,2.5323,2.4501,2.5323,2.5742,2.5742,2.5742,2.5742,0.0,0.0,0.0,2.9716,0.0,0.0,2.8247,2.7696,2.7231,2.7231,2.7231,2.7231,2.7231,2.7231,2.7231,2.7231,2.7231,2.7231,2.7231,2.56,2.4498,2.4498,2.2862,2.1741,2.1741,2.1741,2.1741,2.1741,2.1741,2.1741,2.1741,2.1741,2.1741,2.1741,2.1741,2.1741,2.1741,2.1741,2.1741,2.1741,2.1741,2.1741,2.1741,2.1741,2.1741,2.1741,2.1741,2.1741,2.1741,2.1741,2.1741,2.1741,2.1741,2.1741,2.1741,2.1741,2.1741,2.1741,2.1741,2.1741,2.1741,2.1741,2.1741,2.1741,2.183,2.2008,2.2185,2.2441,2.2706,2.2969,2.3057,2.3135,2.3135,2.3135,2.2775,2.2511,2.2511,2.2236,2.2138,2.296,2.335,2.3516,2.3516,2.3867,2.415,2.415,2.4307,2.4512,2.4766,2.4795,2.4971,2.541,2.5459,2.5324,2.5099,2.502,2.4815,2.4412,2.4815,2.4815,2.4412,2.4815,2.4815,2.4412,2.4313,2.4106,2.3384,2.4501,2.502,2.502,2.502,2.5226,0.0,0.0,0.0,2.9003,2.8633,0.0,2.8099,2.7626,2.7231,2.7231,2.7231,2.7231,2.7231,2.7231,2.7231,2.7231,2.7138,2.7056,2.7056,2.56,2.4498,2.4317,2.2775,2.1741,2.1741,2.1741,2.1741,2.1741,2.1741,2.1741,2.1741,2.1741,2.1741,2.1741,2.1741,2.1741,2.1741,2.1741,2.1741,2.1741,2.1741,2.1741,2.1741,2.1741,2.1741,2.1731,2.1553,2.1642,2.1731,2.1553,2.1642,2.1741,2.1741,2.1741,2.1741,2.1741,2.1741,2.1741,2.1741,2.1741,2.1741,2.1741,2.1741,2.1731,2.2008,2.2097,2.2274,2.2706,2.2969,2.3047,2.296,2.296,2.296,2.2775,2.2138,2.1516,2.1516,2.0872,2.0683,2.2413,2.2775,2.2775,2.2775,2.3191,2.3531,2.3531,2.3942,2.4297,2.4346,2.4346,2.4512,2.4847,2.4896,2.4555,2.3825,2.3898,2.3421,2.2524,2.3358,2.3484,2.2584,2.3384,2.3484,2.2484,2.2391,2.2291,2.2291,2.3384,2.389,2.389,2.389,2.4402,2.9081,2.9081,2.9003,2.8486,2.8247,0.0,2.7545,2.7301,2.7231,2.7231,2.7231,2.7231,2.7231,2.7231,2.7231,2.7231,2.6528,2.608,2.608,2.5168,2.4231,2.3444,2.2422,2.1741,2.1741,2.1741,2.1741,2.1741,2.1741,2.1741,2.1741,2.1741,2.1741,2.1741,2.1741,2.1741,2.1741,2.1741,2.1741,2.1741,2.1741,2.1741,2.1741,2.1741,2.1741,2.1651,2.0898,2.0997,2.1642,2.0898,2.0997,2.1741,2.1741,2.1741,2.1741,2.1741,2.1741,2.1741,2.1741,2.1741,2.1741,2.1741,2.1741,2.1731,2.2008,2.2176,2.2441,2.2872,2.3057,2.296,2.2148,2.1961,2.1784,2.0962,2.0602,2.0503,2.0503,2.0331,2.0322,2.0683,2.0782,2.0782,2.0782,2.1482,2.2091,2.2091,2.279,2.3516,2.3867,2.3906,2.3789,2.3448,2.3392,2.3033,2.2049,2.224,2.2325,2.2128,2.2512,2.2685,2.2492,2.2685,2.2685,2.2484,2.1684,2.1183,2.1183,2.2291,2.2785,2.2785,2.2785,2.2885,2.8155,2.8155,2.8075,2.7777,2.7708,0.0,0.0,2.7231,2.7231,2.7231,2.7231,2.7231,2.7231,2.7231,2.7231,2.7231,2.6434,2.5663,2.5242,2.4392,2.3617,2.3183,2.2246,2.1741,2.1741,2.1741,2.1741,2.1741,2.1741,2.1741,2.1741,2.1741,2.1741,2.1741,2.1741,2.1741,2.1741,2.1741,2.1741,2.1741,2.1741,2.1741,2.1741,2.1741,2.1454,2.0997,2.0529,2.0257,2.0257,1.9712,1.9803,2.0357,2.1275,2.1741,2.1741,2.1741,2.1741,2.1741,2.1741,2.1365,2.0997,2.0997,2.0718,2.0538,2.0718,2.1078,2.1329,2.1596,2.1686,2.1596,2.1051,2.0962,2.0782,2.0322,1.9869,1.9513,1.9513,1.9147,1.878,1.878,1.878,1.9055,2.0051,2.0593,2.0962,2.0962,2.132,2.1759,2.1961,2.1988,2.1962,2.1981,2.1933,2.1628,2.0762,2.0856,2.0769,2.0189,2.0843,2.1023,2.0716,2.1219,2.1301,2.0877,2.038,2.0078,2.0078,2.0688,2.1183,2.1684,2.1684,2.1988,2.7149,2.7231,2.7231,2.7231,2.7231,2.7231,0.0,0.0,0.0,2.7231,2.7231,2.7231,2.7231,2.7231,2.7138,2.6974,2.6174,2.5242,2.4317,2.3454,2.2843,2.2843,2.2157,2.1741,2.1741,2.1741,2.1741,2.1741,2.1741,2.1642,2.1454,2.1642,2.1642,2.1454,2.1642,2.1741,2.1741,2.1553,2.1463,2.1463,2.1275,2.1186,2.1186,2.1186,2.0718,1.9977,1.9795,1.9338,1.8788,1.8611,1.8611,1.8972,2.0538,2.1186,2.1186,2.1186,2.1186,2.1186,2.1186,2.0628,1.9977,2.0068,1.9795,1.9338,1.953,1.9886,2.0232,2.0232,2.0232,2.0141,1.996,1.996,1.9869,1.9687,1.9055,1.8511,1.8511,1.7878,1.7326,1.7326,1.7326,1.7785,1.9322,1.9778,1.996,1.996,2.0051,2.0232,2.0232,2.0232,2.0261,2.0475,2.0509,2.016,1.9414,1.95,1.9159,1.8302,1.9131,1.9284,1.8679,1.9576,1.9706,1.9081,1.9147,1.9184,1.9184,1.9242,1.9783,2.0585,2.0585,2.1089,2.6962,2.7231,2.7231,2.7231,2.7231,2.7231,2.7231,0.0,2.7231,2.7231,0.0,2.7231,2.7231,0.0,0.0,2.6091,2.5242,2.4317,2.3357,2.2413,2.182,2.182,2.1731,2.1741,2.1741,2.1741,2.1741,2.1741,2.1741,2.1365,2.0529,2.1266,2.1365,2.0529,2.1275,2.1741,2.1741,2.0898,2.0439,2.0439,1.9521,1.9155,1.9155,1.9155,1.9063,1.888,1.8064,1.8064,1.8696,1.7878,1.7971,1.8788,1.9063,1.9155,1.9155,1.9155,1.9155,1.9155,1.9155,1.9063,1.8972,1.9247,1.9521,1.9795,1.9894,2.0068,2.0232,2.0232,2.0232,2.0059,1.9147,1.8972,1.8696,1.7878,1.7505,1.7512,1.7512,1.7419,1.7326,1.7326,1.7326,1.7326,1.7598,1.8334,1.8972,1.8972,1.9695,2.0232,2.0232,2.0232,1.9886,1.912,1.9036,1.8682,1.771,1.789,1.7963,1.7867,1.8236,1.8412,1.8357,1.8456,1.8471,1.8416,1.8694,1.8847,1.8847,1.9133,1.9376,1.948,1.948,1.9583,2.6268,2.6351,2.6528,2.7056,2.6787,2.6351,2.6351,2.6351,2.6268,2.5768,0.0,0.0,0.0,0.0,0.0,0.0,2.4307,2.3531,2.3183,2.2334,2.1741,2.1741,2.1741,2.1741,2.1741,2.1741,2.1741,2.1741,2.1741,2.1275,2.0348,2.0709,2.0439,1.943,2.0348,2.0628,1.9985,2.0257,1.9977,1.943,1.8972,1.8788,1.8788,1.8788,1.8519,1.7878,1.7512,1.7232,1.7037,1.6574,1.6669,1.703,1.703,1.7777,1.8788,1.8788,1.8788,1.8788,1.8972,1.8696,1.8149,1.7978,1.8071,1.8257,1.8342,1.8427,1.8511,1.8511,1.8511,1.8419,1.8064,1.7971,1.7785,1.7419,1.7326,1.7326,1.7326,1.7326,1.7326,1.7326,1.7326,1.7326,1.7326,1.7699,1.7971,1.7971,1.8241,1.8511,1.8511,1.8511,1.8326,1.7971,1.7971,1.7785,1.7326,1.7457,1.753,1.753,1.7838,1.8021,1.8021,1.8203,1.8299,1.8299,1.8438,1.8503,1.8503,1.8642,1.8708,1.8723,1.9103,1.9279,2.5368,2.5411,2.5579,2.6279,2.5935,2.5411,2.5411,2.5411,2.5242,2.4659,2.4988,0.0,0.0,0.0,2.5158,2.4231,0.0,2.3008,2.2755,2.2157,2.1741,2.1741,2.1741,2.1741,2.1741,2.1741,2.1741,2.1741,2.1454,2.0907,1.9977,1.9886,1.943,1.8427,1.9338,1.9521,1.8796,1.9247,1.9155,1.8427,1.8141,1.7963,1.7963,1.7963,1.7591,1.6857,1.6857,1.6487,1.5832,1.5832,1.5832,1.5832,1.5832,1.6662,1.7956,1.8056,1.8056,1.8149,1.8419,1.8056,1.7419,1.7066,1.7073,1.7066,1.7239,1.7326,1.7326,1.7326,1.7326,1.7326,1.7326,1.7326,1.7326,1.7326,1.7326,1.7326,1.7326,1.7326,1.7326,1.7326,1.7326,1.7326,1.7326,1.7326,1.7326,1.7326,1.7326,1.7326,1.7326,1.7326,1.7326,1.7326,1.7326,1.7326,1.7326,1.7326,1.7326,1.7326,1.7552,1.7684,1.7684,1.7911,1.8035,1.8035,1.8123,1.8167,1.8167,1.8255,1.8299,1.8313,1.8789,1.906,2.4204,2.4584,2.4584,2.4584,2.4584,2.4584,2.4584,2.4584,2.4498,2.4498,2.4488,2.4498,2.4498,2.4488,2.4231,2.327,2.3096,0.0,0.0,2.1741,2.1741,2.1741,2.1741,2.1741,2.1741,2.1741,2.1741,2.1741,2.0898,1.9886,1.888,1.888,1.8427,1.7419,1.8334,1.8788,1.8788,1.7878,1.7419,1.7326,1.6386,1.592,1.592,1.592,1.5927,1.5825,1.5825,1.5832,1.5832,1.5832,1.5832,1.5832,1.5832,1.5825,1.592,1.6218,1.6312,1.6312,1.6588,1.6871,1.6979,1.6979,1.7153,1.7333,1.7326,1.7326,1.7326,1.7326,1.7326,1.7326,1.7326,1.7326,1.7326,1.7326,1.7326,1.7326,1.7326,1.7326,1.7326,1.7326,1.7326,1.7326,1.7326,1.7326,1.7326,1.7326,1.7326,1.7326,1.7326,1.7326,1.7326,1.7326,1.7326,1.7326,1.7326,1.7326,1.7326,1.7326,1.7333,1.7347,1.7347,1.7355,1.7362,1.7362,1.7669,1.783,1.783,1.8145,1.8299,1.8299,1.8321,1.8503,2.2169,2.2948,2.3704,2.4317,2.4059,2.3531,2.3531,2.3531,2.3367,2.2775,2.3105,2.3367,2.2765,2.3105,2.328,2.2334,2.2157,2.2078,0.0,2.1741,2.1741,2.1741,2.1741,2.1741,2.1741,2.1741,2.1454,2.0808,2.0439,1.9613,1.7878,1.7785,1.7318,1.6298,1.7318,1.7505,1.685,1.7138,1.6951,1.6298,1.592,1.5832,1.5832,1.5832,1.5832,1.5832,1.5832,1.5832,1.5832,1.5832,1.5832,1.5832,1.5832,1.5927,1.6123,1.613,1.6224,1.6218,1.6697,1.6965,1.7246,1.7246,1.7239,1.7326,1.7326,1.7326,1.7326,1.7326,1.7326,1.7326,1.7326,1.7326,1.7326,1.7326,1.7326,1.7326,1.7326,1.7326,1.7326,1.7326,1.7326,1.7326,1.7326,1.7326,1.7326,1.7326,1.7326,1.7326,1.7326,1.7326,1.7326,1.7326,1.7326,1.7326,1.7326,1.7326,1.7326,1.7326,1.7326,1.7326,1.7326,1.7326,1.7326,1.7326,1.7435,1.7494,1.7494,1.7604,1.7655,1.7655,1.7655,1.7947,2.0634,2.1525,2.2563,2.3337,2.3018,2.2589,2.2589,2.2589,2.2413,2.182,2.2157,2.2413,2.182,2.2157,2.2413,2.182,2.1741,2.1741,0.0,2.1741,2.1741,2.1741,2.1741,2.1553,2.1266,2.1177,2.0808,1.9795,1.943,1.8696,1.7326,1.6958,1.6487,1.5825,1.6393,1.6487,1.5832,1.6487,1.6487,1.5832,1.5832,1.5832,1.5832,1.5832,1.5832,1.5832,1.5832,1.5832,1.5832,1.5832,1.5832,1.5832,1.5927,1.6028,1.6224,1.6312,1.6407,1.6683,1.6972,1.7153,1.7326,1.7326,1.7326,1.7326,1.7326,1.7326,1.7326,1.7326,1.7326,1.7326,1.7326,1.7326,1.7326,1.7326,1.7326,1.7326,1.7326,1.7326,1.7326,1.7326,1.7326,1.7326,1.7326,1.7326,1.7326,1.7326,1.7326,1.7326,1.7326,1.7326,1.7326,1.7326,1.7326,1.7326,1.7326,1.7326,1.7326,1.7326,1.7326,1.7326,1.7326,1.7326,1.7384,1.7501,1.7391,1.7384,1.7501,1.7384,1.7326,1.7326,1.7326,1.7552]},{"header":{"parameterUnit":"m.s-1","parameterCategory":1,"la1":30.6,"la2":29.2853,"lo1":-89.7004,"lo2":-87.6739,"dy":0.0162,"dx":0.0183,"nx":112,"ny":82,"refTime":"2023-10-18T18:00:00:Z","depth":0,"parameterNumber":3,"parameterNumberName":"V-component_of_WINDS"},"data":[0.0,0.0,0.0,0.0,0.0,0.0,0.0,0.0,0.0,0.0,0.0,0.0,0.0,0.0,0.0,0.0,0.0,0.0,0.0,0.0,0.0,0.0,0.0,0.0,0.0,0.0,0.0,0.0,0.0,0.0,0.0,0.0,0.0,0.0,0.0,0.0,0.0,0.0,0.0,0.0,0.0,0.0,0.0,0.0,0.0,0.0,0.0,0.0,0.0,0.0,0.0,0.0,0.0,0.0,0.0,0.0,0.0,0.0,0.0,0.0,0.0,0.0,0.0,0.0,0.0,0.0,0.0,0.0,0.0,0.0,0.0,0.0,0.0,0.0,0.0,0.0,0.0,0.0,0.0,0.0,0.0,0.0,0.0,0.0,0.0,0.0,0.0,0.0,0.0,0.0,-1.7295,-1.794,-1.8008,-1.8008,-1.8008,-1.8008,-1.7725,-1.7079,0.0,0.0,0.0,0.0,0.0,0.0,0.0,0.0,0.0,0.0,0.0,0.0,0.0,0.0,0.0,0.0,0.0,0.0,0.0,0.0,0.0,0.0,0.0,0.0,0.0,0.0,0.0,0.0,0.0,0.0,0.0,0.0,0.0,0.0,0.0,0.0,0.0,0.0,0.0,0.0,0.0,0.0,0.0,0.0,0.0,0.0,0.0,0.0,0.0,0.0,0.0,0.0,0.0,0.0,0.0,0.0,0.0,0.0,0.0,0.0,0.0,0.0,0.0,0.0,0.0,0.0,0.0,0.0,0.0,0.0,0.0,0.0,0.0,0.0,0.0,0.0,0.0,0.0,0.0,0.0,0.0,0.0,0.0,0.0,0.0,0.0,0.0,0.0,0.0,0.0,0.0,0.0,0.0,0.0,0.0,0.0,0.0,0.0,0.0,0.0,0.0,0.0,0.0,0.0,-1.7872,-1.8008,-1.8008,-1.8008,-1.8008,-1.8008,-1.794,-1.7862,0.0,0.0,0.0,0.0,0.0,0.0,0.0,0.0,0.0,0.0,0.0,0.0,0.0,0.0,0.0,0.0,0.0,0.0,0.0,0.0,0.0,0.0,0.0,0.0,0.0,0.0,0.0,0.0,0.0,0.0,0.0,0.0,0.0,0.0,0.0,0.0,0.0,0.0,0.0,0.0,0.0,0.0,0.0,0.0,0.0,0.0,0.0,0.0,0.0,0.0,0.0,0.0,0.0,0.0,0.0,0.0,0.0,0.0,0.0,0.0,0.0,0.0,0.0,0.0,0.0,0.0,0.0,0.0,0.0,0.0,0.0,0.0,0.0,0.0,0.0,0.0,0.0,0.0,0.0,0.0,0.0,0.0,0.0,0.0,0.0,0.0,0.0,0.0,0.0,0.0,0.0,0.0,0.0,0.0,0.0,0.0,0.0,0.0,0.0,0.0,0.0,0.0,0.0,-1.8479,-1.8701,-1.8701,-1.8701,-1.8701,-1.8701,-1.8486,-1.835,-1.835,-1.8135,0.0,0.0,0.0,0.0,0.0,0.0,0.0,0.0,0.0,0.0,0.0,0.0,0.0,0.0,0.0,0.0,0.0,0.0,0.0,0.0,0.0,0.0,0.0,0.0,0.0,0.0,0.0,0.0,0.0,0.0,0.0,0.0,0.0,0.0,0.0,0.0,0.0,0.0,0.0,0.0,0.0,0.0,0.0,0.0,0.0,0.0,0.0,0.0,0.0,0.0,0.0,0.0,0.0,0.0,0.0,0.0,0.0,0.0,0.0,0.0,0.0,0.0,0.0,0.0,0.0,0.0,0.0,0.0,0.0,0.0,0.0,0.0,0.0,0.0,0.0,0.0,0.0,0.0,0.0,0.0,0.0,0.0,0.0,0.0,0.0,0.0,0.0,0.0,0.0,0.0,0.0,0.0,0.0,0.0,0.0,0.0,0.0,0.0,0.0,0.0,0.0,0.0,-1.9287,-1.9287,-1.9287,-1.9287,-1.9287,-1.9287,-1.8984,-1.8789,-1.8789,-1.8486,0.0,0.0,0.0,0.0,0.0,0.0,0.0,0.0,0.0,0.0,0.0,0.0,0.0,0.0,0.0,0.0,0.0,0.0,0.0,0.0,0.0,0.0,0.0,0.0,0.0,0.0,0.0,0.0,0.0,0.0,0.0,0.0,0.0,0.0,0.0,0.0,0.0,0.0,0.0,0.0,0.0,0.0,0.0,0.0,0.0,0.0,0.0,0.0,0.0,0.0,0.0,0.0,0.0,0.0,0.0,0.0,0.0,0.0,0.0,0.0,0.0,0.0,0.0,0.0,0.0,0.0,0.0,0.0,0.0,0.0,0.0,0.0,0.0,0.0,0.0,0.0,0.0,0.0,0.0,0.0,0.0,0.0,0.0,0.0,0.0,0.0,0.0,0.0,0.0,0.0,0.0,0.0,0.0,0.0,0.0,0.0,0.0,0.0,0.0,0.0,0.0,0.0,-1.9287,-1.9287,-1.9287,-1.9287,-1.9287,-1.9287,-1.9258,-1.9238,-1.9238,-1.9209,0.0,0.0,0.0,0.0,0.0,0.0,0.0,0.0,0.0,0.0,0.0,0.0,0.0,0.0,0.0,0.0,0.0,0.0,0.0,0.0,0.0,0.0,0.0,0.0,0.0,0.0,0.0,0.0,0.0,0.0,0.0,0.0,0.0,0.0,0.0,0.0,0.0,0.0,0.0,0.0,0.0,0.0,0.0,0.0,0.0,0.0,0.0,0.0,0.0,0.0,0.0,0.0,0.0,0.0,0.0,0.0,0.0,0.0,0.0,0.0,0.0,0.0,0.0,0.0,0.0,0.0,0.0,0.0,0.0,0.0,0.0,0.0,0.0,0.0,0.0,0.0,0.0,0.0,0.0,0.0,0.0,0.0,0.0,0.0,0.0,0.0,0.0,0.0,0.0,0.0,0.0,0.0,0.0,0.0,0.0,0.0,0.0,0.0,0.0,0.0,0.0,0.0,-2.0088,-2.0088,-2.0088,-2.0088,-2.0088,-2.0088,-1.9834,-1.9678,-1.9678,0.0,0.0,0.0,0.0,0.0,0.0,0.0,0.0,0.0,0.0,0.0,0.0,0.0,0.0,0.0,0.0,0.0,0.0,0.0,0.0,0.0,0.0,0.0,0.0,0.0,0.0,0.0,0.0,0.0,0.0,0.0,0.0,0.0,0.0,0.0,0.0,0.0,0.0,0.0,0.0,0.0,0.0,0.0,0.0,0.0,0.0,0.0,0.0,0.0,0.0,0.0,0.0,0.0,0.0,0.0,0.0,0.0,0.0,0.0,0.0,0.0,0.0,0.0,0.0,0.0,0.0,0.0,0.0,0.0,0.0,0.0,0.0,0.0,0.0,0.0,0.0,0.0,0.0,0.0,0.0,0.0,0.0,0.0,0.0,0.0,0.0,0.0,0.0,0.0,0.0,0.0,0.0,0.0,0.0,0.0,0.0,0.0,0.0,0.0,0.0,0.0,0.0,-2.0644,-2.0654,-2.0731,-2.0731,-2.0731,-2.0731,-2.0809,-2.0532,-2.0279,-2.0203,0.0,0.0,0.0,0.0,0.0,0.0,0.0,0.0,0.0,0.0,0.0,0.0,0.0,0.0,0.0,0.0,0.0,0.0,0.0,0.0,0.0,0.0,0.0,0.0,0.0,0.0,0.0,0.0,0.0,0.0,0.0,0.0,0.0,0.0,0.0,0.0,0.0,0.0,0.0,0.0,0.0,0.0,0.0,0.0,0.0,0.0,0.0,0.0,0.0,0.0,0.0,0.0,0.0,0.0,0.0,0.0,0.0,0.0,0.0,0.0,0.0,0.0,0.0,0.0,0.0,0.0,0.0,0.0,0.0,0.0,0.0,0.0,0.0,0.0,0.0,0.0,0.0,0.0,0.0,0.0,0.0,0.0,0.0,0.0,0.0,0.0,0.0,0.0,0.0,0.0,0.0,0.0,0.0,0.0,0.0,0.0,0.0,0.0,0.0,0.0,0.0,0.0,-2.0644,-2.0819,-2.0906,-2.0906,-2.0906,-2.0984,-2.1205,-2.1205,-2.1138,0.0,0.0,0.0,0.0,0.0,0.0,0.0,0.0,0.0,0.0,0.0,0.0,0.0,0.0,0.0,0.0,0.0,0.0,0.0,0.0,0.0,0.0,0.0,0.0,0.0,0.0,0.0,0.0,0.0,0.0,0.0,0.0,0.0,0.0,0.0,0.0,0.0,0.0,0.0,0.0,0.0,0.0,0.0,0.0,0.0,0.0,0.0,0.0,0.0,0.0,0.0,0.0,0.0,0.0,0.0,0.0,0.0,0.0,0.0,0.0,0.0,0.0,0.0,0.0,0.0,0.0,0.0,0.0,0.0,0.0,0.0,0.0,0.0,0.0,0.0,0.0,0.0,0.0,0.0,0.0,0.0,0.0,0.0,0.0,0.0,0.0,0.0,0.0,0.0,0.0,0.0,0.0,0.0,0.0,0.0,0.0,0.0,0.0,0.0,0.0,0.0,0.0,0.0,-2.0819,-2.0974,-2.1138,-2.1138,-2.0984,-2.0984,-2.1205,-2.1061,-2.0984,-2.0906,0.0,0.0,0.0,0.0,0.0,0.0,0.0,0.0,0.0,0.0,0.0,0.0,0.0,0.0,0.0,0.0,0.0,0.0,0.0,0.0,0.0,0.0,0.0,0.0,0.0,0.0,0.0,0.0,0.0,0.0,0.0,0.0,0.0,0.0,0.0,0.0,0.0,0.0,0.0,0.0,0.0,0.0,0.0,0.0,0.0,0.0,0.0,0.0,0.0,0.0,0.0,0.0,0.0,0.0,0.0,0.0,0.0,0.0,0.0,0.0,0.0,0.0,0.0,0.0,0.0,0.0,0.0,0.0,0.0,0.0,0.0,0.0,0.0,0.0,0.0,0.0,0.0,0.0,0.0,0.0,0.0,0.0,0.0,0.0,0.0,0.0,0.0,0.0,0.0,0.0,0.0,0.0,0.0,0.0,0.0,0.0,0.0,0.0,0.0,0.0,0.0,0.0,-2.156,-2.1587,-2.1693,-2.1876,-2.1738,-2.1738,-2.1974,-2.1734,-2.1477,-2.1399,0.0,0.0,0.0,0.0,0.0,0.0,0.0,0.0,0.0,0.0,0.0,0.0,0.0,0.0,0.0,0.0,0.0,0.0,0.0,0.0,0.0,0.0,0.0,0.0,0.0,0.0,0.0,0.0,0.0,0.0,0.0,0.0,0.0,0.0,0.0,0.0,0.0,0.0,0.0,0.0,0.0,0.0,0.0,0.0,0.0,0.0,0.0,0.0,0.0,0.0,0.0,0.0,0.0,0.0,0.0,0.0,0.0,0.0,0.0,0.0,0.0,0.0,0.0,0.0,0.0,0.0,0.0,0.0,0.0,0.0,0.0,0.0,0.0,0.0,0.0,0.0,0.0,0.0,0.0,0.0,0.0,0.0,0.0,0.0,0.0,0.0,0.0,0.0,0.0,0.0,0.0,0.0,0.0,0.0,0.0,0.0,0.0,0.0,0.0,0.0,0.0,0.0,-2.2574,-2.2432,-2.249,-2.29,-2.2951,-2.2951,-2.3184,-2.2801,-2.2484,-2.2247,0.0,0.0,0.0,0.0,0.0,0.0,0.0,0.0,0.0,0.0,0.0,0.0,0.0,0.0,0.0,0.0,0.0,0.0,0.0,0.0,0.0,0.0,0.0,0.0,0.0,0.0,0.0,0.0,0.0,0.0,0.0,0.0,0.0,0.0,0.0,0.0,0.0,0.0,0.0,0.0,0.0,0.0,0.0,0.0,0.0,0.0,0.0,0.0,0.0,0.0,0.0,0.0,0.0,0.0,0.0,0.0,0.0,0.0,0.0,0.0,-2.0962,-2.0009,0.0,0.0,0.0,0.0,0.0,0.0,0.0,0.0,0.0,0.0,0.0,0.0,0.0,0.0,0.0,0.0,0.0,0.0,0.0,0.0,0.0,0.0,0.0,0.0,0.0,0.0,0.0,0.0,0.0,0.0,0.0,0.0,0.0,0.0,0.0,0.0,0.0,0.0,0.0,0.0,-2.2859,-2.294,-2.3,-2.3103,-2.3032,-2.2951,-2.3184,-2.294,-2.2807,-2.2716,-2.2635,0.0,0.0,0.0,0.0,0.0,0.0,0.0,0.0,0.0,0.0,0.0,0.0,0.0,0.0,0.0,0.0,0.0,0.0,0.0,0.0,0.0,0.0,0.0,0.0,0.0,0.0,0.0,0.0,0.0,0.0,0.0,0.0,0.0,0.0,0.0,0.0,0.0,0.0,0.0,0.0,0.0,0.0,0.0,0.0,0.0,0.0,0.0,0.0,0.0,0.0,0.0,0.0,0.0,0.0,0.0,0.0,0.0,0.0,0.0,-2.1773,-2.1152,0.0,0.0,0.0,0.0,0.0,0.0,0.0,0.0,0.0,0.0,0.0,0.0,0.0,0.0,0.0,0.0,0.0,0.0,0.0,0.0,0.0,0.0,0.0,0.0,0.0,0.0,0.0,0.0,0.0,0.0,0.0,0.0,0.0,0.0,0.0,0.0,0.0,0.0,0.0,0.0,-2.427,-2.4589,-2.4858,-2.5087,-2.463,-2.4384,-2.4456,-2.3794,-2.3361,-2.3361,-2.3074,0.0,0.0,0.0,0.0,0.0,0.0,0.0,0.0,0.0,0.0,0.0,0.0,0.0,0.0,0.0,0.0,0.0,0.0,0.0,0.0,0.0,0.0,0.0,0.0,0.0,0.0,0.0,0.0,0.0,0.0,0.0,0.0,0.0,0.0,0.0,0.0,0.0,0.0,0.0,0.0,0.0,0.0,0.0,0.0,0.0,0.0,0.0,0.0,0.0,0.0,0.0,0.0,0.0,-2.219,-2.2327,-2.2339,-2.2835,-2.3423,-2.3992,-2.2834,-2.2627,-2.3046,-2.1799,0.0,0.0,0.0,0.0,0.0,0.0,0.0,0.0,0.0,0.0,0.0,0.0,0.0,0.0,0.0,0.0,0.0,0.0,0.0,0.0,0.0,0.0,-2.4284,-2.4659,-2.5278,-2.5648,-2.4954,0.0,0.0,0.0,0.0,0.0,0.0,0.0,0.0,0.0,0.0,0.0,-2.5775,-2.6298,-2.6623,-2.6614,-2.6152,-2.5746,-2.5579,-2.4598,-2.3991,-2.3991,-2.3474,-2.3186,0.0,0.0,0.0,0.0,0.0,0.0,0.0,0.0,0.0,0.0,0.0,0.0,0.0,0.0,0.0,0.0,0.0,0.0,0.0,0.0,0.0,0.0,0.0,0.0,0.0,0.0,0.0,0.0,0.0,0.0,0.0,0.0,-2.1428,-2.1428,0.0,0.0,0.0,0.0,0.0,0.0,0.0,0.0,0.0,0.0,0.0,0.0,0.0,-2.1701,-2.2327,-2.304,-2.3665,-2.4186,-2.4925,-2.5265,-2.5265,-2.5342,-2.5444,-2.5506,-2.5303,0.0,-2.4327,-2.4122,0.0,0.0,0.0,0.0,0.0,0.0,0.0,0.0,0.0,0.0,0.0,0.0,0.0,0.0,0.0,0.0,0.0,0.0,0.0,0.0,0.0,0.0,-2.7278,-2.7155,-2.7603,-2.7931,-2.7846,-2.6286,-2.4946,-2.5451,-2.5467,-2.5394,0.0,0.0,0.0,0.0,0.0,0.0,-2.5819,-2.6509,-2.6427,-2.502,-2.5421,-2.5505,-2.47,-2.4488,-2.4457,-2.4447,-2.431,-2.4279,-2.4279,-2.4108,0.0,0.0,0.0,0.0,0.0,0.0,0.0,0.0,0.0,0.0,0.0,0.0,0.0,0.0,0.0,0.0,0.0,0.0,0.0,0.0,0.0,0.0,0.0,0.0,0.0,0.0,0.0,0.0,0.0,-2.1553,-2.2039,-2.1815,-2.1729,-2.153,0.0,0.0,0.0,0.0,0.0,0.0,0.0,0.0,0.0,-2.3259,-2.3323,-2.3624,-2.4317,-2.4722,-2.5038,-2.5294,-2.6011,-2.6308,-2.6321,-2.6974,-2.7262,-2.7275,-2.7615,-2.7348,-2.6614,-2.5252,-2.4267,-2.3501,0.0,0.0,0.0,0.0,-2.3501,-2.3712,-2.4566,-2.4852,-2.4888,-2.5119,0.0,0.0,0.0,0.0,0.0,0.0,0.0,-2.5323,-2.6516,-2.7292,-2.7792,-2.8104,-2.8367,-2.8622,-2.8941,-2.82,-2.7482,-2.7172,-2.699,-2.6769,-2.6565,-2.6332,0.0,0.0,0.0,-2.7302,-2.7302,-2.8051,-2.8303,-2.7568,-2.7395,-2.6976,-2.6008,-2.5505,-2.502,-2.454,-2.454,-2.47,-2.5179,-2.5179,-2.5348,0.0,0.0,0.0,0.0,0.0,0.0,0.0,0.0,0.0,0.0,0.0,0.0,0.0,0.0,0.0,0.0,0.0,0.0,0.0,0.0,0.0,0.0,0.0,0.0,0.0,0.0,0.0,0.0,-2.2359,-2.2909,-2.2751,-2.2874,-2.28,0.0,0.0,0.0,0.0,0.0,0.0,-2.3204,-2.346,-2.4006,-2.4886,-2.5089,-2.5499,-2.6255,-2.6399,-2.6556,-2.6713,-2.7144,-2.734,-2.7366,-2.8216,-2.8608,-2.8634,-2.9091,-2.9026,-2.849,-2.6552,-2.5494,-2.5012,-2.4815,-2.456,-2.4388,-2.4885,-2.5098,-2.524,-2.6183,-2.6559,-2.6684,-2.6684,-2.6773,-2.6746,-2.5791,0.0,0.0,0.0,0.0,-2.6395,-2.7728,-2.8172,-2.8359,-2.8895,-2.9096,-2.9314,-2.9738,-2.9753,-2.9503,-2.8925,-2.8467,-2.8137,-2.7968,-2.7718,0.0,-2.7626,-2.8131,-2.8542,-2.8542,-2.9287,-2.9624,-2.9131,-2.8712,-2.8131,-2.7151,-2.6483,-2.5746,-2.4861,-2.4861,-2.502,-2.5421,-2.5663,-2.6069,-2.673,0.0,0.0,0.0,0.0,0.0,0.0,0.0,0.0,0.0,0.0,0.0,0.0,0.0,0.0,0.0,0.0,0.0,0.0,0.0,0.0,0.0,0.0,0.0,0.0,0.0,0.0,0.0,0.0,0.0,-2.4797,-2.4287,0.0,0.0,0.0,0.0,-2.4116,-2.376,-2.4124,-2.5395,-2.4873,-2.4873,-2.5686,-2.6283,-2.6883,-2.7445,-2.7981,-2.8543,-2.9104,-2.9131,-2.9144,-2.9157,-2.9209,-2.9235,-2.9235,-2.9274,-2.9261,-2.9183,-2.8529,-2.7439,-2.6271,-2.6077,-2.5673,-2.5264,-2.5836,-2.6126,-2.6414,-2.7188,-2.7808,-2.8265,-2.8265,-2.8656,-2.8957,-2.7959,-2.7654,0.0,0.0,-2.7692,-2.7923,-2.8964,-2.9608,-2.9939,-2.9766,-3.0193,-3.062,-3.0646,-3.0482,-3.0317,-3.0317,-3.0101,-2.9793,-2.916,0.0,-2.8791,-2.9003,-2.8858,-2.8791,-2.8791,-2.9378,-2.9131,-2.7395,-2.7971,-2.8131,-2.7151,-2.7069,-2.6648,-2.583,-2.5746,-2.5337,-2.4615,-2.5337,-2.583,-2.5819,-2.6648,0.0,0.0,0.0,0.0,0.0,0.0,0.0,0.0,0.0,0.0,0.0,0.0,0.0,0.0,0.0,0.0,0.0,0.0,0.0,0.0,0.0,0.0,0.0,0.0,0.0,0.0,0.0,0.0,-2.5086,-2.5236,0.0,-2.5571,-2.5268,-2.5154,-2.5281,-2.5486,-2.5921,-2.6778,-2.6984,-2.7359,-2.8033,-2.8242,-2.8451,-2.866,-2.8856,-2.9065,-2.9287,-2.9653,-2.9823,-2.9849,-3.0215,-3.0372,-3.0372,-3.0372,-3.0163,-2.981,-2.9601,-2.9028,-2.8298,-2.8215,-2.8075,-2.7933,-2.8075,-2.8215,-2.8285,-2.8591,-2.8791,-2.8961,-2.8961,-2.9104,-2.9203,-2.8892,-2.8736,-2.8813,-2.9173,-2.9288,-2.9439,-3.0207,-3.0529,-3.0673,-3.0598,-3.0755,-3.0911,-3.0911,-3.0836,-3.0761,-3.0761,-3.052,-3.0292,-3.0126,-2.9973,-2.9806,-2.996,-2.9896,-2.9819,-2.9819,-2.9921,-2.9767,-2.9106,-2.9197,-2.8961,-2.8051,-2.7971,-2.7637,-2.6648,-2.6648,-2.673,-2.7069,-2.7395,-2.7799,-2.8383,-2.8712,-2.8803,0.0,0.0,0.0,0.0,0.0,0.0,0.0,0.0,0.0,0.0,0.0,0.0,0.0,0.0,0.0,0.0,0.0,0.0,0.0,0.0,0.0,0.0,0.0,0.0,0.0,-2.5239,-2.6064,-2.5856,-2.6199,-2.6555,-2.6754,-2.6839,-2.6816,-2.6764,-2.7354,-2.7786,-2.8098,-2.8477,-2.8869,-2.9274,-2.947,-2.9575,-2.9575,-2.9758,-2.9849,-2.9862,-3.0241,-3.0424,-3.0438,-3.0817,-3.0986,-3.0986,-3.0986,-3.0764,-3.0424,-3.0424,-3.0262,-2.9954,-2.9502,-2.9274,-2.9274,-2.9274,-2.9274,-2.9314,-2.9497,-2.9575,-2.9601,-2.9797,-2.9849,-2.9849,-2.9849,-2.9849,-2.9928,-3.032,-3.0424,-3.0516,-3.0895,-3.0986,-3.0986,-3.0986,-3.0986,-3.0986,-3.0986,-3.0986,-3.0986,-3.0986,-3.0748,-3.0609,-3.0773,-3.0609,-3.052,-3.0596,-3.052,-3.052,-3.052,-3.0305,-3.0152,-3.0075,-3.0011,-2.9689,-2.9106,-2.87,-2.8291,-2.773,-2.7313,-2.7395,-2.7971,-2.8291,-2.8791,-2.9378,-2.9624,-2.9792,-2.9792,0.0,0.0,0.0,0.0,0.0,0.0,0.0,0.0,0.0,0.0,0.0,0.0,0.0,0.0,0.0,0.0,0.0,0.0,0.0,0.0,0.0,0.0,0.0,-2.6228,-2.6162,-2.6449,-2.716,-2.7277,-2.7531,-2.8079,-2.8719,-2.8985,-2.8781,-2.9297,-2.9557,-2.9371,-2.9301,-2.9314,-2.9327,-2.9876,-3.0163,-3.0163,-3.0712,-3.0986,-3.0986,-3.0986,-3.0986,-3.0986,-3.0986,-3.0986,-3.0986,-3.0986,-3.0986,-3.0986,-3.0986,-3.1123,-3.1167,-2.983,-2.934,-2.9327,-2.934,-2.9327,-2.9418,-2.9967,-3.0163,-3.0255,-3.0803,-3.0986,-3.0986,-3.0986,-3.0986,-3.0986,-3.0986,-3.0986,-3.0986,-3.0986,-3.0986,-3.0986,-3.0986,-3.0986,-3.0986,-3.0986,-3.0986,-3.0986,-3.0986,-3.0849,-3.0773,-3.0986,-3.0849,-3.0773,-3.0986,-3.0849,0.0,-3.0698,-3.0533,-3.0292,-3.0152,-3.0075,-3.0075,-3.0075,-2.9184,-2.8621,-2.8882,-2.7799,-2.7221,-2.7221,-2.8051,-2.8542,-2.8542,-2.9378,-2.9792,-2.9792,0.0,0.0,0.0,0.0,0.0,0.0,0.0,0.0,0.0,0.0,0.0,0.0,0.0,0.0,0.0,0.0,0.0,0.0,0.0,0.0,0.0,-2.7511,-2.7626,-2.7013,-2.7357,-2.7902,-2.8584,-2.8651,-2.8893,-2.9483,-2.9615,-2.9653,-2.9584,-2.9731,-2.987,-3.0079,-3.0105,-3.023,-3.0503,-3.0673,-3.0751,-3.0751,-3.0908,-3.0986,-3.0986,-3.0986,-3.0986,-3.0986,-3.0986,-3.1061,-3.1198,-3.1198,-3.1286,-3.1447,-3.1447,-3.1447,-3.1408,-3.0795,-3.059,-3.0724,-3.059,-3.0516,-3.0529,-3.0699,-3.0751,-3.0777,-3.0934,-3.0986,-3.0986,-3.0986,-3.0986,-3.0986,-3.0986,-3.0986,-3.0986,-3.0986,-3.0986,-3.0986,-3.0986,-3.0986,-3.0986,-3.0986,-3.0986,-3.0986,-3.0986,-3.0986,-3.0911,-3.0986,-3.0911,-3.0911,-3.0986,-3.0911,-3.0911,-3.0911,-3.0761,-3.0622,-3.0546,-3.0368,-3.0292,-3.0292,-3.005,-2.9896,-2.9973,-2.9639,-2.9471,-2.9471,-2.9729,-2.9883,-2.9883,-3.0139,-3.0228,0.0,0.0,0.0,0.0,0.0,0.0,0.0,0.0,0.0,0.0,0.0,0.0,0.0,0.0,0.0,0.0,0.0,0.0,0.0,0.0,0.0,0.0,-2.8398,-2.8583,-2.822,-2.8462,-2.8905,-2.9592,-2.9727,-2.9875,-3.0213,-3.04,-3.0478,-3.0338,-3.0566,-3.0788,-3.0917,-3.093,-3.1016,-3.1211,-3.1224,-3.1224,-3.1224,-3.1224,-3.1224,-3.1224,-3.1224,-3.1224,-3.1224,-3.1224,-3.1299,-3.1434,-3.1434,-3.1522,-3.1609,-3.1609,-3.1683,-3.1669,0.0,0.0,0.0,0.0,-3.1211,-3.1123,-3.1123,-3.1061,-3.0986,-3.0986,-3.0986,-3.0986,-3.0986,-3.0986,-3.0986,-3.0986,-3.0986,-3.0986,-3.0986,-3.0986,-3.0986,-3.0986,-3.0986,-3.0986,-3.0986,-3.0986,-3.0986,-3.0986,-3.0986,0.0,-3.0986,-3.0986,-3.0986,-3.0986,-3.0986,-3.0986,-3.0986,-3.0911,-3.0773,-3.0698,-3.0609,-3.0533,-3.0533,-3.0126,0.0,0.0,0.0,-3.0037,-3.0355,-3.0368,0.0,0.0,0.0,-3.0368,-3.0368,-3.0292,0.0,0.0,-2.9869,-2.9792,0.0,0.0,0.0,0.0,0.0,0.0,0.0,0.0,0.0,0.0,0.0,0.0,0.0,0.0,0.0,0.0,-2.905,-2.9523,-2.9659,-2.9551,-2.9686,-3.0446,-3.0513,-3.054,-3.0608,-3.1083,-3.1324,-3.1182,-3.1594,-3.1817,-3.1609,-3.1609,0.0,0.0,0.0,-3.1609,-3.1609,-3.1609,-3.1609,-3.1609,-3.1609,-3.1609,-3.1609,-3.1609,-3.1609,-3.1609,-3.1609,-3.1683,-3.1683,-3.1683,-3.1743,-3.189,-3.1683,-3.1609,-3.1609,-3.1609,-3.1522,-3.1347,-3.1347,0.0,0.0,-3.1061,-3.1061,-3.1061,-3.1061,-3.0986,-3.0986,-3.0986,-3.0986,-3.0986,-3.0986,-3.0986,-3.0986,-3.0986,-3.0986,-3.0986,-3.0986,-3.0986,-3.0986,-3.0986,-3.0986,-3.0986,-3.0986,-3.0986,-3.0986,-3.0986,-3.0986,-3.0986,-3.0986,-3.0986,-3.0911,-3.0773,-3.0698,0.0,-3.0698,-2.9883,-2.9729,-3.0698,-2.9806,-2.9639,-3.0444,-3.0444,-3.0444,-3.0444,-3.0444,-3.0444,-3.0444,-3.0444,-3.0444,-3.0444,-3.0011,-2.9869,0.0,0.0,0.0,0.0,0.0,0.0,0.0,0.0,0.0,0.0,0.0,0.0,0.0,0.0,0.0,-2.8959,-2.9268,-2.9821,-3.0798,-3.0948,-3.0918,-3.111,-3.1124,-3.1314,-3.1789,-3.1938,-3.2006,-3.1933,-3.2114,-3.2036,-3.1817,-3.1817,-3.1743,-3.1609,-3.1609,-3.1609,-3.1609,-3.1609,-3.1609,-3.1609,-3.1609,0.0,-3.1609,-3.1609,-3.1683,-3.1817,-3.1817,-3.1963,-3.2109,-3.2109,-3.2109,-3.2109,-3.189,-3.1743,-3.1609,-3.1609,-3.1609,-3.1522,-3.1522,-3.1522,-3.1447,-3.1447,-3.136,-3.1272,-3.1272,-3.1123,0.0,-3.0986,-3.0986,-3.0986,-3.0986,-3.0986,-3.0986,-3.0986,-3.0986,-3.0986,-3.0986,-3.0986,-3.0986,-3.0986,-3.0986,-3.0986,-3.0986,-3.0986,-3.0986,-3.0986,-3.0986,-3.0986,-3.0986,-3.0986,-3.0986,-3.0911,-3.0911,-3.0911,-3.0911,-3.0748,-3.0748,-3.0911,-3.0748,-3.0748,-3.0911,-3.0911,-3.0911,-3.0911,-3.0911,-3.0911,-3.0911,-3.0685,-3.0622,-3.0622,-3.0241,-3.0011,0.0,0.0,0.0,0.0,0.0,0.0,0.0,0.0,0.0,0.0,0.0,-2.7842,-2.8132,0.0,-2.9092,-2.9713,-3.0119,-3.0595,-3.1205,-3.1544,-3.1734,-3.1734,-3.1734,-3.1857,-3.2155,-3.2182,-3.2182,-3.2182,-3.2182,-3.2182,-3.2036,-3.2036,-3.2036,-3.189,-3.189,-3.189,-3.189,-3.189,-3.189,-3.189,-3.189,-3.189,-3.189,-3.189,-3.1963,-3.205,-3.2347,-3.2543,-3.2616,-3.2616,-3.2616,-3.2589,-3.2231,-3.1963,-3.189,-3.189,-3.1817,-3.1743,-3.1743,-3.1683,-3.1609,-3.1609,-3.1522,-3.1434,-3.1347,-3.1198,-3.1123,-3.1123,-3.1123,-3.1198,-3.1299,-3.1211,-3.1123,-3.1123,-3.1061,-3.0986,-3.0986,-3.0986,-3.0986,-3.0986,-3.0986,-3.0986,-3.0986,-3.0986,-3.0986,-3.0986,-3.0986,-3.0986,-3.0986,-3.0986,-3.0986,-3.0986,-3.0986,-3.0986,-3.0986,-3.0986,-3.0986,-3.0986,-3.0986,-3.0986,-3.0986,-3.0986,-3.0986,-3.0986,-3.0986,-3.0986,-3.0986,-3.0911,-3.0849,-3.0849,-3.0533,-3.0394,0.0,0.0,0.0,0.0,0.0,0.0,0.0,-2.7987,-2.8052,-2.8522,-2.8682,-2.8912,-2.9387,-2.9577,-2.9862,-3.0486,-3.1114,-3.1525,-3.1635,-3.2072,-3.2372,-3.2372,-3.2314,-3.2182,-3.2182,-3.2182,-3.2182,-3.2182,-3.2182,-3.2182,-3.2182,-3.2182,-3.2182,-3.2182,-3.2182,-3.2182,-3.2182,-3.2182,-3.2182,-3.2182,-3.2182,-3.2182,-3.2182,-3.2291,-3.2345,-3.2386,-3.2983,-3.324,-3.324,-3.324,-3.324,-3.3173,-3.2589,-3.2345,-3.2331,-3.2223,-3.2109,-3.1963,-3.1963,-3.1817,-3.1757,-3.1757,-3.1683,-3.1596,-3.1434,-3.1421,-3.1347,-3.1347,-3.1347,-3.1434,-3.1535,-3.1522,-3.1347,-3.1347,-3.1211,-3.1136,-3.1061,-3.1061,-3.1061,-3.0986,-3.0986,-3.0986,-3.0986,-3.0986,-3.0986,-3.0986,-3.0986,-3.0986,-3.0986,-3.0986,-3.0986,-3.0986,-3.0986,-3.0986,-3.0986,-3.0986,-3.0986,-3.0986,-3.0986,-3.0986,-3.0986,-3.0986,-3.0986,-3.0986,-3.0986,-3.0986,-3.0986,-3.0986,-3.0986,-3.0986,-3.0849,-3.0609,-2.5216,-2.5685,-2.6427,-2.7443,-2.7709,-2.7855,0.0,-2.8522,-2.8522,-2.8587,-2.9021,-2.9401,-2.9469,-2.993,-3.05,-3.1097,-3.1764,-3.2373,-3.2905,-3.3045,-3.3087,-3.3087,-3.2574,-3.2182,-3.2182,-3.2182,-3.2182,-3.2182,-3.2182,-3.2182,-3.2182,-3.2182,-3.2182,-3.2182,-3.2182,-3.2182,-3.2182,-3.2182,-3.2182,-3.2182,-3.2182,-3.2182,-3.2196,-3.2725,-3.2969,-3.2996,-3.3593,-3.3774,-3.3774,-3.3774,-3.3774,-3.3797,-3.32,-3.2969,-3.2901,-3.2372,-3.2182,-3.2182,-3.2182,-3.2182,-3.2109,-3.2109,-3.2036,-3.189,-3.1817,-3.1743,-3.1609,-3.1609,-3.1609,-3.1609,-3.1596,-3.1596,-3.1609,-3.1609,-3.1535,-3.1447,-3.1286,-3.1272,-3.1198,-3.1061,-3.0986,-3.0986,-3.0986,-3.0986,-3.0986,-3.0986,-3.0986,-3.0986,-3.0986,-3.0986,-3.0986,-3.0986,-3.0986,-3.0986,-3.0986,-3.0986,-3.0986,-3.0986,-3.0986,-3.0986,-3.0986,-3.0986,-3.0986,-3.0986,-3.0986,-3.0986,-3.0986,-3.0986,-3.0986,-3.0986,-3.0986,-3.0836,-2.6333,-2.7015,-2.763,-2.8624,-2.8702,-2.8733,-2.9282,-2.9234,-2.9211,-2.9577,-2.9849,-3.012,-3.0473,-3.0744,-3.111,-3.1721,-3.2387,-3.2918,-3.3185,-3.3213,-3.3353,-3.3768,-3.3227,-3.2632,-3.2241,-3.2182,-3.2182,-3.2182,-3.2182,-3.2182,-3.2182,-3.2182,-3.2182,-3.2182,-3.2182,-3.2182,-3.2182,-3.2574,-3.2574,-3.2169,-3.2574,-3.2753,-3.2698,-3.2942,-3.343,-3.4109,-3.4353,-3.4651,-3.495,-3.4611,-3.4461,-3.4407,-3.381,-3.3363,-3.2996,-3.2399,-3.2182,-3.2182,-3.2182,-3.2182,-3.2182,-3.2182,-3.2109,-3.2036,-3.1963,-3.1817,-3.1743,-3.1743,-3.1743,-3.1817,-3.189,-3.189,-3.1743,-3.1743,-3.1683,-3.1609,-3.1522,-3.1434,-3.1434,-3.1198,-3.1198,-3.1123,-3.0986,-3.0986,-3.1104,-3.1431,-3.1196,-3.0986,-3.0986,-3.0986,-3.0986,-3.0986,-3.0986,-3.0986,-3.0986,-3.0986,-3.0986,-3.0986,-3.0986,-3.0986,-3.0986,-3.0986,-3.0986,-3.0986,-3.0986,-3.0986,-3.0986,-3.0986,-3.0986,-3.0986,-3.0986,-3.0911,-2.7136,-2.7881,-2.8495,-2.9289,-2.9414,-2.9458,-2.9769,-2.9804,-2.9862,-3.031,-3.054,-3.0785,-3.1219,-3.1436,-3.1738,-3.2362,-3.303,-3.3561,-3.3768,-3.3837,-3.4027,-3.4514,-3.3973,-3.3297,-3.2846,-3.2574,-3.2372,-3.2241,-3.2182,-3.2182,-3.2182,-3.2182,-3.2182,-3.2182,-3.2372,-3.2516,-3.2516,-3.3157,-3.3157,-3.2503,-3.3127,-3.3304,-3.3152,-3.3403,-3.4109,-3.5072,-3.5072,-3.5316,-3.5683,-3.5248,-3.5072,-3.5018,-3.4343,-3.3837,-3.3254,-3.2643,-3.2318,-3.2182,-3.2182,-3.2182,-3.2182,-3.2182,-3.2182,-3.2182,-3.2036,-3.1963,-3.1963,-3.1963,-3.1963,-3.2036,-3.2182,-3.2109,-3.1963,-3.1963,-3.189,-3.1743,-3.1683,-3.1683,-3.1596,-3.1434,-3.1347,-3.1413,-3.1422,-3.1373,-3.1481,-3.207,-3.1718,-3.1457,-3.1457,-3.1457,-3.1457,-3.1457,-3.1457,-3.1457,-3.1457,-3.1313,-3.1222,-3.1222,-3.1065,-3.0986,-3.0986,-3.0986,-3.0986,-3.0986,-3.0986,-3.0986,-3.0986,-3.0986,-3.0986,-3.0986,-3.0986,-3.0986,-2.7284,-2.7881,-2.8417,-2.8958,-2.9541,-2.9904,-2.9602,-2.9944,-3.0391,-3.0405,-3.0866,-3.1273,-3.13,-3.1762,-3.2417,-3.3087,-3.3768,-3.4514,-3.5255,-3.532,-3.5335,-3.5335,-3.4714,-3.4245,-3.4245,-3.3561,-3.2889,-3.2241,-3.2182,-3.2182,-3.2182,-3.2182,-3.2182,-3.2182,-3.2832,-3.3157,-3.3157,-3.3905,-3.3905,-3.3157,-3.3746,-3.3706,-3.3179,-3.4258,-3.5113,-3.5683,-3.5683,-3.5696,-3.571,-3.5696,-3.5683,-3.5628,-3.5031,-3.4461,-3.3892,-3.3268,-3.2671,-3.2182,-3.2182,-3.2182,-3.2182,-3.2182,-3.2182,-3.2182,-3.2182,-3.2182,-3.2182,-3.2182,-3.2182,-3.2182,-3.2182,-3.2182,-3.2182,-3.2182,-3.2182,-3.2109,-3.1963,-3.189,-3.1817,-3.1609,-3.1609,-3.1782,-3.2355,-3.2283,-3.2302,-3.2882,-3.2804,-3.2633,-3.2633,-3.2633,-3.2633,-3.2633,-3.2633,-3.2633,-3.2633,-3.2136,-3.1823,-3.1823,-3.13,-3.0986,-3.0986,-3.0986,-3.0986,-3.0986,-3.0986,-3.0986,-3.0986,-3.0986,-3.0986,-3.0986,-3.0986,-3.0986,-2.839,-2.9219,-2.9873,-3.0284,-3.0476,-3.0634,-3.0925,-3.0978,-3.111,-3.1504,-3.1748,-3.1884,-3.1884,-3.2437,-3.296,-3.3143,-3.4245,-3.5124,-3.54,-3.54,-3.5593,-3.6085,-3.5464,-3.5059,-3.5059,-3.438,-3.3837,-3.3575,-3.3171,-3.2889,-3.2889,-3.2889,-3.2889,-3.2889,-3.3561,-3.3891,-3.3891,-3.5072,-3.5073,-3.3845,-3.4857,-3.5497,-3.5835,-3.6095,-3.6286,-3.648,-3.5937,-3.571,-3.571,-3.571,-3.6017,-3.6452,-3.6244,-3.5919,-3.5421,-3.5194,-3.4455,-3.3451,-3.2516,-3.2775,-3.3451,-3.2516,-3.2503,-3.2761,-3.23,-3.2182,-3.2182,-3.2182,-3.2182,-3.2182,-3.2182,-3.2182,-3.2182,-3.2182,-3.2182,-3.2182,-3.2109,-3.2421,-3.2617,-3.2407,-3.2715,-3.3051,-3.3098,-3.3034,-3.3156,-3.3741,-3.3172,-3.2685,-3.2685,-3.2685,-3.2685,-3.2685,-3.2685,-3.2685,-3.2685,-3.2515,-3.2411,-3.2411,-3.2228,-3.1954,-3.1575,-3.1548,-3.1365,-3.0999,-3.0986,-3.0986,-3.0986,-3.0986,-3.0986,-3.0986,-3.0986,-3.0986,-2.9228,-3.0115,-3.075,-3.1055,-3.1382,-3.1609,-3.1612,-3.1732,-3.185,-3.2173,-3.2182,-3.2182,-3.2182,-3.2761,-3.3213,-3.3213,-3.4447,-3.54,-3.54,-3.5608,-3.5943,-3.6414,-3.6085,-3.58,-3.58,-3.5335,-3.4861,-3.4312,-3.3837,-3.3561,-3.3561,-3.3561,-3.3561,-3.3561,-3.4312,-3.4831,-3.5066,-3.6229,-3.6395,-3.5583,-3.6182,-3.6831,-3.7506,-3.7124,-3.6936,-3.6858,-3.6322,-3.6097,-3.6177,-3.6466,-3.6844,-3.7295,-3.7295,-3.6888,-3.6199,-3.6199,-3.554,-3.4514,-3.3381,-3.3506,-3.4177,-3.3241,-3.3241,-3.3492,-3.2775,-3.2574,-3.2503,-3.2241,-3.2182,-3.2182,-3.2182,-3.2331,-3.2554,-3.2904,-3.2864,-3.288,-3.3234,-3.3328,-3.3376,-3.3238,-3.3536,-3.3783,-3.392,-3.4057,-3.4246,-3.4473,-3.3952,-3.3554,-3.3474,-3.338,-3.33,-3.33,-3.33,-3.33,-3.33,-3.3117,-3.3012,-3.3012,-3.2816,-3.2529,-3.2163,-3.215,-3.1875,-3.13,-3.13,-3.1196,-3.0986,-3.0986,-3.0986,-3.0986,-3.0986,-3.0986,-2.9813,-3.0694,-3.1176,-3.1396,-3.2217,-3.2684,-3.1609,-3.2105,-3.2632,-3.2314,-3.2255,-3.2255,-3.2182,-3.2761,-3.3297,-3.3297,-3.4514,-3.5464,-3.5464,-3.6085,-3.6492,-3.6492,-3.6492,-3.6492,-3.6492,-3.6492,-3.5943,-3.4514,-3.438,-3.438,-3.438,-3.438,-3.4394,-3.4423,-3.5103,-3.5839,-3.6484,-3.7166,-3.7836,-3.8377,-3.7636,-3.7594,-3.8175,-3.7372,-3.7,-3.7014,-3.6936,-3.6922,-3.7,-3.7814,-3.8101,-3.8175,-3.8175,-3.7419,-3.6385,-3.6356,-3.5981,-3.5379,-3.4662,-3.438,-3.438,-3.4298,-3.4312,-3.4245,-3.3422,-3.3213,-3.3087,-3.2444,-3.2268,-3.2355,-3.2355,-3.2804,-3.3463,-3.4239,-3.4173,-3.4238,-3.511,-3.4616,-3.3987,-3.3987,-3.4014,-3.414,-3.4787,-3.5183,-3.5318,-3.5154,-3.5086,-3.5003,-3.4839,-3.4577,-3.4397,-3.4397,-3.4397,-3.4397,-3.4397,-3.3927,-3.3639,-3.3639,-3.3091,-3.2764,-3.2738,-3.2738,-3.2463,-3.1901,-3.1888,-3.1614,-3.1078,-3.1114,-3.1101,-3.1101,-3.1149,-3.1123,-3.0862,-3.1761,-3.2454,-3.2492,-3.2868,-3.3114,-3.2835,-3.2961,-3.3058,-3.2632,-3.2561,-3.2503,-3.2241,-3.3171,-3.4041,-3.4041,-3.527,-3.6226,-3.6226,-3.6352,-3.6492,-3.6492,-3.6492,-3.6492,-3.6492,-3.6492,-3.6352,-3.5943,-3.54,-3.5124,-3.5124,-3.5124,-3.5347,-3.5837,-3.6607,-3.7296,-3.7969,-3.8024,-3.8689,-3.9902,-3.9137,-3.9155,-3.9849,-3.8413,-3.8115,-3.8635,-3.7448,-3.7218,-3.78,-3.8026,-3.8473,-3.9,-3.9,-3.8882,-3.8614,-3.8113,-3.7547,-3.6883,-3.6189,-3.5943,-3.5737,-3.4647,-3.4647,-3.4861,-3.3561,-3.3561,-3.3905,-3.3157,-3.3706,-3.4538,-3.4538,-3.5025,-3.5597,-3.5812,-3.5784,-3.5812,-3.6014,-3.5716,-3.5453,-3.5453,-3.5315,-3.5316,-3.5465,-3.5534,-3.5642,-3.5562,-3.5399,-3.5236,-3.5086,-3.4839,-3.4673,-3.4673,-3.4494,-3.4397,-3.4397,-3.4267,-3.4188,-3.4188,-3.4045,-3.3783,-3.3378,-3.3365,-3.3091,-3.2489,-3.2476,-3.2398,-3.2254,-3.2421,-3.2495,-3.2482,-3.2595,-3.2662,-3.1671,-3.2558,-3.3183,-3.3254,-3.3514,-3.3632,-3.3129,-3.3199,-3.3129,-3.2574,-3.2503,-3.2444,-3.2241,-3.3451,-3.4312,-3.3973,-3.5529,-3.6554,-3.6133,-3.6399,-3.6554,-3.6492,-3.6492,-3.6492,-3.6492,-3.6492,-3.6492,-3.6492,-3.6148,-3.5879,-3.5879,-3.6152,-3.6485,-3.6849,-3.7575,-3.8262,-3.8954,-3.9177,-3.9695,-4.0455,-4.0076,-4.0076,-4.0455,-3.9233,-3.8855,-3.9233,-3.8339,-3.819,-3.862,-3.9015,-3.9391,-3.9849,-3.9849,-3.9664,-3.9462,-3.9093,-3.8338,-3.7446,-3.7076,-3.6738,-3.6352,-3.5529,-3.5544,-3.5672,-3.4514,-3.4636,-3.5072,-3.4307,-3.492,-3.5761,-3.5761,-3.6241,-3.6864,-3.7164,-3.7227,-3.7215,-3.7561,-3.7243,-3.6831,-3.6465,-3.6309,-3.6097,-3.579,-3.571,-3.571,-3.571,-3.5642,-3.548,-3.5399,-3.5086,-3.4921,-3.4921,-3.4825,-3.4743,-3.4743,-3.466,-3.4577,-3.4577,-3.4481,-3.4267,-3.3953,-3.4336,-3.4206,-3.3608,-3.3974,-3.4072,-3.3801,-3.3916,-3.3974,-3.396,-3.4038,-3.41,-3.2263,-3.3108,-3.3651,-3.3848,-3.4128,-3.4128,-3.3058,-3.3129,-3.3143,-3.2458,-3.2241,-3.2241,-3.2182,-3.3381,-3.4259,-3.3713,-3.5449,-3.6585,-3.5897,-3.6321,-3.6723,-3.6554,-3.6554,-3.6554,-3.6554,-3.6554,-3.6554,-3.6554,-3.6554,-3.6522,-3.6615,-3.7184,-3.7584,-3.7769,-3.8431,-3.9062,-3.9647,-4.0232,-4.0524,-4.0524,-4.0524,-4.0524,-4.0455,-3.9692,-3.9391,-3.9463,-3.932,-3.9391,-3.9535,-4.0216,-4.0524,-4.0524,-4.0524,-4.017,-3.9631,-3.9447,-3.8646,-3.7631,-3.7523,-3.7123,-3.6615,-3.6522,-3.6553,-3.649,-3.5729,-3.6064,-3.6507,-3.58,-3.6146,-3.6814,-3.6814,-3.7197,-3.7796,-3.8537,-3.8527,-3.8635,-3.932,-3.8855,-3.8026,-3.7218,-3.7,-3.6702,-3.5937,-3.579,-3.571,-3.571,-3.571,-3.571,-3.571,-3.5399,-3.5154,-3.5154,-3.5086,-3.5086,-3.5086,-3.5072,-3.499,-3.499,-3.4812,-3.4716,-3.4786,-3.5426,-3.5585,-3.5131,-3.5816,-3.593,-3.5441,-3.543,-3.5475,-3.5475,-3.5463,-3.5494,-3.3122,-3.3761,-3.4269,-3.4317,-3.4346,-3.4264,-3.3701,-3.3632,0.0,-3.2775,-3.2632,-3.2503,-3.2241,-3.2903,-3.363,-3.4312,-3.524,-3.6039,-3.6662,-3.6877,-3.6938,-3.6938,-3.6938,-3.6938,-3.6938,-3.6938,-3.6862,-3.6662,-3.6662,-3.6847,-3.7292,-3.7446,-3.8015,-3.9139,-3.9816,-4.0232,-4.0355,-4.0462,-4.0524,-4.0524,-4.0524,-4.0524,-4.0455,-3.9692,-3.9692,-4.0231,-3.9621,-3.9692,-4.0301,-4.0455,-4.0524,-4.0524,-4.0524,-4.0462,-4.0216,-3.9093,-3.8539,-3.8262,-3.7692,-3.7415,-3.723,-3.6676,-3.6861,-3.718,-3.6421,-3.7086,-3.7979,-3.7248,-3.7963,-3.8986,-3.8986,-3.9474,-3.9978,-4.0132,-4.0139,-4.0146,-4.0231,-3.9692,-3.8855,-3.8026,-3.7372,-3.6858,-3.6702,-3.6177,-3.571,-3.571,-3.571,-3.571,-3.571,-3.548,-3.5318,-3.5318,-3.5236,-3.5086,-3.5086,-3.5696,-3.607,-3.607,-3.599,-3.6294,-3.6972,-3.6281,-3.6239,-3.674,-3.674,-3.6683,-3.6648,-3.6756,-3.6881,-3.6881,-3.7002,-3.7045,-3.3296,-3.3935,-3.4414,-3.4414,-3.4414,-3.4264,-3.3701,0.0,0.0,-3.2574,-3.2444,-3.2372,-3.2241,-3.2832,-3.363,-3.4461,-3.529,-3.615,-3.6877,-3.7044,-3.7105,-3.6999,-3.6938,-3.6862,-3.6862,-3.68,-3.6677,-3.66,-3.6925,-3.7217,-3.7492,-3.8169,-3.9016,-4.0016,-4.0355,-4.0524,-4.0524,-4.0524,-4.0524,-4.0524,-4.0524,-4.0524,-4.0455,-4.0076,-4.0161,-4.0455,-4.0076,-4.0146,-4.0524,-4.0524,-4.0524,-4.0524,-4.0524,-4.0524,-4.0447,-3.9801,-3.9339,-3.8985,-3.8662,-3.8323,-3.7969,-3.7646,-3.7769,-3.795,-3.7593,-3.8213,-3.8964,-3.8598,-3.9222,-4.0047,-4.0047,-4.0293,-4.0524,-4.0524,-4.0524,-4.0524,-4.0524,-4.0231,-3.9692,-3.8855,-3.8413,-3.8055,-3.7587,-3.7204,-3.6986,-3.6986,-3.6986,-3.6986,-3.6986,-3.683,-3.6452,-3.5629,-3.5857,-3.6004,-3.6004,-3.6674,-3.7035,-3.7035,-3.6972,-3.7063,-3.751,-3.7434,-3.7587,-3.7965,-3.8354,-3.8442,-3.8368,-3.8443,-3.847,-3.8325,-3.8374,-3.8452,-3.3456,-3.4037,-3.4414,-3.4414,-3.4414,-3.4196,-3.3563,-3.3339,-3.3129,-3.2444,-3.2241,-3.2182,-3.2182,-3.2775,-3.3437,-3.4259,-3.521,-3.6056,-3.6708,-3.7074,-3.721,-3.7121,-3.6923,-3.6846,-3.6846,-3.6723,-3.6616,-3.6554,-3.7309,-3.7849,-3.7923,-3.9077,-3.9985,-4.0509,-4.0524,-4.0524,-4.0524,-4.0524,-4.0524,-4.0524,-4.0524,-4.0524,-4.0524,-4.0524,-4.0524,-4.0524,-4.0524,-4.0524,-4.0524,-4.0524,-4.0524,-4.0524,-4.0524,-4.0524,-4.0509,-4.037,-3.997,-3.9524,-3.9524,-3.917,-3.8754,-3.8893,-3.8846,-3.8723,-3.8723,-3.92,-3.9739,-3.9739,-4.0108,-4.0524,-4.0524,-4.0524,-4.0524,-4.0524,-4.0524,-4.0524,-4.0524,-4.0524,-4.0301,-3.9692,-3.9391,-3.9088,-3.8473,-3.8175,-3.8101,-3.8101,-3.8101,-3.8101,-3.8101,-3.8101,-3.7648,-3.6387,-3.6766,-3.7155,-3.7155,-3.7724,-3.8086,-3.8086,-3.7951,-3.7965,-3.8115,-3.859,-3.8899,-3.9045,-3.9681,-3.9925,-3.9768,-3.9768,-3.9696,-3.9496,-3.9481,-3.9481,-3.3993,-3.437,-3.4414,-3.4414,-3.4414,-3.4278,-3.3839,0.0,-3.3199,-3.2775,-3.2444,-3.2182,-3.2182,-3.2241,-3.2574,-3.3437,-3.4365,-3.521,-3.6041,-3.6921,-3.748,-3.748,-3.727,-3.7118,-3.7118,-3.7134,-3.7013,-3.6723,-3.7932,-3.8874,-3.9293,-4.0031,-4.0462,-4.0524,-4.0524,-4.0524,-4.0524,-4.0524,-4.0524,-4.0524,-4.0524,-4.0524,-4.0524,-4.0524,-4.0524,-4.0524,-4.0524,-4.0524,-4.0524,-4.0524,-4.0524,-4.0524,-4.0524,-4.0524,-4.0462,-3.9831,-3.957,-3.9524,-3.9524,-3.9477,-3.9524,-4.0139,-3.9924,-3.9431,-3.9431,-3.9893,-4.0432,-4.0432,-4.0478,-4.0524,-4.0524,-4.0524,-4.0524,-4.0524,-4.0524,-4.0524,-4.0524,-4.0524,-4.0455,-4.037,-3.9778,-3.932,-3.9233,-3.8546,-3.8101,-3.8101,-3.8101,-3.8101,-3.8101,-3.8101,-3.8026,-3.7875,-3.7951,-3.8026,-3.8026,-3.8708,-3.916,-3.916,-3.916,-3.9463,-4.0231,-3.9451,-3.9394,-4.0121,-4.0066,-3.9996,-3.9996,-3.9996,-3.9925,-3.9925,-3.9768,-3.9696,-3.4167,-3.4414,-3.4414,-3.4414,-3.4414,-3.4278,-3.3908,0.0,-3.3199,-3.2775,-3.2561,-3.2444,-3.2255,-3.2372,-3.2704,-3.3227,-3.4163,0.0,-3.5882,-3.6876,-3.748,-3.748,-3.7329,-3.7194,-3.7194,-3.715,-3.7388,-3.7997,-3.8572,-3.9365,-4.0432,-4.0743,-4.0898,-4.0898,-4.0898,-4.0898,-4.0898,-4.0898,-4.0898,-4.0898,-4.0898,-4.0898,-4.0898,-4.0898,-4.0814,-4.0662,-4.0662,-4.0593,-4.0524,-4.0524,-4.0524,-4.0524,-4.0524,-4.0524,-4.0493,-4.0232,-4.0124,-4.0124,-4.0124,-4.0124,-4.017,-4.0432,-4.0355,-4.0124,-4.0124,-4.0309,-4.0524,-4.0524,-4.0524,-4.0524,-4.0524,-4.0524,-4.0524,-4.0524,-4.0524,-4.0524,-4.0524,-4.0524,-4.0524,-4.0524,-4.0231,-4.0005,-4.0005,-3.9778,-3.9535,-3.9535,-3.9535,-3.9535,-3.9535,-3.9535,-3.9535,-3.9535,-3.9088,-3.8855,-3.8855,-3.955,-4.0005,-4.0005,-4.0005,-4.0146,-4.0455,-4.0176,-4.0106,-4.0401,-4.0331,-4.0261,-4.0207,-4.0207,-4.0137,-4.0011,-3.9925,-3.9854,-3.424,-3.4414,-3.4414,-3.4414,-3.4414,-3.4346,0.0,0.0,-3.3339,-3.3058,-3.2988,-3.2775,-3.2588,-3.2717,-3.2974,0.0,0.0,-3.5175,-3.5657,-3.6754,-3.748,-3.748,-3.7329,-3.7194,-3.7194,-3.7277,-3.7826,-3.9045,-3.9311,-3.9953,-4.1158,-4.1236,-4.1169,-4.1102,-4.1117,-4.1117,-4.1117,-4.1117,-4.1117,-4.1117,-4.1117,-4.1117,-4.1117,-4.1117,-4.1034,-4.0882,-4.0882,-4.0814,-4.0677,-4.0677,-4.0677,-4.0593,-4.0593,-4.0485,-4.0331,-4.0462,-4.0401,-4.0331,-4.0462,-4.0524,-4.0524,-4.0524,-4.0524,-4.0524,-4.0524,-4.0524,-4.0524,-4.0524,-4.0524,-4.0524,-4.0524,-4.0524,-4.0524,-4.0524,-4.0524,-4.0524,-4.0524,-4.0524,-4.0524,-4.0524,-4.0524,-4.0524,-4.0524,-4.0524,-4.0524,-4.0524,-4.0524,-4.0524,-4.0524,-4.0524,-4.0524,-4.0524,-3.999,-3.9621,-3.9621,-4.0146,-4.0524,-4.0524,-4.0524,-4.0524,-4.0524,-4.0524,-4.0524,-4.0524,-4.0524,-4.0455,-4.0331,-4.0331,-4.0277,-4.0137,-4.0137,-4.0066,-3.424,-3.4414,-3.4414,-3.4414,-3.4414,-3.4414,-3.4414,-3.4059,-3.377,-3.377,-3.3479,-3.3269,-3.3269,-3.3269,-3.3269,-3.3269,-3.4461,0.0,-3.54,-3.6631,-3.748,-3.748,-3.7329,-3.7194,-3.7194,-3.7684,-3.8372,-3.9455,-4.0023,-4.0651,-4.1557,-4.1588,-4.1472,-4.1117,-4.1117,-4.1117,-4.1117,-4.1117,-4.1117,-4.1117,-4.1117,-4.1117,-4.1117,-4.1117,-4.1117,-4.1117,-4.1117,-4.1117,-4.1117,-4.1117,-4.0966,-4.0799,-4.0799,-4.0396,-3.9849,-4.0362,-4.0192,-3.9864,-4.0309,-4.0524,-4.0524,-4.0524,-4.0524,-4.0524,-4.0524,-4.0524,-4.0524,-4.0524,-4.0524,-4.0524,-4.0524,-4.0524,-4.0524,-4.0524,-4.0524,-4.0524,-4.0524,-4.0524,-4.0524,-4.0524,-4.0524,-4.0524,-4.0524,-4.0524,-4.0524,-4.0524,-4.0524,-4.0524,-4.0524,-4.0524,-4.0524,-4.0524,-4.0455,-4.0455,-4.0455,-4.0539,-4.0524,-4.0524,-4.0524,-4.0524,-4.0524,-4.0524,-4.0524,-4.0524,-4.0524,-4.0524,-4.0524,-4.0524,-4.0524,-4.0455,-4.0331,-4.0207,-3.424,-3.4414,-3.4414,-3.4414,-3.4414,-3.4414,-3.4414,-3.4059,-3.377,-3.377,-3.3701,-3.3563,-3.3339,-3.3811,-3.4002,-3.3409,-3.4765,-3.5755,-3.5464,-3.6631,-3.748,-3.748,-3.7464,-3.7405,-3.7405,-3.7975,-3.8653,-3.9439,-4.0103,-4.0812,-4.1557,-4.1588,-4.1522,-4.1472,-4.1472,-4.1472,-4.1472,-4.1472,-4.1472,-4.1472,-4.1472,-4.1472,-4.1472,-4.1472,-4.1339,-4.1205,-4.1205,-4.1153,-4.1117,-4.1117,-4.1034,-4.0987,-4.0422,-4.0095,-3.9893,-3.9462,-3.9539,-3.9787,-3.9838,-4.0139,-4.0524,-4.0524,-4.0524,-4.0524,-4.0524,-4.0524,-4.0524,-4.0524,-4.0524,-4.0524,-4.0524,-4.0524,-4.0524,-4.0524,-4.0524,-4.0524,-4.0524,-4.0524,-4.0524,-4.0524,-4.0524,-4.0524,-4.0524,-4.0524,-4.0524,-4.0524,-4.0524,-4.0524,-4.0524,-4.0524,-4.0524,-4.0524,-4.0524,-4.0524,-4.0524,-4.0524,-4.0524,-4.0524,-4.0524,-4.0524,-4.0524,-4.0524,-4.0524,-4.0524,-4.0524,-4.0524,-4.0524,-4.0524,-4.0524,-4.0524,-4.047,-4.0401,0.0,-3.4414,-3.4414,-3.4414,-3.4414,0.0,-3.4414,-3.4196,-3.4059,-3.4059,-3.4182,-3.4167,-3.377,-3.4476,-3.4861,-3.4153,-3.5305,-3.6212,-3.5928,-3.6831,-3.748,-3.748,-3.748,-3.748,-3.748,-3.8333,-3.906,-3.9471,-4.0419,-4.1146,-4.1573,-4.1588,-4.1588,-4.1588,-4.1588,-4.1588,-4.1588,-4.1588,-4.1588,-4.1588,-4.1588,-4.1588,-4.1588,-4.1588,-4.1522,-4.139,-4.139,-4.1406,0.0,-4.1288,-4.1064,-4.0716,-4.0263,-3.9778,-3.9294,-3.8976,-3.9194,-3.9598,-3.9699,-4.009,-4.0593,-4.0593,-4.0524,-4.0524,-4.0524,-4.0524,-4.0524,-4.0524,-4.0524,-4.0524,-4.0524,-4.0524,-4.0524,-4.0524,-4.0524,-4.0524,-4.0524,-4.0524,-4.0524,-4.0524,-4.0524,-4.0524,-4.0524,-4.0524,-4.0524,-4.0524,-4.0524,-4.0524,-4.0524,-4.0524,-4.0524,-4.0524,-4.0524,-4.0524,-4.0524,-4.0524,-4.0524,-4.0524,-4.0524,-4.0524,-4.0524,-4.0524,-4.0524,-4.0524,-4.0524,-4.0524,-4.0524,-4.0524,-4.0524,-4.0524,-4.0524,-4.0524,0.0,-3.4385,-3.4414,-3.4414,-3.4414,-3.4414,0.0,0.0,0.0,0.0,-3.4787,-3.4986,-3.4481,-3.5219,-3.5737,-3.5299,-3.607,-3.6723,-3.6723,-3.7165,-3.748,-3.748,-3.748,-3.748,-3.748,-3.8697,-3.9503,-3.9503,-4.0798,-4.1588,-4.1588,-4.1588,-4.1588,-4.1588,-4.1588,-4.1588,-4.1588,-4.1588,-4.1588,-4.1588,-4.1588,-4.1588,-4.1588,-4.1588,-4.1588,-4.1588,-4.1588,-4.1557,-4.1525,-4.1525,-4.1033,-4.0208,-4.0161,-3.9361,-3.8293,-3.87,-3.9061,-3.9328,-3.981,-4.0313,-4.0799,-4.0799,-4.0662,-4.0524,-4.0539,-4.0524,-4.0524,-4.0524,-4.0524,-4.0524,-4.0524,-4.0524,-4.0524,-4.0524,-4.0524,-4.0524,-4.0524,-4.0524,-4.0524,-4.0524,-4.0524,-4.0524,-4.0524,-4.0524,-4.0524,-4.0524,-4.0524,-4.0524,-4.0524,-4.0524,-4.0524,-4.0524,-4.0524,-4.0524,-4.0524,-4.0524,-4.0524,-4.0524,-4.0524,-4.0524,-4.0524,-4.0524,-4.0524,-4.0524,-4.0524,-4.0524,-4.0524,-4.0524,-4.0524,-4.0524,-4.0524,-4.0524,-3.3485,0.0,-3.4414,-3.4414,-3.4414,-3.4414,0.0,0.0,0.0,0.0,0.0,0.0,0.0,0.0,-3.5737,-3.5299,-3.6383,-3.7165,-3.6785,-3.7165,-3.748,-3.748,-3.748,-3.748,-3.748,-3.8697,-3.9503,-3.9503,-4.0798,-4.1588,-4.1588,-4.1588,-4.1588,-4.1588,-4.1588,-4.1588,-4.1588,-4.1588,-4.1588,-4.1588,-4.1588,-4.1588,-4.1588,-4.1588,-4.1588,-4.1588,-4.1588,-4.1304,-4.083,-4.083,-4.0403,-3.9629,-3.9124,-3.873,-3.8383,-3.7822,-3.8309,-3.9266,-3.9263,-3.9991,-4.1034,-4.1034,-4.0966,-4.0966,-4.0814,-4.0593,-4.0524,-4.0524,-4.0524,-4.0524,-4.0524,-4.0524,-4.0524,-4.0524,-4.0524,-4.0524,-4.0524,-4.0524,-4.0524,-4.0524,-4.0524,-4.0524,-4.0524,-4.0524,-4.0524,-4.0524,-4.0524,-4.0524,-4.0524,-4.0524,-4.0524,-4.0524,-4.0524,-4.0524,-4.0524,-4.0524,-4.0524,-4.0524,-4.0524,-4.0524,-4.0524,-4.0524,-4.0524,-4.0524,-4.0524,-4.0524,-4.0524,-4.0524,-4.0524,-4.0524,-4.0524,-4.0524,-3.3296,-3.3935,-3.4414,-3.4414,-3.4414,-3.4414,0.0,0.0,0.0,0.0,0.0,0.0,0.0,0.0,-3.6445,-3.5943,-3.6769,-3.7421,-3.7105,-3.7285,-3.748,-3.748,-3.748,-3.748,-3.748,-3.8697,-3.9503,-3.9503,-4.0798,-4.1462,-4.1146,-4.113,-4.0988,-4.064,-4.0625,-4.0941,-4.1588,-4.1588,-4.1588,-4.1588,-4.1588,-4.1588,-4.1588,-4.1588,-4.1415,-4.113,-4.113,-4.0735,-4.0103,-4.0103,-3.9692,-3.9013,-3.8649,-3.8318,-3.7986,-3.7531,-3.8023,-3.8937,-3.9157,-4.0112,-4.1153,-4.1102,-4.1117,-4.1117,-4.095,-4.0882,-4.0746,-4.0524,-4.0524,-4.0524,-4.0524,-4.0524,-4.0524,-4.0524,-4.0524,-4.0524,-4.0524,-4.0524,-4.0524,-4.0524,-4.0524,-4.0524,-4.0524,-4.0524,-4.0524,-4.0524,-4.0524,-4.0524,-4.0524,-4.0524,-4.0524,-4.0524,-4.0524,-4.0524,-4.0524,-4.0524,-4.0524,-4.0524,-4.0524,-4.0524,-4.0524,-4.0524,-4.0524,-4.0524,-4.0524,-4.0524,-4.0524,-4.0524,-4.0524,-4.0524,-4.0524,-4.0524,-3.3166,-3.3862,-3.4414,-3.4414,-3.4414,-3.4414,0.0,0.0,0.0,0.0,0.0,0.0,0.0,-3.6383,-3.7225,-3.6785,-3.7165,-3.748,-3.748,-3.748,-3.748,-3.748,-3.748,-3.748,-3.748,-3.8618,-3.9345,-3.9345,-4.0546,-4.102,-4.0467,-4.0435,-4.0151,-3.9518,-3.9503,-4.0072,-4.1257,-4.1383,-4.1494,-4.1588,-4.1494,-4.143,-4.143,-4.132,-4.0956,-4.0435,-4.0435,-4.0024,-3.9345,-3.9345,-3.895,-3.8365,-3.8365,-3.8002,-3.748,-3.748,-3.7923,-3.8618,-3.9408,-4.0385,-4.1323,-4.1221,-4.1169,-4.1169,-4.1169,-4.1102,-4.1034,-4.0677,-4.0524,-4.0524,-4.0524,-4.0524,-4.0524,-4.0524,-4.0524,-4.0524,-4.0524,-4.0524,-4.0524,-4.0524,-4.0524,-4.0524,-4.0524,-4.0524,-4.0524,-4.0524,-4.0524,-4.0524,-4.0524,-4.0524,-4.0524,-4.0524,-4.0524,-4.0524,-4.0524,-4.0524,-4.0524,-4.0524,-4.0524,-4.0524,-4.0524,-4.0524,-4.0524,-4.0524,-4.0524,-4.0524,-4.0524,-4.0524,-4.0524,-4.0524,-4.0524,-4.0524,-3.2643,-3.3514,-3.4414,-3.4414,-3.4414,-3.4414,0.0,0.0,0.0,0.0,0.0,0.0,0.0,-3.607,-3.6785,-3.6708,-3.7165,-3.748,-3.748,-3.748,-3.748,-3.748,-3.748,-3.748,-3.748,-3.8191,-3.8665,-3.8665,-3.9376,-3.9771,-3.9677,-3.9677,-3.9629,-3.9503,-3.9503,-3.9598,-3.9819,-4.0435,-4.1035,-4.1588,-4.102,-4.0751,-4.0735,-4.0103,-3.9771,-3.9677,-3.9677,-3.9281,-3.8665,-3.8665,-3.8254,-3.7638,-3.7638,-3.7575,-3.748,-3.748,-3.7923,-3.8697,-3.9993,-4.0941,-4.1522,-4.1522,-4.1522,-4.1472,-4.1323,-4.1256,-4.1205,-4.0867,-4.073,-4.073,-4.0524,-4.0524,-4.0524,-4.0524,-4.0524,-4.0524,-4.0524,-4.0524,-4.0524,-4.0524,-4.0524,-4.0524,-4.0524,-4.0524,-4.0524,-4.0524,-4.0524,-4.0524,-4.0524,-4.0524,-4.0524,-4.0524,-4.0524,-4.0524,-4.0524,-4.0524,-4.0524,-4.0524,-4.0524,-4.0524,-4.0524,-4.0524,-4.0524,-4.0524,-4.0524,-4.0524,-4.0524,-4.0524,-4.0524,-4.0524,-4.0524,-4.0524,-3.2425,-3.3195,-3.3978,-3.4327,-3.4414,-3.4414,0.0,0.0,0.0,0.0,0.0,0.0,0.0,-3.6646,-3.7165,-3.7165,-3.7345,-3.748,-3.748,-3.748,-3.748,-3.748,-3.7727,-3.7844,-3.7539,-3.838,-3.8958,-3.8958,-3.9309,-3.9453,-3.9438,-3.9134,-3.8792,-3.8412,-3.8412,-3.8586,-3.8965,-3.9313,-3.9803,-4.0451,-4.0151,-4.0008,-3.9993,-3.9645,-3.9297,-3.8965,-3.8965,-3.8586,-3.7954,-3.7954,-3.7765,-3.748,-3.748,-3.748,-3.748,-3.748,-3.8144,-3.9139,-3.9787,-4.0704,-4.1588,-4.1588,-4.1588,-4.1588,-4.1522,-4.1456,-4.139,-4.1122,-4.0919,-4.073,-4.0524,-4.0524,-4.0524,-4.0524,-4.0524,-4.0524,-4.0524,-4.0524,-4.0524,-4.0524,-4.0524,-4.0524,-4.0524,-4.0524,-4.0524,-4.0524,-4.0524,-4.0524,-4.0524,-4.0524,-4.0524,-4.0524,-4.0524,-4.0524,-4.0524,-4.0524,-4.0524,-4.0524,-4.0524,-4.0524,-4.0524,-4.0524,-4.0524,-4.0524,-4.0524,-4.0524,-4.0524,-4.0524,-4.0524,-4.0524,-4.0524,-4.0524,-3.2275,-3.2977,-3.3616,-3.4254,0.0,0.0,0.0,0.0,0.0,0.0,0.0,0.0,0.0,-3.7165,-3.748,-3.748,-3.748,-3.748,-3.748,-3.748,-3.748,-3.748,-3.7985,-3.8141,-3.7743,-3.8557,-3.9153,-3.9153,-3.9182,-3.9141,-3.8969,-3.8658,-3.8181,-3.7496,-3.7642,-3.788,-3.827,-3.8375,-3.8787,-3.9503,-3.9345,-3.9281,-3.9266,-3.9108,-3.8744,-3.827,-3.827,-3.797,-3.748,-3.748,-3.748,-3.748,-3.748,-3.748,-3.748,-3.748,-3.8333,-3.9503,-3.9503,-4.0419,-4.1588,-4.1588,-4.1588,-4.1588,-4.1588,-4.1588,-4.1522,-4.1339,-4.107,-4.0799,-4.0593,-4.0524,-4.0524,-4.0524,-4.0524,-4.0524,-4.0524,-4.0524,-4.0524,-4.0524,-4.0524,-4.0524,-4.0524,-4.0524,-4.0524,-4.0524,-4.0524,-4.0524,-4.0524,-4.0524,-4.0524,-4.0524,-4.0524,-4.0524,-4.0524,-4.0524,-4.0524,-4.0524,-4.0524,-4.0524,-4.0524,-4.0524,-4.0524,-4.0524,-4.0524,-4.0524,-4.0524,-4.0524,-4.0524,-4.0524,-4.0524,-4.0524,-3.2133,-3.2977,-3.3616,-3.4254,-3.4414,0.0,-3.4414,-3.4414,0.0,-3.5103,0.0,0.0,-3.6585,-3.7165,-3.748,-3.748,-3.748,-3.748,-3.748,-3.748,-3.748,-3.748,-3.7985,-3.8278,-3.8238,-3.8343,-3.8359,-3.8359,-3.8351,-3.8155,-3.7662,-3.8065,-3.8091,-3.7539,-3.7985,-3.8017,-3.7559,-3.8065,-3.8723,-3.9487,-3.8886,-3.8586,-3.8555,-3.7923,-3.7607,-3.7559,-3.7559,-3.7528,-3.748,-3.748,-3.748,-3.748,-3.748,-3.748,-3.748,-3.748,-3.8333,-3.9503,-3.9503,-4.0419,-4.1588,-4.1588,-4.1588,-4.1588,-4.1588,-4.1588,-4.1522,-4.1236,-4.1117,-4.1034,-4.0799,-4.0662,-4.0524,-4.0524,-4.0524,-4.0524,-4.0524,-4.0524,-4.0524,-4.0524,-4.0524,-4.0524,-4.0524,-4.0524,-4.0524,-4.0524,-4.0524,-4.0524,-4.0524,-4.0524,-4.0524,-4.0524,-4.0524,-4.0524,-4.0524,-4.0524,-4.0524,-4.0524,-4.0524,-4.0524,-4.0524,-4.0524,-4.0524,-4.0524,-4.0524,-4.0524,-4.0524,-4.0524,-4.0524,-4.0524,-4.0524,-4.0524,-3.2032,-3.2701,-3.3122,-3.4167,0.0,0.0,0.0,-3.492,-3.5103,-3.5943,-3.6258,0.0,-3.7105,-3.7345,-3.748,-3.748,-3.748,-3.748,-3.748,-3.748,-3.748,-3.748,-3.8327,-3.8684,-3.8351,-3.8629,-3.9011,-3.9351,-3.8707,-3.8351,-3.8551,-3.8407,-3.8181,-3.7985,-3.8181,-3.8181,-3.7985,-3.8181,-3.83,-3.8239,-3.7986,-3.7875,-3.7859,-3.7607,-3.748,-3.748,-3.748,-3.748,-3.748,-3.748,-3.748,-3.748,-3.748,-3.748,-3.748,-3.748,-3.8065,-3.895,-3.936,-4.0151,-4.1035,-4.1446,-4.1588,-4.1588,-4.1588,-4.1522,-4.139,-4.1272,-4.107,-4.0882,-4.0677,-4.0524,-4.0524,-4.0524,-4.0524,-4.0524,-4.0524,-4.0524,-4.0524,-4.0524,-4.0524,-4.0524,-4.0524,-4.0524,-4.0524,-4.0524,-4.0524,-4.0524,-4.0524,-4.0524,-4.0524,-4.0524,-4.0524,-4.0524,-4.0524,-4.0524,-4.0524,-4.0524,-4.0524,-4.0524,-4.0524,-4.0524,-4.0524,-4.0524,-4.0524,-4.0524,-4.0524,-4.0524,-4.0524,-4.0524,-4.0524,-4.0524,-3.1959,-3.2513,-3.2817,0.0,0.0,0.0,-3.5285,-3.5299,-3.5494,-3.6461,-3.6846,-3.7029,-3.7405,-3.748,-3.748,-3.748,-3.748,-3.748,-3.748,-3.748,-3.748,-3.748,-3.8327,-3.881,-3.8629,-3.881,-3.9119,-3.9697,-3.8995,-3.859,-3.8662,-3.859,-3.8407,-3.8026,-3.8238,-3.8238,-3.8026,-3.8238,-3.8042,-3.748,-3.748,-3.748,-3.748,-3.748,-3.748,-3.748,-3.748,-3.748,-3.748,-3.748,-3.748,-3.748,-3.748,-3.748,-3.748,-3.748,-3.7923,-3.8586,-3.9029,-3.9819,-4.0672,-4.113,-4.1415,-4.1588,-4.1588,-4.1522,-4.139,-4.1272,-4.107,-4.0799,-4.0593,-4.0524,-4.0524,-4.0524,-4.0524,-4.0524,-4.0524,-4.0524,-4.0524,-4.0524,-4.0524,-4.0524,-4.0524,-4.0524,-4.0524,-4.0524,-4.0524,-4.0524,-4.0524,-4.0524,-4.0524,-4.0524,-4.0715,-4.0715,-4.0524,-4.0904,-4.0956,-4.0524,-4.0715,-4.0715,-4.0524,-4.0524,-4.0524,-4.0524,-4.0524,-4.0578,-4.0836,-4.0836,-4.0888,-4.1158,-4.0904,-4.0836,-3.1959,-3.2513,-3.2832,0.0,0.0,0.0,-3.5785,-3.5544,-3.5494,-3.6523,-3.7165,-3.748,-3.748,-3.748,-3.748,-3.748,-3.748,-3.748,-3.748,-3.748,-3.748,-3.748,-3.7985,-3.8518,-3.9135,-3.8629,-3.8574,-3.9135,-3.9206,-3.8717,-3.7583,-3.8551,-3.8662,-3.7524,-3.8042,-3.8026,-3.7539,-3.8042,-3.8042,-3.748,-3.748,-3.748,-3.748,-3.748,-3.748,-3.748,-3.748,-3.748,-3.748,-3.748,-3.748,-3.748,-3.748,-3.748,-3.748,-3.7539,-3.7907,-3.8507,-3.8507,-3.9424,-4.0577,-4.0593,-4.1035,-4.1573,-4.1573,-4.1588,-4.1538,-4.1169,-4.1102,-4.1034,-4.0593,-4.0524,-4.0524,-4.0524,-4.0524,-4.0524,-4.0524,-4.0524,-4.0524,-4.0524,-4.0524,-4.0524,-4.0524,-4.0524,-4.0524,-4.0524,-4.0524,-4.0524,-4.0524,-4.0524,-4.0524,-4.0524,-4.1075,-4.1209,-4.0593,-4.1706,-4.1949,-4.0593,-4.1142,-4.1209,-4.0524,-4.0524,-4.0524,-4.0524,-4.0524,-4.0836,-4.1525,-4.1525,-4.1836,-4.2504,-4.1836,-4.1525,-3.1947,-3.2846,0.0,-3.4211,0.0,0.0,0.0,-3.6054,0.0,0.0,-3.7421,-3.748,-3.748,-3.748,-3.748,-3.748,-3.748,-3.748,-3.748,-3.748,-3.748,-3.748,-3.7985,-3.8518,-3.9135,-3.8629,-3.8723,-3.9697,-3.9401,-3.8865,-3.8084,-3.881,-3.8865,-3.8084,-3.8645,-3.8629,-3.8084,-3.8645,-3.8439,-3.748,-3.748,-3.748,-3.748,-3.748,-3.748,-3.748,-3.748,-3.748,-3.748,-3.748,-3.748,-3.748,-3.748,-3.748,-3.7539,-3.7927,-3.7972,-3.7903,-3.8841,-3.9125,-3.9202,-3.9677,-4.0309,-4.0893,-4.0893,-4.116,-4.1323,-4.1169,-4.1339,-4.1557,-4.1276,-4.1525,-4.1641,-4.0699,-4.0524,-4.0524,-4.0524,-4.0524,-4.0524,-4.0524,-4.0524,-4.0524,-4.0524,-4.0524,-4.0524,-4.0524,-4.0524,-4.0524,-4.0524,-4.0524,-4.0646,-4.1142,-4.1393,-4.1575,-4.1885,-4.2269,-4.2332,-4.1949,-4.2078,-4.1901,-4.1209,-4.1209,-4.1393,-4.1901,-4.1901,-4.2013,-4.2205,-4.2205,-4.2332,-4.252,-4.2269,-4.2205,-3.2069,-3.2977,0.0,-3.4507,-3.5103,-3.5672,-3.6368,0.0,0.0,-3.7405,-3.748,-3.748,-3.748,-3.748,-3.748,-3.748,-3.748,-3.748,-3.748,-3.748,-3.748,-3.748,-3.7786,-3.8197,-3.881,-3.8311,-3.8367,-3.9246,-3.9242,-3.892,-3.8334,-3.8849,-3.892,-3.8334,-3.8629,-3.859,-3.7985,-3.8535,-3.8383,-3.748,-3.748,-3.748,-3.748,-3.748,-3.748,-3.7539,-3.7743,-3.7844,-3.7844,-3.7844,-3.7685,-3.748,-3.748,-3.7626,-3.7828,-3.8181,-3.8084,-3.795,-3.8714,-3.8777,-3.8586,-3.8981,-3.9582,-4.0166,-4.0166,-4.0753,-4.1341,-4.1243,-4.1725,-4.2221,-4.2094,-4.2269,-4.2205,-4.1142,-4.1091,-4.1209,-4.0956,-4.1091,-4.1209,-4.0972,-4.1075,-4.1209,-4.0956,-4.0904,-4.0904,-4.0904,-4.0904,-4.0956,-4.1276,-4.1276,-4.1459,-4.1836,-4.2141,-4.2332,-4.252,-4.3031,-4.3092,-4.252,-4.2769,-4.2707,-4.2332,-4.2013,-4.2078,-4.252,-4.252,-4.2645,-4.2892,-4.2892,-4.3031,-4.335,-4.3015,-4.2892,-3.2289,-3.3021,0.0,-3.4955,-3.5608,0.0,-3.7285,-3.748,-3.748,-3.748,-3.748,-3.748,-3.748,-3.748,-3.748,-3.748,-3.748,-3.748,-3.748,-3.748,-3.748,-3.748,-3.748,-3.7743,-3.8238,-3.7886,-3.7786,-3.8278,-3.8903,-3.8974,-3.8334,-3.8849,-3.8974,-3.8407,-3.839,-3.8141,-3.7583,-3.8084,-3.8084,-3.7583,-3.7583,-3.7583,-3.7642,-3.7539,-3.7539,-3.7583,-3.8084,-3.8334,-3.8407,-3.8334,-3.8042,-3.7642,-3.7583,-3.7886,-3.839,-3.8446,-3.8446,-3.839,-3.839,-3.8402,-3.8457,-3.8412,-3.8871,-3.9408,-3.9408,-4.0366,-4.1342,-4.1236,-4.2073,-4.2961,-4.2811,-4.2737,-4.252,-4.1836,-4.2078,-4.2332,-4.1706,-4.2078,-4.2332,-4.1706,-4.2078,-4.2332,-4.1706,-4.1575,-4.1575,-4.1575,-4.1575,-4.1836,-4.2395,-4.252,-4.2504,-4.2567,-4.3136,-4.3257,-4.2707,-4.3856,-4.4047,-4.2769,-4.3257,-4.3571,-4.3571,-4.2953,-4.2645,-4.2707,-4.2707,-4.3015,-4.3571,-4.3571,-4.3972,-4.457,-4.3914,-4.3571,-3.2341,-3.3354,0.0,0.0,-3.5879,-3.6708,-3.7345,-3.748,-3.748,-3.748,-3.748,-3.748,-3.748,-3.748,-3.748,-3.748,-3.748,-3.748,-3.748,-3.748,-3.748,-3.748,-3.748,-3.7743,-3.8238,-3.8181,-3.8197,-3.8294,-3.9262,-3.9368,-3.8334,-3.8849,-3.9152,-3.9028,-3.9028,-3.8739,-3.8141,-3.8684,-3.8684,-3.8141,-3.8141,-3.8367,-3.8827,-3.7918,-3.7743,-3.8141,-3.8238,-3.8574,-3.8974,-3.8518,-3.8518,-3.8772,-3.8311,-3.8479,-3.9082,-3.9473,-3.9385,-3.9028,-3.9028,-3.8743,-3.8251,-3.7848,-3.8175,-3.8728,-3.8728,-3.9601,-4.0571,-4.0267,-4.1537,-4.2874,-4.2567,-4.3307,-4.3989,-4.3273,-4.2769,-4.2458,-4.2332,-4.2395,-4.2458,-4.2332,-4.2395,-4.2458,-4.2332,-4.2269,-4.2269,-4.2269,-4.2269,-4.2332,-4.2458,-4.252,-4.2707,-4.3196,-4.3376,-4.3647,-4.4121,-4.444,-4.444,-4.4196,-4.431,-4.4367,-4.4367,-4.3647,-4.3588,-4.4121,-4.4121,-4.4253,-4.4367,-4.4367,-4.444,-4.4587,-4.444,-4.4367,-3.2825,0.0,0.0,-3.5365,0.0,-3.6846,-3.7345,-3.748,-3.748,-3.748,-3.748,-3.748,-3.748,-3.748,-3.748,-3.748,-3.748,-3.748,-3.748,-3.748,-3.7583,-3.7828,-3.7626,-3.7786,-3.8629,-3.8463,-3.8278,-3.8278,-3.9102,-3.9332,-3.8739,-3.8739,-3.9011,-3.9558,-3.9348,-3.892,-3.8294,-3.892,-3.892,-3.8278,-3.8278,-3.8446,-3.8739,-3.8157,-3.8214,-3.8739,-3.8739,-3.9065,-3.9542,-3.9262,-3.9172,-3.9152,-3.8849,-3.9065,-3.961,-3.9902,-3.98,-3.9594,-3.9594,-3.9226,-3.8684,-3.8383,-3.8545,-3.8836,-3.8836,-3.9723,-4.0734,-4.0548,-4.1638,-4.2736,-4.261,-4.304,-4.35,-4.3468,-4.3456,-4.341,-4.3075,-4.3273,-4.341,-4.3075,-4.3273,-4.341,-4.3015,-4.2953,-4.2953,-4.2953,-4.2953,-4.3092,-4.3486,-4.3486,-4.3663,-4.3972,-4.4047,-4.4179,-4.457,-4.4587,-4.4587,-4.4587,-4.4587,-4.4587,-4.4587,-4.4236,-4.4179,-4.457,-4.4587,-4.4587,-4.4587,-4.4587,-4.4587,-4.4587,-4.4587,-4.4587,-3.3296,0.0,-3.4854,-3.5657,-3.6383,0.0,-3.7421,-3.748,-3.748,-3.748,-3.748,-3.748,-3.748,-3.748,-3.748,-3.748,-3.748,-3.748,-3.748,-3.7583,-3.7786,-3.8238,-3.8001,-3.8189,-3.9098,-3.8849,-3.8502,-3.8278,-3.9065,-3.9418,-3.9206,-3.8778,-3.9086,-4.0103,-3.961,-3.9065,-3.8463,-3.9011,-3.9011,-3.8463,-3.8668,-3.8723,-3.8596,-3.8596,-3.8794,-3.9206,-3.9312,-3.9662,-4.017,-4.0053,-3.98,-3.9454,-3.9365,-3.9645,-4.017,-4.017,-4.017,-4.017,-4.0053,-3.9697,-3.9295,-3.9259,-3.9206,-3.9206,-3.9206,-4.0046,-4.095,-4.0967,-4.1664,-4.2467,-4.2467,-4.236,-4.2439,-4.3081,-4.3707,-4.412,-4.3773,-4.4179,-4.444,-4.3839,-4.4179,-4.444,-4.3781,-4.3706,-4.3706,-4.3706,-4.3706,-4.3914,-4.4514,-4.4587,-4.4587,-4.4587,-4.4587,-4.4587,-4.4587,-4.4587,-4.4587,-4.4587,-4.4587,-4.4587,-4.4587,-4.4587,-4.4587,-4.4587,-4.4587,-4.4587,-4.4587,-4.4587,-4.4587,-4.4587,-4.4587,-4.4587,0.0,0.0,-3.5721,0.0,-3.6631,-3.7405,-3.748,-3.748,-3.748,-3.748,-3.748,-3.748,-3.748,-3.748,-3.748,-3.748,-3.748,-3.748,-3.748,-3.7886,-3.8238,-3.8278,-3.8701,-3.9044,-3.9206,-3.9542,-3.9351,-3.839,-3.9749,-4.0254,-3.9259,-3.9542,-4.0053,-4.0776,-4.022,-3.9645,-3.9082,-3.9594,-3.9594,-3.9082,-4.007,-4.0286,-3.9783,-3.9783,-3.9542,-3.9259,-3.9697,-4.022,-4.071,-4.022,-4.0286,-4.0614,-4.012,-4.0286,-4.0776,-4.0776,-4.0776,-4.071,-4.017,-3.9952,-3.98,-3.9348,-3.9206,-3.9206,-3.9206,-3.9677,-4.0104,-3.9848,-4.073,-4.1716,-4.146,-4.1865,-4.232,-4.2422,-4.2523,-4.2963,-4.417,-4.4514,-4.457,-4.444,-4.4514,-4.457,-4.444,-4.444,-4.444,-4.444,-4.444,-4.4497,-4.4587,-4.4587,-4.4587,-4.4587,-4.4587,-4.4587,-4.4587,-4.4587,-4.4587,-4.4587,-4.4587,-4.4587,-4.4587,-4.4587,-4.4587,-4.4587,-4.4587,-4.4587,-4.4587,-4.4587,-4.4587,-4.4587,-4.4587,-4.4587,-3.3752,-3.4515,-3.5154,0.0,-3.6243,-3.6754,-3.7345,-3.748,-3.748,-3.748,-3.748,-3.748,-3.748,-3.748,-3.748,-3.748,-3.748,-3.748,-3.748,-3.7669,-3.81,-3.8756,-3.8495,-3.8772,-4.0037,-3.9765,-3.9489,-3.9262,-3.9952,-4.017,-3.9662,-3.961,-3.9969,-4.0871,-4.0319,-3.9902,-3.9645,-3.9902,-3.9902,-3.9662,-4.05,-4.0597,-4.0003,-4.0336,-4.0187,-3.9645,-3.9902,-4.0336,-4.0871,-4.0597,-4.0662,-4.0871,-4.0597,-4.0662,-4.0888,-4.0888,-4.0888,-4.0871,-4.0597,-4.05,-4.0451,-4.0254,-4.0137,-4.0137,-4.0137,-4.0303,-4.05,-4.0353,-4.0641,-4.0981,-4.0831,-4.0917,-4.1153,-4.1593,-4.1677,-4.1982,-4.3064,-4.3639,-4.4062,-4.4485,-4.4587,-4.4587,-4.4587,-4.4587,-4.4587,-4.4587,-4.4587,-4.4587,-4.4587,-4.4587,-4.4587,-4.4587,-4.4587,-4.4587,-4.4587,-4.4587,-4.4587,-4.4587,-4.4587,-4.4587,-4.4587,-4.4587,-4.4587,-4.4587,-4.4587,-4.4587,-4.4587,-4.4587,-4.4587,-4.4587,-4.4587,-4.4587,0.0,0.0,-3.4787,-3.5544,-3.5913,-3.6305,-3.7089,-3.7405,-3.748,-3.748,-3.748,-3.748,-3.748,-3.748,-3.748,-3.748,-3.748,-3.748,-3.748,-3.7642,-3.8059,-3.9098,-3.8551,-3.8849,-4.071,-4.0137,-3.9714,-4.0003,-4.017,-4.017,-4.0003,-3.9765,-4.0037,-4.0871,-4.0434,-4.017,-4.0003,-4.0003,-4.0053,-4.022,-4.071,-4.0662,-4.022,-4.071,-4.0645,-4.022,-4.022,-4.0483,-4.0888,-4.0888,-4.0888,-4.0888,-4.0888,-4.0888,-4.0888,-4.0888,-4.0888,-4.0888,-4.0888,-4.0888,-4.0888,-4.0888,-4.0888,-4.0888,-4.0888,-4.0888,-4.0888,-4.0823,-4.0631,-4.0468,-4.0436,-4.0221,-4.0223,-4.0781,-4.0916,-4.117,-4.21,-4.2878,-4.3589,-4.4181,-4.4451,-4.4587,-4.4587,-4.4587,-4.4587,-4.4587,-4.4587,-4.4587,-4.4587,-4.4587,-4.4587,-4.4587,-4.4587,-4.4587,-4.4587,-4.4587,-4.4587,-4.4587,-4.4587,-4.4587,-4.4587,-4.4587,-4.4587,-4.4587,-4.4587,-4.4587,-4.4587,-4.4587,-4.4587,-4.4587,-4.4587,-4.4587,0.0,-3.4787,0.0,-3.5234,-3.5943,-3.6646,-3.6723,-3.7165,-3.748,-3.748,-3.748,-3.748,-3.748,-3.748,-3.748,-3.748,-3.748,-3.748,-3.748,-3.7927,-3.8518,-3.9135,-3.961,-4.012,-4.0823,-4.0823,-4.0597,-4.0053,-4.0549,-4.0597,-4.0053,-4.05,-4.0823,-4.0888,-4.0871,-4.0597,-4.0003,-4.0003,-4.0269,-4.0871,-4.0888,-4.0871,-4.0871,-4.0888,-4.0871,-4.0871,-4.0871,-4.0871,-4.0888,-4.0888,-4.0888,-4.0888,-4.0888,-4.0888,-4.0888,-4.0888,-4.0888,-4.0888,-4.0888,-4.0888,-4.0888,-4.0888,-4.0888,-4.0888,-4.0888,-4.0888,-4.0823,-4.0583,-4.0534,-4.0419,-4.0188,-4.0121,-4.0087,-4.0121,-4.0138,-4.0527,-4.1982,-4.2878,-4.3436,-4.347,-4.4079,-4.4587,-4.4587,-4.4587,-4.4587,-4.4587,-4.4587,-4.4587,-4.4587,-4.4587,-4.4587,-4.4587,-4.4587,-4.4587,-4.4587,-4.4587,-4.4587,-4.4587,-4.4587,-4.4587,-4.4587,-4.4587,-4.4587,-4.4587,-4.4587,-4.4587,-4.4587,-4.4587,-4.4587,-4.4587,-4.4587,-4.4587,0.0,0.0,0.0,-3.5103,-3.5672,-3.6258,-3.6646,-3.7089,-3.748,-3.748,-3.748,-3.748,-3.748,-3.748,-3.748,-3.748,-3.748,-3.748,-3.748,-3.7985,-3.8518,-3.9135,-3.9348,-3.9868,-4.0823,-4.0549,-4.0385,-4.0549,-4.0776,-4.0823,-4.0597,-4.0758,-4.0888,-4.0888,-4.0888,-4.0823,-4.0597,-4.0597,-4.071,-4.0888,-4.0888,-4.0888,-4.0888,-4.0888,-4.0888,-4.0888,-4.0888,-4.0888,-4.0888,-4.0888,-4.0888,-4.0888,-4.0888,-4.0888,-4.0888,-4.0888,-4.0888,-4.0888,-4.0888,-4.0888,-4.0888,-4.0888,-4.0888,-4.0888,-4.0888,-4.0888,-4.0871,-4.0697,-4.0583,-4.0485,-4.0288,-4.0188,-4.007,-4.007,-4.007,-4.0223,-4.0747,-4.183,-4.2692,-4.2692,-4.3318,-4.3826,-4.3826,-4.4248,-4.4587,-4.4587,-4.4587,-4.4587,-4.4587,-4.4587,-4.4587,-4.4587,-4.4587,-4.4587,-4.4587,-4.4587,-4.4587,-4.4587,-4.4587,-4.4587,-4.4587,-4.4587,-4.4587,-4.4587,-4.4587,-4.4587,-4.4587,-4.4587,-4.4587,-4.4587,-4.4587,-4.4587,-3.4414,0.0,0.0,-3.4854,-3.5415,-3.5976,-3.6383,-3.6968,-3.748,-3.748,-3.748,-3.748,-3.748,-3.748,-3.748,-3.748,-3.748,-3.748,-3.748,-3.7985,-3.8518,-3.9135,-3.9348,-3.9833,-4.0823,-4.0549,-4.05,-4.0871,-4.0888,-4.0888,-4.0888,-4.0888,-4.0888,-4.0888,-4.0888,-4.0888,-4.0888,-4.0888,-4.0888,-4.0888,-4.0888,-4.0888,-4.0888,-4.0888,-4.0888,-4.0888,-4.0888,-4.0888,-4.0888,-4.0888,-4.0888,-4.0888,-4.0888,-4.0888,-4.0888,-4.0888,-4.0888,-4.0888,-4.0888,-4.0888,-4.0888,-4.0888,-4.0888,-4.0888,-4.0888,-4.0888,-4.0871,-4.0697,-4.0583,-4.0485,-4.0288,-4.0188,-4.007,-4.007,-4.007,-4.007,-4.007,-4.1052,-4.1931,-4.1931,-4.254,-4.3047,-4.3047,-4.3673,-4.4198,-4.4198,-4.4418,-4.4587,-4.4587,-4.4587,-4.4587,-4.4587,-4.4587,-4.4587,-4.4587,-4.4587,-4.4587,-4.4587,-4.4587,-4.4587,-4.4587,-4.4587,-4.4587,-4.4587,-4.4587,-4.4587,-4.4587,-4.4587,-4.4587,-4.4587,-4.4587,-4.4587,0.0,0.0,0.0,-3.4414,-3.5169,-3.5913,-3.5913,-3.6754,-3.748,-3.748,-3.748,-3.748,-3.748,-3.748,-3.748,-3.748,-3.748,-3.748,-3.748,-3.7985,-3.8518,-3.9135,-3.9714,-4.0269,-4.0823,-4.0888,-4.0888,-4.0888,-4.0888,-4.0888,-4.0888,-4.0888,-4.0888,-4.0888,-4.0888,-4.0888,-4.0888,-4.0888,-4.0888,-4.0888,-4.0888,-4.0888,-4.0888,-4.0888,-4.0888,-4.0888,-4.0888,-4.0888,-4.0888,-4.0888,-4.0888,-4.0888,-4.0888,-4.0888,-4.0888,-4.0888,-4.0888,-4.0888,-4.0888,-4.0888,-4.0888,-4.0888,-4.0888,-4.0888,-4.0888,-4.0888,-4.084,-4.0583,-4.0485,-4.0419,-4.0171,-4.007,-4.007,-4.007,-4.007,-4.007,-4.007,-4.0646,-4.117,-4.117,-4.1762,-4.2252,-4.2252,-4.2878,-4.3386,-4.3386,-4.4028,-4.4519,-4.4536,-4.4536,-4.4553,-4.4587,-4.4587,-4.4587,-4.4587,-4.4587,-4.4587,-4.4587,-4.4587,-4.4587,-4.4587,-4.4587,-4.4587,-4.4587,-4.4587,-4.4626,-4.4626,-4.4626,-4.4587,-4.4587,-4.4587,-4.4587,-3.4414,0.0,0.0,0.0,0.0,0.0,-3.6383,-3.7029,-3.748,-3.748,-3.748,-3.748,-3.748,-3.748,-3.748,-3.748,-3.748,-3.748,-3.748,-3.8343,-3.9028,-3.9206,-4.0087,-4.071,-4.0871,-4.0888,-4.0888,-4.0888,-4.0888,-4.0888,-4.0888,-4.0888,-4.0888,-4.0888,-4.0888,-4.0888,-4.0888,-4.0888,-4.0888,-4.0888,-4.0888,-4.0888,-4.0888,-4.0888,-4.0888,-4.0888,-4.0888,-4.0888,-4.0888,-4.0888,-4.0888,-4.0888,-4.0888,-4.0888,-4.0888,-4.0888,-4.0888,-4.0888,-4.0888,-4.0888,-4.0888,-4.0888,-4.0888,-4.0888,-4.0888,-4.084,-4.0745,-4.0534,-4.0436,-4.0337,-4.0121,-4.007,-4.007,-4.007,-4.007,-4.007,-4.007,-4.024,-4.0392,-4.0392,-4.1001,-4.1508,-4.1508,-4.2117,-4.2591,-4.2591,-4.2777,-4.3115,-4.3673,-4.3741,-4.3944,-4.4519,-4.4587,-4.4587,-4.4587,-4.4587,-4.4587,-4.4587,-4.4587,-4.4587,-4.4587,-4.4587,-4.4587,-4.4587,-4.4587,-4.4759,-4.5125,-4.4759,-4.4587,-4.4587,-4.4587,-4.4587,0.0,0.0,0.0,-3.5415,0.0,0.0,-3.6646,-3.7089,-3.748,-3.748,-3.748,-3.748,-3.748,-3.748,-3.748,-3.748,-3.748,-3.748,-3.748,-3.8495,-3.9206,-3.9206,-4.0204,-4.0888,-4.0888,-4.0888,-4.0888,-4.0888,-4.0888,-4.0888,-4.0888,-4.0888,-4.0888,-4.0888,-4.0888,-4.0888,-4.0888,-4.0888,-4.0888,-4.0888,-4.0888,-4.0888,-4.0888,-4.0888,-4.0888,-4.0888,-4.0888,-4.0888,-4.0888,-4.0888,-4.0888,-4.0888,-4.0888,-4.0888,-4.0888,-4.0888,-4.0888,-4.0888,-4.0888,-4.0888,-4.0888,-4.0888,-4.0888,-4.0888,-4.084,-4.0745,-4.0648,-4.0485,-4.0337,-4.0188,-4.0138,-4.007,-4.007,-4.007,-4.0254,-4.0402,-4.0402,-4.0531,-4.0563,-4.0171,-4.0443,-4.073,-4.073,-4.1339,-4.183,-4.183,-4.21,-4.2455,-4.2895,-4.2946,-4.325,-4.4012,-4.4096,-4.4309,-4.4818,-4.4906,-4.4998,-4.5196,-4.4998,-4.4998,-4.5196,-4.4998,-4.4998,-4.5196,-4.5249,-4.5337,-4.5648,-4.5125,-4.4906,-4.4906,-4.4906,-4.4814,0.0,0.0,0.0,-3.5976,-3.6321,0.0,-3.6785,-3.7165,-3.748,-3.748,-3.748,-3.748,-3.748,-3.748,-3.748,-3.748,-3.7524,-3.7583,-3.7583,-3.8495,-3.9206,-3.9295,-4.0254,-4.0888,-4.0888,-4.0888,-4.0888,-4.0888,-4.0888,-4.0888,-4.0888,-4.0888,-4.0888,-4.0888,-4.0888,-4.0888,-4.0888,-4.0888,-4.0888,-4.0888,-4.0888,-4.0888,-4.0888,-4.0888,-4.0888,-4.0871,-4.0965,-4.0918,-4.0871,-4.0965,-4.0918,-4.0888,-4.0888,-4.0888,-4.0888,-4.0888,-4.0888,-4.0888,-4.0888,-4.0888,-4.0888,-4.0888,-4.0888,-4.0871,-4.0745,-4.0697,-4.06,-4.0337,-4.0188,-4.0121,-4.0171,-4.0171,-4.0171,-4.0254,-4.0563,-4.0896,-4.0896,-4.1185,-4.1258,-4.0434,-4.0254,-4.0254,-4.0254,-4.0781,-4.1172,-4.1172,-4.1679,-4.2083,-4.2168,-4.2168,-4.2455,-4.3254,-4.3339,-4.3846,-4.5044,-4.5182,-4.5475,-4.5926,-4.5596,-4.5597,-4.6049,-4.5648,-4.5597,-4.6098,-4.6165,-4.6213,-4.6213,-4.5648,-4.5407,-4.5407,-4.5407,-4.5178,-3.5913,-3.5913,-3.5976,-3.6461,-3.6646,0.0,-3.7225,-3.7405,-3.748,-3.748,-3.748,-3.748,-3.748,-3.748,-3.748,-3.748,-3.7886,-3.8124,-3.8124,-3.8756,-3.9348,-3.98,-4.0451,-4.0888,-4.0888,-4.0888,-4.0888,-4.0888,-4.0888,-4.0888,-4.0888,-4.0888,-4.0888,-4.0888,-4.0888,-4.0888,-4.0888,-4.0888,-4.0888,-4.0888,-4.0888,-4.0888,-4.0888,-4.0888,-4.0888,-4.0935,-4.1237,-4.1209,-4.0918,-4.1237,-4.1209,-4.0888,-4.0888,-4.0888,-4.0888,-4.0888,-4.0888,-4.0888,-4.0888,-4.0888,-4.0888,-4.0888,-4.0888,-4.0871,-4.0745,-4.0631,-4.0485,-4.0221,-4.0138,-4.0171,-4.058,-4.0659,-4.0754,-4.1139,-4.1321,-4.1348,-4.1348,-4.1455,-4.1437,-4.1258,-4.123,-4.123,-4.123,-4.1047,-4.0899,-4.0899,-4.0694,-4.073,-4.1339,-4.1407,-4.1834,-4.2963,-4.3083,-4.332,-4.3982,-4.4607,-4.5023,-4.512,-4.5649,-4.6,-4.6116,-4.6,-4.6,-4.6098,-4.6501,-4.6753,-4.6753,-4.6213,-4.595,-4.595,-4.595,-4.59,-3.6693,-3.6693,-3.6754,-3.7029,-3.7105,0.0,0.0,-3.748,-3.748,-3.748,-3.748,-3.748,-3.748,-3.748,-3.748,-3.748,-3.7927,-3.8407,-3.8684,-3.9226,-3.9697,-3.9952,-4.0549,-4.0888,-4.0888,-4.0888,-4.0888,-4.0888,-4.0888,-4.0888,-4.0888,-4.0888,-4.0888,-4.0888,-4.0888,-4.0888,-4.0888,-4.0888,-4.0888,-4.0888,-4.0888,-4.0888,-4.0888,-4.0888,-4.0995,-4.1209,-4.1401,-4.1534,-4.1534,-4.1796,-4.1753,-4.1507,-4.1088,-4.0888,-4.0888,-4.0888,-4.0888,-4.0888,-4.0888,-4.1041,-4.1209,-4.1209,-4.1328,-4.1418,-4.1328,-4.1146,-4.0972,-4.0832,-4.0784,-4.0832,-4.1094,-4.1139,-4.123,-4.1437,-4.1656,-4.1846,-4.1846,-4.2015,-4.218,-4.218,-4.218,-4.2056,-4.1569,-4.1303,-4.1139,-4.1139,-4.0955,-4.0922,-4.1302,-4.1354,-4.1743,-4.268,-4.2814,-4.3144,-4.4021,-4.4473,-4.4794,-4.508,-4.5212,-4.5602,-4.6257,-4.6028,-4.6205,-4.689,-4.7151,-4.7302,-4.7302,-4.7017,-4.6753,-4.6501,-4.6501,-4.6358,-3.7539,-3.748,-3.748,-3.748,-3.748,-3.748,0.0,0.0,0.0,-3.748,-3.748,-3.748,-3.748,-3.748,-3.7524,-3.7642,-3.8084,-3.8684,-3.9295,-3.9817,-4.017,-4.017,-4.0597,-4.0888,-4.0888,-4.0888,-4.0888,-4.0888,-4.0888,-4.0918,-4.0995,-4.0918,-4.0918,-4.0995,-4.0918,-4.0888,-4.0888,-4.0965,-4.1012,-4.1012,-4.1088,-4.1134,-4.1134,-4.1134,-4.1328,-4.1648,-4.1735,-4.1948,-4.2198,-4.2297,-4.2297,-4.2115,-4.1418,-4.1134,-4.1134,-4.1134,-4.1134,-4.1134,-4.1134,-4.1373,-4.1648,-4.1604,-4.1735,-4.1948,-4.1881,-4.1692,-4.1481,-4.1481,-4.1481,-4.1525,-4.1613,-4.1613,-4.1656,-4.1743,-4.2056,-4.232,-4.232,-4.2634,-4.2882,-4.2882,-4.2882,-4.2673,-4.1913,-4.17,-4.1613,-4.1613,-4.1569,-4.1481,-4.1481,-4.1481,-4.1771,-4.2449,-4.2519,-4.2988,-4.4121,-4.4317,-4.4594,-4.5015,-4.4797,-4.5156,-4.6232,-4.5839,-4.6144,-4.7228,-4.7391,-4.7482,-4.7482,-4.7627,-4.7468,-4.7062,-4.7062,-4.6817,-3.7626,-3.748,-3.748,-3.748,-3.748,-3.748,-3.748,0.0,-3.748,-3.748,0.0,-3.748,-3.748,0.0,0.0,-3.8141,-3.8684,-3.9295,-3.9851,-4.0434,-4.0823,-4.0823,-4.0871,-4.0888,-4.0888,-4.0888,-4.0888,-4.0888,-4.0888,-4.1041,-4.1401,-4.1071,-4.1041,-4.1401,-4.1088,-4.0888,-4.0888,-4.1237,-4.1445,-4.1445,-4.1864,-4.2032,-4.2032,-4.2032,-4.2074,-4.2157,-4.2555,-4.2555,-4.2239,-4.2634,-4.2595,-4.2198,-4.2074,-4.2032,-4.2032,-4.2032,-4.2032,-4.2032,-4.2032,-4.2074,-4.2115,-4.199,-4.1864,-4.1735,-4.1709,-4.1604,-4.1481,-4.1481,-4.1481,-4.1587,-4.2015,-4.2115,-4.2239,-4.2634,-4.2788,-4.2806,-4.2806,-4.2844,-4.2882,-4.2882,-4.2882,-4.2882,-4.275,-4.2418,-4.2115,-4.2115,-4.176,-4.1481,-4.1481,-4.1481,-4.1692,-4.2199,-4.2258,-4.2458,-4.3021,-4.3728,-4.4183,-4.4222,-4.4853,-4.5287,-4.5436,-4.5395,-4.5432,-4.558,-4.6269,-4.6649,-4.6649,-4.7355,-4.7657,-4.7615,-4.7615,-4.7572,-3.8042,-3.7985,-3.7886,-3.7583,-3.7727,-3.7985,-3.7985,-3.7985,-3.8042,-3.8383,0.0,0.0,0.0,0.0,0.0,0.0,-3.9279,-3.9749,-3.9952,-4.05,-4.0888,-4.0888,-4.0888,-4.0888,-4.0888,-4.0888,-4.0888,-4.0888,-4.0888,-4.1088,-4.149,-4.1311,-4.1445,-4.1906,-4.149,-4.1373,-4.1666,-4.1534,-4.1648,-4.1906,-4.2115,-4.2198,-4.2198,-4.2198,-4.2338,-4.2634,-4.2806,-4.292,-4.2976,-4.3178,-4.3142,-4.2958,-4.2958,-4.2655,-4.2198,-4.2198,-4.2198,-4.2198,-4.2115,-4.2239,-4.2498,-4.2613,-4.2573,-4.2494,-4.2436,-4.2378,-4.232,-4.232,-4.232,-4.236,-4.2555,-4.2595,-4.2673,-4.2844,-4.2882,-4.2882,-4.2882,-4.2882,-4.2882,-4.2882,-4.2882,-4.2882,-4.2882,-4.2729,-4.2595,-4.2595,-4.2458,-4.232,-4.232,-4.232,-4.24,-4.2595,-4.2595,-4.2673,-4.2882,-4.3208,-4.3389,-4.3389,-4.415,-4.4603,-4.4603,-4.5055,-4.5291,-4.5291,-4.5635,-4.5798,-4.5798,-4.6142,-4.6305,-4.6341,-4.7283,-4.7717,-3.8509,-3.8574,-3.8463,-3.8059,-3.827,-3.8574,-3.8574,-3.8574,-3.8684,-3.9082,-3.8849,0.0,0.0,0.0,-3.8739,-3.9348,0.0,-4.0053,-4.022,-4.0597,-4.0888,-4.0888,-4.0888,-4.0888,-4.0888,-4.0888,-4.0888,-4.0888,-4.0995,-4.1255,-4.1648,-4.1692,-4.1906,-4.2378,-4.1948,-4.1864,-4.2216,-4.199,-4.2032,-4.2378,-4.248,-4.2577,-4.2577,-4.2577,-4.2732,-4.3069,-4.3069,-4.3232,-4.3497,-4.3497,-4.3497,-4.3497,-4.3497,-4.3124,-4.2559,-4.2537,-4.2537,-4.2498,-4.236,-4.2537,-4.2844,-4.3049,-4.3067,-4.3049,-4.2938,-4.2882,-4.2882,-4.2882,-4.2882,-4.2882,-4.2882,-4.2882,-4.2882,-4.2882,-4.2882,-4.2882,-4.2882,-4.2882,-4.2882,-4.2882,-4.2882,-4.2882,-4.2882,-4.2882,-4.2882,-4.2882,-4.2882,-4.2882,-4.2882,-4.2882,-4.2882,-4.2882,-4.2882,-4.2882,-4.2882,-4.2882,-4.2882,-4.2882,-4.3444,-4.3769,-4.3769,-4.4331,-4.4639,-4.4639,-4.4856,-4.4965,-4.4965,-4.5182,-4.5291,-4.5327,-4.6504,-4.7174,-3.9113,-3.9152,-3.9152,-3.9152,-3.9152,-3.9152,-3.9152,-3.9152,-3.9206,-3.9206,-3.9189,-3.9206,-3.9206,-3.9189,-3.9348,-3.9902,-4.0003,0.0,0.0,-4.0888,-4.0888,-4.0888,-4.0888,-4.0888,-4.0888,-4.0888,-4.0888,-4.0888,-4.1237,-4.1692,-4.2157,-4.2157,-4.2378,-4.2844,-4.2418,-4.2198,-4.2198,-4.2634,-4.2844,-4.2882,-4.325,-4.3444,-4.3444,-4.3444,-4.3463,-4.3479,-4.3479,-4.3497,-4.3497,-4.3497,-4.3497,-4.3497,-4.3497,-4.3479,-4.3444,-4.3376,-4.334,-4.334,-4.3214,-4.3105,-4.3104,-4.3104,-4.2994,-4.29,-4.2882,-4.2882,-4.2882,-4.2882,-4.2882,-4.2882,-4.2882,-4.2882,-4.2882,-4.2882,-4.2882,-4.2882,-4.2882,-4.2882,-4.2882,-4.2882,-4.2882,-4.2882,-4.2882,-4.2882,-4.2882,-4.2882,-4.2882,-4.2882,-4.2882,-4.2882,-4.2882,-4.2882,-4.2882,-4.2882,-4.2882,-4.2882,-4.2882,-4.2882,-4.29,-4.2936,-4.2936,-4.2955,-4.2973,-4.2973,-4.3733,-4.4132,-4.4132,-4.491,-4.5291,-4.5291,-4.5345,-4.5798,-3.9384,-3.9547,-3.9645,-3.9295,-3.9454,-3.9749,-3.9749,-3.9749,-3.9868,-4.0254,-4.002,-3.9868,-4.0237,-4.002,-3.9919,-4.05,-4.0597,-4.0662,0.0,-4.0888,-4.0888,-4.0888,-4.0888,-4.0888,-4.0888,-4.0888,-4.0995,-4.1283,-4.1445,-4.1821,-4.2634,-4.2673,-4.2864,-4.3304,-4.2864,-4.2788,-4.305,-4.2957,-4.3032,-4.3304,-4.3444,-4.3497,-4.3497,-4.3497,-4.3497,-4.3497,-4.3497,-4.3497,-4.3497,-4.3497,-4.3497,-4.3497,-4.3497,-4.3463,-4.3411,-4.3429,-4.3394,-4.3376,-4.3215,-4.3068,-4.2956,-4.2956,-4.2938,-4.2882,-4.2882,-4.2882,-4.2882,-4.2882,-4.2882,-4.2882,-4.2882,-4.2882,-4.2882,-4.2882,-4.2882,-4.2882,-4.2882,-4.2882,-4.2882,-4.2882,-4.2882,-4.2882,-4.2882,-4.2882,-4.2882,-4.2882,-4.2882,-4.2882,-4.2882,-4.2882,-4.2882,-4.2882,-4.2882,-4.2882,-4.2882,-4.2882,-4.2882,-4.2882,-4.2882,-4.2882,-4.2882,-4.2882,-4.2882,-4.2882,-4.3154,-4.3299,-4.3299,-4.357,-4.3697,-4.3697,-4.3697,-4.4421,-3.9638,-3.9851,-3.988,-3.9817,-4.007,-4.0336,-4.0336,-4.0336,-4.0434,-4.0823,-4.0597,-4.0434,-4.0823,-4.0597,-4.0434,-4.0823,-4.0888,-4.0888,0.0,-4.0888,-4.0888,-4.0888,-4.0888,-4.0965,-4.1071,-4.1117,-4.1283,-4.1735,-4.1906,-4.2239,-4.2882,-4.305,-4.3232,-4.3479,-4.3268,-4.3232,-4.3497,-4.3232,-4.3232,-4.3497,-4.3497,-4.3497,-4.3497,-4.3497,-4.3497,-4.3497,-4.3497,-4.3497,-4.3497,-4.3497,-4.3497,-4.3497,-4.3463,-4.3446,-4.3394,-4.334,-4.3305,-4.3178,-4.3086,-4.2994,-4.2882,-4.2882,-4.2882,-4.2882,-4.2882,-4.2882,-4.2882,-4.2882,-4.2882,-4.2882,-4.2882,-4.2882,-4.2882,-4.2882,-4.2882,-4.2882,-4.2882,-4.2882,-4.2882,-4.2882,-4.2882,-4.2882,-4.2882,-4.2882,-4.2882,-4.2882,-4.2882,-4.2882,-4.2882,-4.2882,-4.2882,-4.2882,-4.2882,-4.2882,-4.2882,-4.2882,-4.2882,-4.2882,-4.2882,-4.2882,-4.2882,-4.2882,-4.3027,-4.3317,-4.3045,-4.3027,-4.3317,-4.3027,-4.2882,-4.2882,-4.2882,-4.3444]}]]